<?xml version="1.0" encoding="UTF-8" standalone="no" ?>
<gpx xmlns="http://www.topografix.com/GPX/1/1" xmlns:xsi="http://www.w3.org/2001/XMLSchema-instance" xsi:schemaLocation="http://www.topografix.com/GPX/1/1 http://www.topografix.com/GPX/1/1/gpx.xsd" version="1.1" creator="VisuGPX - https://www.visugpx.com">
  <metadata>
    <name>Rando Le Mont Faron</name>
    <desc><![CDATA[Top, 👍]]></desc>
  </metadata>
  <trk>
    <name><![CDATA[Rando Le Mont Faron_1]]></name>
    <trkseg>
      <trkpt lat="43.13716" lon="5.93431">
        <ele>118.6</ele>
        <time>2022-07-30T07:23:58Z</time>
      </trkpt>
      <trkpt lat="43.13726" lon="5.93436">
        <ele>122.4</ele>
        <time>2022-07-30T07:24:07Z</time>
      </trkpt>
      <trkpt lat="43.13729" lon="5.93437">
        <ele>122.4</ele>
        <time>2022-07-30T07:24:09Z</time>
      </trkpt>
      <trkpt lat="43.13733" lon="5.93441">
        <ele>124.2</ele>
        <time>2022-07-30T07:24:13Z</time>
      </trkpt>
      <trkpt lat="43.13734" lon="5.93441">
        <ele>124.2</ele>
        <time>2022-07-30T07:24:14Z</time>
      </trkpt>
      <trkpt lat="43.13736" lon="5.93442">
        <ele>125.2</ele>
        <time>2022-07-30T07:24:15Z</time>
      </trkpt>
      <trkpt lat="43.13738" lon="5.93442">
        <ele>125.2</ele>
        <time>2022-07-30T07:24:18Z</time>
      </trkpt>
      <trkpt lat="43.1374" lon="5.93442">
        <ele>126</ele>
        <time>2022-07-30T07:24:20Z</time>
      </trkpt>
      <trkpt lat="43.13744" lon="5.93442">
        <ele>126.8</ele>
        <time>2022-07-30T07:24:24Z</time>
      </trkpt>
      <trkpt lat="43.13746" lon="5.93442">
        <ele>127.3</ele>
        <time>2022-07-30T07:24:26Z</time>
      </trkpt>
      <trkpt lat="43.13747" lon="5.93441">
        <ele>127.3</ele>
        <time>2022-07-30T07:24:27Z</time>
      </trkpt>
      <trkpt lat="43.13753" lon="5.93437">
        <ele>128.7</ele>
        <time>2022-07-30T07:24:34Z</time>
      </trkpt>
      <trkpt lat="43.13756" lon="5.93429">
        <ele>129.2</ele>
        <time>2022-07-30T07:24:40Z</time>
      </trkpt>
      <trkpt lat="43.1376" lon="5.93421">
        <ele>129.4</ele>
        <time>2022-07-30T07:24:48Z</time>
      </trkpt>
      <trkpt lat="43.13761" lon="5.93421">
        <ele>130.1</ele>
        <time>2022-07-30T07:24:52Z</time>
      </trkpt>
      <trkpt lat="43.13761" lon="5.93422">
        <ele>130.1</ele>
        <time>2022-07-30T07:24:53Z</time>
      </trkpt>
      <trkpt lat="43.1376" lon="5.93433">
        <ele>129.9</ele>
        <time>2022-07-30T07:25:04Z</time>
      </trkpt>
      <trkpt lat="43.13761" lon="5.93441">
        <ele>131.1</ele>
        <time>2022-07-30T07:25:15Z</time>
      </trkpt>
      <trkpt lat="43.13759" lon="5.93446">
        <ele>130.6</ele>
        <time>2022-07-30T07:25:26Z</time>
      </trkpt>
      <trkpt lat="43.13755" lon="5.93443">
        <ele>129.9</ele>
        <time>2022-07-30T07:25:28Z</time>
      </trkpt>
      <trkpt lat="43.13753" lon="5.93443">
        <ele>129.2</ele>
        <time>2022-07-30T07:25:32Z</time>
      </trkpt>
      <trkpt lat="43.13738" lon="5.93458">
        <ele>126.9</ele>
        <time>2022-07-30T08:04:24Z</time>
      </trkpt>
      <trkpt lat="43.13743" lon="5.93459">
        <ele>127.6</ele>
        <time>2022-07-30T08:04:31Z</time>
      </trkpt>
      <trkpt lat="43.13749" lon="5.9346">
        <ele>129.4</ele>
        <time>2022-07-30T08:04:47Z</time>
      </trkpt>
      <trkpt lat="43.13746" lon="5.93463">
        <ele>128.7</ele>
        <time>2022-07-30T08:05:06Z</time>
      </trkpt>
      <trkpt lat="43.13747" lon="5.93454">
        <ele>128.1</ele>
        <time>2022-07-30T08:05:19Z</time>
      </trkpt>
      <trkpt lat="43.13748" lon="5.93454">
        <ele>128.9</ele>
        <time>2022-07-30T08:05:21Z</time>
      </trkpt>
      <trkpt lat="43.13753" lon="5.93451">
        <ele>129.6</ele>
        <time>2022-07-30T08:05:25Z</time>
      </trkpt>
      <trkpt lat="43.13755" lon="5.93449">
        <ele>130.1</ele>
        <time>2022-07-30T08:05:27Z</time>
      </trkpt>
      <trkpt lat="43.13757" lon="5.93448">
        <ele>130.1</ele>
        <time>2022-07-30T08:05:28Z</time>
      </trkpt>
      <trkpt lat="43.13759" lon="5.93446">
        <ele>130.6</ele>
        <time>2022-07-30T08:05:29Z</time>
      </trkpt>
      <trkpt lat="43.1376" lon="5.93444">
        <ele>131.3</ele>
        <time>2022-07-30T08:05:30Z</time>
      </trkpt>
      <trkpt lat="43.13761" lon="5.93443">
        <ele>131.3</ele>
        <time>2022-07-30T08:05:31Z</time>
      </trkpt>
      <trkpt lat="43.13763" lon="5.93441">
        <ele>131.1</ele>
        <time>2022-07-30T08:05:32Z</time>
      </trkpt>
      <trkpt lat="43.13769" lon="5.93438">
        <ele>132.4</ele>
        <time>2022-07-30T08:05:34Z</time>
      </trkpt>
      <trkpt lat="43.13772" lon="5.93437">
        <ele>132.9</ele>
        <time>2022-07-30T08:05:35Z</time>
      </trkpt>
      <trkpt lat="43.13776" lon="5.93435">
        <ele>133.5</ele>
        <time>2022-07-30T08:05:36Z</time>
      </trkpt>
      <trkpt lat="43.13779" lon="5.93434">
        <ele>134.2</ele>
        <time>2022-07-30T08:05:37Z</time>
      </trkpt>
      <trkpt lat="43.13782" lon="5.93432">
        <ele>135.6</ele>
        <time>2022-07-30T08:05:38Z</time>
      </trkpt>
      <trkpt lat="43.13786" lon="5.93431">
        <ele>136.4</ele>
        <time>2022-07-30T08:05:39Z</time>
      </trkpt>
      <trkpt lat="43.1379" lon="5.9343">
        <ele>137.1</ele>
        <time>2022-07-30T08:05:40Z</time>
      </trkpt>
      <trkpt lat="43.13794" lon="5.93428">
        <ele>137.7</ele>
        <time>2022-07-30T08:05:41Z</time>
      </trkpt>
      <trkpt lat="43.13799" lon="5.93427">
        <ele>139.3</ele>
        <time>2022-07-30T08:05:42Z</time>
      </trkpt>
      <trkpt lat="43.13804" lon="5.93425">
        <ele>140.2</ele>
        <time>2022-07-30T08:05:43Z</time>
      </trkpt>
      <trkpt lat="43.13808" lon="5.93423">
        <ele>142.2</ele>
        <time>2022-07-30T08:05:44Z</time>
      </trkpt>
      <trkpt lat="43.13813" lon="5.9342">
        <ele>143.2</ele>
        <time>2022-07-30T08:05:45Z</time>
      </trkpt>
      <trkpt lat="43.13818" lon="5.93417">
        <ele>145.2</ele>
        <time>2022-07-30T08:05:46Z</time>
      </trkpt>
      <trkpt lat="43.13823" lon="5.93414">
        <ele>146</ele>
        <time>2022-07-30T08:05:47Z</time>
      </trkpt>
      <trkpt lat="43.13827" lon="5.93411">
        <ele>148</ele>
        <time>2022-07-30T08:05:48Z</time>
      </trkpt>
      <trkpt lat="43.13832" lon="5.93409">
        <ele>149.3</ele>
        <time>2022-07-30T08:05:49Z</time>
      </trkpt>
      <trkpt lat="43.13837" lon="5.93407">
        <ele>151.7</ele>
        <time>2022-07-30T08:05:50Z</time>
      </trkpt>
      <trkpt lat="43.13841" lon="5.93405">
        <ele>152.9</ele>
        <time>2022-07-30T08:05:51Z</time>
      </trkpt>
      <trkpt lat="43.13846" lon="5.93403">
        <ele>155</ele>
        <time>2022-07-30T08:05:52Z</time>
      </trkpt>
      <trkpt lat="43.1385" lon="5.93401">
        <ele>156.1</ele>
        <time>2022-07-30T08:05:53Z</time>
      </trkpt>
      <trkpt lat="43.13855" lon="5.93399">
        <ele>158.6</ele>
        <time>2022-07-30T08:05:54Z</time>
      </trkpt>
      <trkpt lat="43.13859" lon="5.93397">
        <ele>159.9</ele>
        <time>2022-07-30T08:05:55Z</time>
      </trkpt>
      <trkpt lat="43.13863" lon="5.93395">
        <ele>161.2</ele>
        <time>2022-07-30T08:05:56Z</time>
      </trkpt>
      <trkpt lat="43.13868" lon="5.93394">
        <ele>163.7</ele>
        <time>2022-07-30T08:05:57Z</time>
      </trkpt>
      <trkpt lat="43.13873" lon="5.93392">
        <ele>166.1</ele>
        <time>2022-07-30T08:05:58Z</time>
      </trkpt>
      <trkpt lat="43.13878" lon="5.9339">
        <ele>167.3</ele>
        <time>2022-07-30T08:05:59Z</time>
      </trkpt>
      <trkpt lat="43.13883" lon="5.93388">
        <ele>169.9</ele>
        <time>2022-07-30T08:06:00Z</time>
      </trkpt>
      <trkpt lat="43.13888" lon="5.93385">
        <ele>171.2</ele>
        <time>2022-07-30T08:06:01Z</time>
      </trkpt>
      <trkpt lat="43.13893" lon="5.93384">
        <ele>174</ele>
        <time>2022-07-30T08:06:02Z</time>
      </trkpt>
      <trkpt lat="43.13898" lon="5.93382">
        <ele>175.3</ele>
        <time>2022-07-30T08:06:03Z</time>
      </trkpt>
      <trkpt lat="43.13903" lon="5.9338">
        <ele>178</ele>
        <time>2022-07-30T08:06:04Z</time>
      </trkpt>
      <trkpt lat="43.13907" lon="5.93378">
        <ele>179.3</ele>
        <time>2022-07-30T08:06:05Z</time>
      </trkpt>
      <trkpt lat="43.13911" lon="5.93376">
        <ele>182</ele>
        <time>2022-07-30T08:06:06Z</time>
      </trkpt>
      <trkpt lat="43.13916" lon="5.93374">
        <ele>183.5</ele>
        <time>2022-07-30T08:06:07Z</time>
      </trkpt>
      <trkpt lat="43.13921" lon="5.93376">
        <ele>186.8</ele>
        <time>2022-07-30T08:06:08Z</time>
      </trkpt>
      <trkpt lat="43.13925" lon="5.93374">
        <ele>188.4</ele>
        <time>2022-07-30T08:06:09Z</time>
      </trkpt>
      <trkpt lat="43.1393" lon="5.93372">
        <ele>191.2</ele>
        <time>2022-07-30T08:06:10Z</time>
      </trkpt>
      <trkpt lat="43.13934" lon="5.9337">
        <ele>192.7</ele>
        <time>2022-07-30T08:06:11Z</time>
      </trkpt>
      <trkpt lat="43.13939" lon="5.93367">
        <ele>195.5</ele>
        <time>2022-07-30T08:06:12Z</time>
      </trkpt>
      <trkpt lat="43.13944" lon="5.93365">
        <ele>197.3</ele>
        <time>2022-07-30T08:06:13Z</time>
      </trkpt>
      <trkpt lat="43.1395" lon="5.93362">
        <ele>200.7</ele>
        <time>2022-07-30T08:06:14Z</time>
      </trkpt>
      <trkpt lat="43.13955" lon="5.93358">
        <ele>203.8</ele>
        <time>2022-07-30T08:06:15Z</time>
      </trkpt>
      <trkpt lat="43.1396" lon="5.93355">
        <ele>205</ele>
        <time>2022-07-30T08:06:16Z</time>
      </trkpt>
      <trkpt lat="43.13964" lon="5.93352">
        <ele>208.6</ele>
        <time>2022-07-30T08:06:17Z</time>
      </trkpt>
      <trkpt lat="43.13969" lon="5.9335">
        <ele>210.1</ele>
        <time>2022-07-30T08:06:18Z</time>
      </trkpt>
      <trkpt lat="43.13973" lon="5.93349">
        <ele>212.2</ele>
        <time>2022-07-30T08:06:19Z</time>
      </trkpt>
      <trkpt lat="43.13977" lon="5.93347">
        <ele>215.9</ele>
        <time>2022-07-30T08:06:20Z</time>
      </trkpt>
      <trkpt lat="43.13981" lon="5.93344">
        <ele>217.7</ele>
        <time>2022-07-30T08:06:21Z</time>
      </trkpt>
      <trkpt lat="43.13986" lon="5.93342">
        <ele>220.7</ele>
        <time>2022-07-30T08:06:22Z</time>
      </trkpt>
      <trkpt lat="43.13991" lon="5.93341">
        <ele>222.5</ele>
        <time>2022-07-30T08:06:23Z</time>
      </trkpt>
      <trkpt lat="43.13996" lon="5.93339">
        <ele>226.1</ele>
        <time>2022-07-30T08:06:24Z</time>
      </trkpt>
      <trkpt lat="43.14001" lon="5.93338">
        <ele>227.3</ele>
        <time>2022-07-30T08:06:25Z</time>
      </trkpt>
      <trkpt lat="43.14006" lon="5.93335">
        <ele>230.8</ele>
        <time>2022-07-30T08:06:26Z</time>
      </trkpt>
      <trkpt lat="43.14011" lon="5.93333">
        <ele>233.4</ele>
        <time>2022-07-30T08:06:27Z</time>
      </trkpt>
      <trkpt lat="43.14016" lon="5.9333">
        <ele>235</ele>
        <time>2022-07-30T08:06:28Z</time>
      </trkpt>
      <trkpt lat="43.14021" lon="5.93328">
        <ele>237.5</ele>
        <time>2022-07-30T08:06:29Z</time>
      </trkpt>
      <trkpt lat="43.14026" lon="5.93326">
        <ele>239.1</ele>
        <time>2022-07-30T08:06:30Z</time>
      </trkpt>
      <trkpt lat="43.14031" lon="5.93324">
        <ele>241.7</ele>
        <time>2022-07-30T08:06:31Z</time>
      </trkpt>
      <trkpt lat="43.14036" lon="5.93323">
        <ele>244.9</ele>
        <time>2022-07-30T08:06:32Z</time>
      </trkpt>
      <trkpt lat="43.14041" lon="5.93321">
        <ele>245.5</ele>
        <time>2022-07-30T08:06:33Z</time>
      </trkpt>
      <trkpt lat="43.14045" lon="5.93319">
        <ele>246.8</ele>
        <time>2022-07-30T08:06:34Z</time>
      </trkpt>
      <trkpt lat="43.14049" lon="5.93317">
        <ele>248.3</ele>
        <time>2022-07-30T08:06:35Z</time>
      </trkpt>
      <trkpt lat="43.14054" lon="5.93317">
        <ele>249.5</ele>
        <time>2022-07-30T08:06:36Z</time>
      </trkpt>
      <trkpt lat="43.14058" lon="5.93315">
        <ele>250.7</ele>
        <time>2022-07-30T08:06:37Z</time>
      </trkpt>
      <trkpt lat="43.14062" lon="5.93313">
        <ele>252.3</ele>
        <time>2022-07-30T08:06:38Z</time>
      </trkpt>
      <trkpt lat="43.14067" lon="5.9331">
        <ele>253.4</ele>
        <time>2022-07-30T08:06:39Z</time>
      </trkpt>
      <trkpt lat="43.14072" lon="5.93307">
        <ele>254.5</ele>
        <time>2022-07-30T08:06:40Z</time>
      </trkpt>
      <trkpt lat="43.14078" lon="5.93305">
        <ele>256.3</ele>
        <time>2022-07-30T08:06:41Z</time>
      </trkpt>
      <trkpt lat="43.14084" lon="5.93302">
        <ele>257.8</ele>
        <time>2022-07-30T08:06:42Z</time>
      </trkpt>
      <trkpt lat="43.14089" lon="5.933">
        <ele>259.3</ele>
        <time>2022-07-30T08:06:43Z</time>
      </trkpt>
      <trkpt lat="43.14099" lon="5.93296">
        <ele>261.3</ele>
        <time>2022-07-30T08:06:45Z</time>
      </trkpt>
      <trkpt lat="43.14104" lon="5.93294">
        <ele>262.2</ele>
        <time>2022-07-30T08:06:46Z</time>
      </trkpt>
      <trkpt lat="43.1411" lon="5.93291">
        <ele>264.2</ele>
        <time>2022-07-30T08:06:47Z</time>
      </trkpt>
      <trkpt lat="43.1412" lon="5.93286">
        <ele>266.5</ele>
        <time>2022-07-30T08:06:49Z</time>
      </trkpt>
      <trkpt lat="43.1413" lon="5.93282">
        <ele>268.6</ele>
        <time>2022-07-30T08:06:51Z</time>
      </trkpt>
      <trkpt lat="43.14139" lon="5.93279">
        <ele>272.3</ele>
        <time>2022-07-30T08:06:53Z</time>
      </trkpt>
      <trkpt lat="43.14149" lon="5.93276">
        <ele>274.5</ele>
        <time>2022-07-30T08:06:55Z</time>
      </trkpt>
      <trkpt lat="43.1416" lon="5.93272">
        <ele>276.4</ele>
        <time>2022-07-30T08:06:57Z</time>
      </trkpt>
      <trkpt lat="43.1417" lon="5.93269">
        <ele>278.3</ele>
        <time>2022-07-30T08:06:59Z</time>
      </trkpt>
      <trkpt lat="43.14181" lon="5.93266">
        <ele>280.4</ele>
        <time>2022-07-30T08:07:01Z</time>
      </trkpt>
      <trkpt lat="43.14186" lon="5.93264">
        <ele>281.4</ele>
        <time>2022-07-30T08:07:02Z</time>
      </trkpt>
      <trkpt lat="43.14191" lon="5.93262">
        <ele>281.9</ele>
        <time>2022-07-30T08:07:03Z</time>
      </trkpt>
      <trkpt lat="43.14196" lon="5.93261">
        <ele>282.1</ele>
        <time>2022-07-30T08:07:04Z</time>
      </trkpt>
      <trkpt lat="43.14202" lon="5.93259">
        <ele>282.5</ele>
        <time>2022-07-30T08:07:05Z</time>
      </trkpt>
      <trkpt lat="43.14207" lon="5.93258">
        <ele>283.3</ele>
        <time>2022-07-30T08:07:06Z</time>
      </trkpt>
      <trkpt lat="43.14213" lon="5.93261">
        <ele>283.9</ele>
        <time>2022-07-30T08:07:07Z</time>
      </trkpt>
      <trkpt lat="43.14218" lon="5.93262">
        <ele>285.6</ele>
        <time>2022-07-30T08:07:08Z</time>
      </trkpt>
      <trkpt lat="43.14223" lon="5.93262">
        <ele>284.8</ele>
        <time>2022-07-30T08:07:09Z</time>
      </trkpt>
      <trkpt lat="43.14228" lon="5.93261">
        <ele>285.3</ele>
        <time>2022-07-30T08:07:10Z</time>
      </trkpt>
      <trkpt lat="43.14234" lon="5.9326">
        <ele>285.5</ele>
        <time>2022-07-30T08:07:11Z</time>
      </trkpt>
      <trkpt lat="43.1424" lon="5.93258">
        <ele>285.5</ele>
        <time>2022-07-30T08:07:12Z</time>
      </trkpt>
      <trkpt lat="43.14246" lon="5.93257">
        <ele>284.6</ele>
        <time>2022-07-30T08:07:13Z</time>
      </trkpt>
      <trkpt lat="43.14252" lon="5.93255">
        <ele>284.5</ele>
        <time>2022-07-30T08:07:14Z</time>
      </trkpt>
      <trkpt lat="43.14262" lon="5.93252">
        <ele>282.8</ele>
        <time>2022-07-30T08:07:16Z</time>
      </trkpt>
      <trkpt lat="43.14277" lon="5.93246">
        <ele>280.6</ele>
        <time>2022-07-30T08:07:19Z</time>
      </trkpt>
      <trkpt lat="43.14287" lon="5.93247">
        <ele>279.1</ele>
        <time>2022-07-30T08:07:21Z</time>
      </trkpt>
      <trkpt lat="43.14293" lon="5.93245">
        <ele>278.4</ele>
        <time>2022-07-30T08:07:22Z</time>
      </trkpt>
      <trkpt lat="43.14309" lon="5.93238">
        <ele>273.7</ele>
        <time>2022-07-30T08:07:25Z</time>
      </trkpt>
      <trkpt lat="43.14314" lon="5.93237">
        <ele>273.4</ele>
        <time>2022-07-30T08:07:26Z</time>
      </trkpt>
      <trkpt lat="43.14324" lon="5.93233">
        <ele>271</ele>
        <time>2022-07-30T08:07:28Z</time>
      </trkpt>
      <trkpt lat="43.14335" lon="5.93228">
        <ele>268.6</ele>
        <time>2022-07-30T08:07:30Z</time>
      </trkpt>
      <trkpt lat="43.14352" lon="5.93224">
        <ele>266.5</ele>
        <time>2022-07-30T08:07:33Z</time>
      </trkpt>
      <trkpt lat="43.14362" lon="5.93222">
        <ele>265.3</ele>
        <time>2022-07-30T08:07:35Z</time>
      </trkpt>
      <trkpt lat="43.14373" lon="5.93219">
        <ele>265.9</ele>
        <time>2022-07-30T08:07:37Z</time>
      </trkpt>
      <trkpt lat="43.14383" lon="5.93216">
        <ele>265.3</ele>
        <time>2022-07-30T08:07:39Z</time>
      </trkpt>
      <trkpt lat="43.14394" lon="5.93212">
        <ele>265.6</ele>
        <time>2022-07-30T08:07:41Z</time>
      </trkpt>
      <trkpt lat="43.1441" lon="5.93207">
        <ele>267.2</ele>
        <time>2022-07-30T08:07:43Z</time>
      </trkpt>
      <trkpt lat="43.14416" lon="5.93205">
        <ele>267.3</ele>
        <time>2022-07-30T08:07:46Z</time>
      </trkpt>
      <trkpt lat="43.14421" lon="5.93203">
        <ele>268.9</ele>
        <time>2022-07-30T08:07:47Z</time>
      </trkpt>
      <trkpt lat="43.14426" lon="5.93201">
        <ele>268.3</ele>
        <time>2022-07-30T08:07:48Z</time>
      </trkpt>
      <trkpt lat="43.14437" lon="5.93198">
        <ele>271.2</ele>
        <time>2022-07-30T08:07:50Z</time>
      </trkpt>
      <trkpt lat="43.14442" lon="5.93196">
        <ele>270.6</ele>
        <time>2022-07-30T08:07:51Z</time>
      </trkpt>
      <trkpt lat="43.14452" lon="5.93192">
        <ele>271.8</ele>
        <time>2022-07-30T08:07:53Z</time>
      </trkpt>
      <trkpt lat="43.14461" lon="5.93188">
        <ele>272.7</ele>
        <time>2022-07-30T08:07:55Z</time>
      </trkpt>
      <trkpt lat="43.14466" lon="5.93187">
        <ele>274.2</ele>
        <time>2022-07-30T08:07:56Z</time>
      </trkpt>
      <trkpt lat="43.14471" lon="5.93185">
        <ele>275</ele>
        <time>2022-07-30T08:07:57Z</time>
      </trkpt>
      <trkpt lat="43.14475" lon="5.93183">
        <ele>275.7</ele>
        <time>2022-07-30T08:07:58Z</time>
      </trkpt>
      <trkpt lat="43.14486" lon="5.9318">
        <ele>277.7</ele>
        <time>2022-07-30T08:08:00Z</time>
      </trkpt>
      <trkpt lat="43.14491" lon="5.93179">
        <ele>278.3</ele>
        <time>2022-07-30T08:08:01Z</time>
      </trkpt>
      <trkpt lat="43.14496" lon="5.93177">
        <ele>279.1</ele>
        <time>2022-07-30T08:08:02Z</time>
      </trkpt>
      <trkpt lat="43.14501" lon="5.93176">
        <ele>280</ele>
        <time>2022-07-30T08:08:03Z</time>
      </trkpt>
      <trkpt lat="43.14506" lon="5.93174">
        <ele>281.5</ele>
        <time>2022-07-30T08:08:04Z</time>
      </trkpt>
      <trkpt lat="43.14511" lon="5.93172">
        <ele>282.2</ele>
        <time>2022-07-30T08:08:05Z</time>
      </trkpt>
      <trkpt lat="43.14516" lon="5.93171">
        <ele>283.1</ele>
        <time>2022-07-30T08:08:06Z</time>
      </trkpt>
      <trkpt lat="43.14527" lon="5.93168">
        <ele>285.6</ele>
        <time>2022-07-30T08:08:08Z</time>
      </trkpt>
      <trkpt lat="43.14532" lon="5.93166">
        <ele>287</ele>
        <time>2022-07-30T08:08:09Z</time>
      </trkpt>
      <trkpt lat="43.14537" lon="5.93165">
        <ele>288.6</ele>
        <time>2022-07-30T08:08:10Z</time>
      </trkpt>
      <trkpt lat="43.14543" lon="5.93164">
        <ele>289.3</ele>
        <time>2022-07-30T08:08:11Z</time>
      </trkpt>
      <trkpt lat="43.14548" lon="5.93162">
        <ele>290.5</ele>
        <time>2022-07-30T08:08:12Z</time>
      </trkpt>
      <trkpt lat="43.14553" lon="5.93161">
        <ele>292</ele>
        <time>2022-07-30T08:08:13Z</time>
      </trkpt>
      <trkpt lat="43.14558" lon="5.93159">
        <ele>292.7</ele>
        <time>2022-07-30T08:08:14Z</time>
      </trkpt>
      <trkpt lat="43.14568" lon="5.93156">
        <ele>295.7</ele>
        <time>2022-07-30T08:08:16Z</time>
      </trkpt>
      <trkpt lat="43.14574" lon="5.93154">
        <ele>296.7</ele>
        <time>2022-07-30T08:08:17Z</time>
      </trkpt>
      <trkpt lat="43.14579" lon="5.93152">
        <ele>298.2</ele>
        <time>2022-07-30T08:08:18Z</time>
      </trkpt>
      <trkpt lat="43.14585" lon="5.93151">
        <ele>300.3</ele>
        <time>2022-07-30T08:08:19Z</time>
      </trkpt>
      <trkpt lat="43.14595" lon="5.93147">
        <ele>303.7</ele>
        <time>2022-07-30T08:08:21Z</time>
      </trkpt>
      <trkpt lat="43.146" lon="5.93145">
        <ele>306.3</ele>
        <time>2022-07-30T08:08:22Z</time>
      </trkpt>
      <trkpt lat="43.14605" lon="5.93142">
        <ele>307.4</ele>
        <time>2022-07-30T08:08:23Z</time>
      </trkpt>
      <trkpt lat="43.1461" lon="5.93139">
        <ele>310.9</ele>
        <time>2022-07-30T08:08:24Z</time>
      </trkpt>
      <trkpt lat="43.14614" lon="5.93135">
        <ele>313.4</ele>
        <time>2022-07-30T08:08:25Z</time>
      </trkpt>
      <trkpt lat="43.14618" lon="5.93131">
        <ele>317.1</ele>
        <time>2022-07-30T08:08:26Z</time>
      </trkpt>
      <trkpt lat="43.14623" lon="5.93127">
        <ele>319.6</ele>
        <time>2022-07-30T08:08:27Z</time>
      </trkpt>
      <trkpt lat="43.14629" lon="5.93124">
        <ele>323.8</ele>
        <time>2022-07-30T08:08:28Z</time>
      </trkpt>
      <trkpt lat="43.14634" lon="5.93121">
        <ele>325.3</ele>
        <time>2022-07-30T08:08:29Z</time>
      </trkpt>
      <trkpt lat="43.14639" lon="5.93118">
        <ele>330.2</ele>
        <time>2022-07-30T08:08:30Z</time>
      </trkpt>
      <trkpt lat="43.14644" lon="5.93117">
        <ele>333.7</ele>
        <time>2022-07-30T08:08:31Z</time>
      </trkpt>
      <trkpt lat="43.14649" lon="5.93115">
        <ele>336.9</ele>
        <time>2022-07-30T08:08:32Z</time>
      </trkpt>
      <trkpt lat="43.14659" lon="5.93111">
        <ele>345.4</ele>
        <time>2022-07-30T08:08:34Z</time>
      </trkpt>
      <trkpt lat="43.14664" lon="5.93109">
        <ele>347.3</ele>
        <time>2022-07-30T08:08:35Z</time>
      </trkpt>
      <trkpt lat="43.14668" lon="5.93107">
        <ele>349.3</ele>
        <time>2022-07-30T08:08:36Z</time>
      </trkpt>
      <trkpt lat="43.14673" lon="5.93106">
        <ele>354.6</ele>
        <time>2022-07-30T08:08:37Z</time>
      </trkpt>
      <trkpt lat="43.14677" lon="5.93104">
        <ele>356.5</ele>
        <time>2022-07-30T08:08:38Z</time>
      </trkpt>
      <trkpt lat="43.14682" lon="5.93102">
        <ele>361.2</ele>
        <time>2022-07-30T08:08:39Z</time>
      </trkpt>
      <trkpt lat="43.14687" lon="5.93101">
        <ele>364.6</ele>
        <time>2022-07-30T08:08:40Z</time>
      </trkpt>
      <trkpt lat="43.14692" lon="5.93099">
        <ele>366.5</ele>
        <time>2022-07-30T08:08:41Z</time>
      </trkpt>
      <trkpt lat="43.14697" lon="5.93098">
        <ele>371.3</ele>
        <time>2022-07-30T08:08:42Z</time>
      </trkpt>
      <trkpt lat="43.14702" lon="5.93097">
        <ele>373.2</ele>
        <time>2022-07-30T08:08:43Z</time>
      </trkpt>
      <trkpt lat="43.14706" lon="5.93096">
        <ele>376.7</ele>
        <time>2022-07-30T08:08:44Z</time>
      </trkpt>
      <trkpt lat="43.14711" lon="5.93095">
        <ele>378.4</ele>
        <time>2022-07-30T08:08:45Z</time>
      </trkpt>
      <trkpt lat="43.14716" lon="5.93093">
        <ele>382.2</ele>
        <time>2022-07-30T08:08:46Z</time>
      </trkpt>
      <trkpt lat="43.14721" lon="5.93092">
        <ele>384.2</ele>
        <time>2022-07-30T08:08:47Z</time>
      </trkpt>
      <trkpt lat="43.14726" lon="5.9309">
        <ele>388.5</ele>
        <time>2022-07-30T08:08:48Z</time>
      </trkpt>
      <trkpt lat="43.14731" lon="5.93088">
        <ele>392.4</ele>
        <time>2022-07-30T08:08:49Z</time>
      </trkpt>
      <trkpt lat="43.14737" lon="5.93086">
        <ele>394.1</ele>
        <time>2022-07-30T08:08:50Z</time>
      </trkpt>
      <trkpt lat="43.14742" lon="5.93085">
        <ele>397.7</ele>
        <time>2022-07-30T08:08:51Z</time>
      </trkpt>
      <trkpt lat="43.14747" lon="5.93082">
        <ele>401.9</ele>
        <time>2022-07-30T08:08:52Z</time>
      </trkpt>
      <trkpt lat="43.14753" lon="5.9308">
        <ele>403.8</ele>
        <time>2022-07-30T08:08:53Z</time>
      </trkpt>
      <trkpt lat="43.14758" lon="5.93078">
        <ele>407.8</ele>
        <time>2022-07-30T08:08:54Z</time>
      </trkpt>
      <trkpt lat="43.14769" lon="5.93075">
        <ele>415.2</ele>
        <time>2022-07-30T08:08:55Z</time>
      </trkpt>
      <trkpt lat="43.14773" lon="5.93074">
        <ele>417.2</ele>
        <time>2022-07-30T08:08:57Z</time>
      </trkpt>
      <trkpt lat="43.14776" lon="5.93073">
        <ele>419.2</ele>
        <time>2022-07-30T08:08:58Z</time>
      </trkpt>
      <trkpt lat="43.14784" lon="5.93072">
        <ele>422.7</ele>
        <time>2022-07-30T08:08:59Z</time>
      </trkpt>
      <trkpt lat="43.14789" lon="5.9307">
        <ele>426.5</ele>
        <time>2022-07-30T08:09:00Z</time>
      </trkpt>
      <trkpt lat="43.14794" lon="5.93069">
        <ele>429.9</ele>
        <time>2022-07-30T08:09:01Z</time>
      </trkpt>
      <trkpt lat="43.14799" lon="5.93068">
        <ele>431</ele>
        <time>2022-07-30T08:09:02Z</time>
      </trkpt>
      <trkpt lat="43.14804" lon="5.93066">
        <ele>434.3</ele>
        <time>2022-07-30T08:09:03Z</time>
      </trkpt>
      <trkpt lat="43.14809" lon="5.93064">
        <ele>435.4</ele>
        <time>2022-07-30T08:09:04Z</time>
      </trkpt>
      <trkpt lat="43.14814" lon="5.93062">
        <ele>438.6</ele>
        <time>2022-07-30T08:09:05Z</time>
      </trkpt>
      <trkpt lat="43.1482" lon="5.9306">
        <ele>441.4</ele>
        <time>2022-07-30T08:09:06Z</time>
      </trkpt>
      <trkpt lat="43.14824" lon="5.93059">
        <ele>442.2</ele>
        <time>2022-07-30T08:09:07Z</time>
      </trkpt>
      <trkpt lat="43.14829" lon="5.93057">
        <ele>444.8</ele>
        <time>2022-07-30T08:09:08Z</time>
      </trkpt>
      <trkpt lat="43.14834" lon="5.93055">
        <ele>445.8</ele>
        <time>2022-07-30T08:09:09Z</time>
      </trkpt>
      <trkpt lat="43.14839" lon="5.93053">
        <ele>448.7</ele>
        <time>2022-07-30T08:09:10Z</time>
      </trkpt>
      <trkpt lat="43.14844" lon="5.93051">
        <ele>450.8</ele>
        <time>2022-07-30T08:09:11Z</time>
      </trkpt>
      <trkpt lat="43.1485" lon="5.93048">
        <ele>451.9</ele>
        <time>2022-07-30T08:09:12Z</time>
      </trkpt>
      <trkpt lat="43.14855" lon="5.93046">
        <ele>453.8</ele>
        <time>2022-07-30T08:09:13Z</time>
      </trkpt>
      <trkpt lat="43.14859" lon="5.93043">
        <ele>456.3</ele>
        <time>2022-07-30T08:09:14Z</time>
      </trkpt>
      <trkpt lat="43.14869" lon="5.93039">
        <ele>459.6</ele>
        <time>2022-07-30T08:09:16Z</time>
      </trkpt>
      <trkpt lat="43.14878" lon="5.93037">
        <ele>461.3</ele>
        <time>2022-07-30T08:09:18Z</time>
      </trkpt>
      <trkpt lat="43.14881" lon="5.93037">
        <ele>463.2</ele>
        <time>2022-07-30T08:09:19Z</time>
      </trkpt>
      <trkpt lat="43.14885" lon="5.93035">
        <ele>464.2</ele>
        <time>2022-07-30T08:09:20Z</time>
      </trkpt>
      <trkpt lat="43.14888" lon="5.93033">
        <ele>465.1</ele>
        <time>2022-07-30T08:09:21Z</time>
      </trkpt>
      <trkpt lat="43.14894" lon="5.9303">
        <ele>466.9</ele>
        <time>2022-07-30T08:09:23Z</time>
      </trkpt>
      <trkpt lat="43.149" lon="5.93028">
        <ele>468.5</ele>
        <time>2022-07-30T08:09:25Z</time>
      </trkpt>
      <trkpt lat="43.14905" lon="5.93027">
        <ele>469.3</ele>
        <time>2022-07-30T08:09:27Z</time>
      </trkpt>
      <trkpt lat="43.14907" lon="5.93025">
        <ele>470.1</ele>
        <time>2022-07-30T08:09:28Z</time>
      </trkpt>
      <trkpt lat="43.14908" lon="5.93024">
        <ele>470.1</ele>
        <time>2022-07-30T08:09:29Z</time>
      </trkpt>
      <trkpt lat="43.14909" lon="5.93023">
        <ele>471.4</ele>
        <time>2022-07-30T08:09:32Z</time>
      </trkpt>
      <trkpt lat="43.14911" lon="5.93021">
        <ele>471.5</ele>
        <time>2022-07-30T08:09:35Z</time>
      </trkpt>
      <trkpt lat="43.14912" lon="5.93019">
        <ele>471.5</ele>
        <time>2022-07-30T08:09:43Z</time>
      </trkpt>
      <trkpt lat="43.14912" lon="5.93019">
        <ele>471.5</ele>
        <time>2022-07-30T08:09:44Z</time>
      </trkpt>
      <trkpt lat="43.14914" lon="5.93017">
        <ele>472.4</ele>
        <time>2022-07-30T08:09:54Z</time>
      </trkpt>
      <trkpt lat="43.14916" lon="5.93017">
        <ele>472.4</ele>
        <time>2022-07-30T08:09:58Z</time>
      </trkpt>
      <trkpt lat="43.14927" lon="5.93014">
        <ele>475.3</ele>
        <time>2022-07-30T08:10:16Z</time>
      </trkpt>
      <trkpt lat="43.14929" lon="5.93012">
        <ele>476.1</ele>
        <time>2022-07-30T08:10:20Z</time>
      </trkpt>
      <trkpt lat="43.14938" lon="5.93012">
        <ele>477.7</ele>
        <time>2022-07-30T08:10:36Z</time>
      </trkpt>
      <trkpt lat="43.14936" lon="5.93014">
        <ele>476.9</ele>
        <time>2022-07-30T08:10:54Z</time>
      </trkpt>
      <trkpt lat="43.14934" lon="5.93012">
        <ele>476.7</ele>
        <time>2022-07-30T08:10:56Z</time>
      </trkpt>
      <trkpt lat="43.14925" lon="5.93026">
        <ele>473.9</ele>
        <time>2022-07-30T08:11:11Z</time>
      </trkpt>
      <trkpt lat="43.14925" lon="5.93027">
        <ele>474.5</ele>
        <time>2022-07-30T08:11:25Z</time>
      </trkpt>
      <trkpt lat="43.14926" lon="5.93027">
        <ele>474.5</ele>
        <time>2022-07-30T08:11:26Z</time>
      </trkpt>
      <trkpt lat="43.14926" lon="5.93027">
        <ele>474.5</ele>
        <time>2022-07-30T08:11:29Z</time>
      </trkpt>
      <trkpt lat="43.14932" lon="5.93032">
        <ele>475.2</ele>
        <time>2022-07-30T08:11:45Z</time>
      </trkpt>
      <trkpt lat="43.14931" lon="5.93021">
        <ele>475.7</ele>
        <time>2022-07-30T08:11:55Z</time>
      </trkpt>
      <trkpt lat="43.14932" lon="5.93027">
        <ele>475.6</ele>
        <time>2022-07-30T08:12:07Z</time>
      </trkpt>
      <trkpt lat="43.14928" lon="5.93032">
        <ele>474.2</ele>
        <time>2022-07-30T08:12:26Z</time>
      </trkpt>
      <trkpt lat="43.14927" lon="5.93034">
        <ele>474.2</ele>
        <time>2022-07-30T08:12:42Z</time>
      </trkpt>
      <trkpt lat="43.14929" lon="5.93034">
        <ele>474.7</ele>
        <time>2022-07-30T08:12:58Z</time>
      </trkpt>
      <trkpt lat="43.14932" lon="5.93028">
        <ele>475.6</ele>
        <time>2022-07-30T08:13:10Z</time>
      </trkpt>
      <trkpt lat="43.14936" lon="5.93031">
        <ele>475.7</ele>
        <time>2022-07-30T08:13:26Z</time>
      </trkpt>
      <trkpt lat="43.14932" lon="5.93032">
        <ele>475.2</ele>
        <time>2022-07-30T08:13:38Z</time>
      </trkpt>
      <trkpt lat="43.14932" lon="5.93032">
        <ele>475.2</ele>
        <time>2022-07-30T08:13:54Z</time>
      </trkpt>
      <trkpt lat="43.14933" lon="5.93032">
        <ele>475.2</ele>
        <time>2022-07-30T08:14:08Z</time>
      </trkpt>
      <trkpt lat="43.14934" lon="5.93032">
        <ele>475.2</ele>
        <time>2022-07-30T08:14:10Z</time>
      </trkpt>
      <trkpt lat="43.14933" lon="5.93033">
        <ele>475.2</ele>
        <time>2022-07-30T08:14:25Z</time>
      </trkpt>
      <trkpt lat="43.14932" lon="5.9303">
        <ele>475.2</ele>
        <time>2022-07-30T08:14:42Z</time>
      </trkpt>
      <trkpt lat="43.14932" lon="5.93029">
        <ele>475.6</ele>
        <time>2022-07-30T08:15:02Z</time>
      </trkpt>
      <trkpt lat="43.14932" lon="5.93031">
        <ele>475.2</ele>
        <time>2022-07-30T08:15:20Z</time>
      </trkpt>
      <trkpt lat="43.14933" lon="5.93032">
        <ele>475.2</ele>
        <time>2022-07-30T08:15:39Z</time>
      </trkpt>
      <trkpt lat="43.14935" lon="5.93028">
        <ele>476</ele>
        <time>2022-07-30T08:15:54Z</time>
      </trkpt>
      <trkpt lat="43.14936" lon="5.93025">
        <ele>476.4</ele>
        <time>2022-07-30T08:16:07Z</time>
      </trkpt>
      <trkpt lat="43.14938" lon="5.93025">
        <ele>476.9</ele>
        <time>2022-07-30T08:16:21Z</time>
      </trkpt>
      <trkpt lat="43.14938" lon="5.93024">
        <ele>476.9</ele>
        <time>2022-07-30T08:16:23Z</time>
      </trkpt>
      <trkpt lat="43.14938" lon="5.93025">
        <ele>476.9</ele>
        <time>2022-07-30T08:16:24Z</time>
      </trkpt>
      <trkpt lat="43.14939" lon="5.93028">
        <ele>476.5</ele>
        <time>2022-07-30T08:16:26Z</time>
      </trkpt>
      <trkpt lat="43.14939" lon="5.93027">
        <ele>476.5</ele>
        <time>2022-07-30T08:16:27Z</time>
      </trkpt>
      <trkpt lat="43.14938" lon="5.93021">
        <ele>477.2</ele>
        <time>2022-07-30T08:16:31Z</time>
      </trkpt>
      <trkpt lat="43.14941" lon="5.93022">
        <ele>476.9</ele>
        <time>2022-07-30T08:16:34Z</time>
      </trkpt>
      <trkpt lat="43.14942" lon="5.93024">
        <ele>477.4</ele>
        <time>2022-07-30T08:16:36Z</time>
      </trkpt>
      <trkpt lat="43.14942" lon="5.93026">
        <ele>477.4</ele>
        <time>2022-07-30T08:16:37Z</time>
      </trkpt>
      <trkpt lat="43.14943" lon="5.93028">
        <ele>477.1</ele>
        <time>2022-07-30T08:16:39Z</time>
      </trkpt>
      <trkpt lat="43.14944" lon="5.9303">
        <ele>477.6</ele>
        <time>2022-07-30T08:16:41Z</time>
      </trkpt>
      <trkpt lat="43.14945" lon="5.93031">
        <ele>477.2</ele>
        <time>2022-07-30T08:16:42Z</time>
      </trkpt>
      <trkpt lat="43.14951" lon="5.93033">
        <ele>478.4</ele>
        <time>2022-07-30T08:16:47Z</time>
      </trkpt>
      <trkpt lat="43.14954" lon="5.93035">
        <ele>478.4</ele>
        <time>2022-07-30T08:16:50Z</time>
      </trkpt>
      <trkpt lat="43.14956" lon="5.93038">
        <ele>478.4</ele>
        <time>2022-07-30T08:16:55Z</time>
      </trkpt>
      <trkpt lat="43.14956" lon="5.93036">
        <ele>478.4</ele>
        <time>2022-07-30T08:16:57Z</time>
      </trkpt>
      <trkpt lat="43.14956" lon="5.93036">
        <ele>478.4</ele>
        <time>2022-07-30T08:16:59Z</time>
      </trkpt>
      <trkpt lat="43.14957" lon="5.93031">
        <ele>479.3</ele>
        <time>2022-07-30T08:17:15Z</time>
      </trkpt>
      <trkpt lat="43.14956" lon="5.93032">
        <ele>478.9</ele>
        <time>2022-07-30T08:17:29Z</time>
      </trkpt>
      <trkpt lat="43.14957" lon="5.93034">
        <ele>479.3</ele>
        <time>2022-07-30T08:17:41Z</time>
      </trkpt>
      <trkpt lat="43.14956" lon="5.93032">
        <ele>478.9</ele>
        <time>2022-07-30T08:17:55Z</time>
      </trkpt>
      <trkpt lat="43.1496" lon="5.93031">
        <ele>479.8</ele>
        <time>2022-07-30T08:18:06Z</time>
      </trkpt>
      <trkpt lat="43.14961" lon="5.93033">
        <ele>479.8</ele>
        <time>2022-07-30T08:18:22Z</time>
      </trkpt>
      <trkpt lat="43.14963" lon="5.93034">
        <ele>479.8</ele>
        <time>2022-07-30T08:18:38Z</time>
      </trkpt>
      <trkpt lat="43.1496" lon="5.93033">
        <ele>479.8</ele>
        <time>2022-07-30T08:18:54Z</time>
      </trkpt>
      <trkpt lat="43.14958" lon="5.93031">
        <ele>479.3</ele>
        <time>2022-07-30T08:19:08Z</time>
      </trkpt>
      <trkpt lat="43.1496" lon="5.93027">
        <ele>480.2</ele>
        <time>2022-07-30T08:19:26Z</time>
      </trkpt>
      <trkpt lat="43.14957" lon="5.93026">
        <ele>479.7</ele>
        <time>2022-07-30T08:19:42Z</time>
      </trkpt>
      <trkpt lat="43.14963" lon="5.93023">
        <ele>480.5</ele>
        <time>2022-07-30T08:19:51Z</time>
      </trkpt>
      <trkpt lat="43.14966" lon="5.93024">
        <ele>481.6</ele>
        <time>2022-07-30T08:20:07Z</time>
      </trkpt>
      <trkpt lat="43.14972" lon="5.93023">
        <ele>482.2</ele>
        <time>2022-07-30T08:20:16Z</time>
      </trkpt>
      <trkpt lat="43.14974" lon="5.93021">
        <ele>483.2</ele>
        <time>2022-07-30T08:20:19Z</time>
      </trkpt>
      <trkpt lat="43.14975" lon="5.93021">
        <ele>483.8</ele>
        <time>2022-07-30T08:20:20Z</time>
      </trkpt>
      <trkpt lat="43.14981" lon="5.93021">
        <ele>484.3</ele>
        <time>2022-07-30T08:20:26Z</time>
      </trkpt>
      <trkpt lat="43.14984" lon="5.93021">
        <ele>484.8</ele>
        <time>2022-07-30T08:20:29Z</time>
      </trkpt>
      <trkpt lat="43.1499" lon="5.93022">
        <ele>485.3</ele>
        <time>2022-07-30T08:20:34Z</time>
      </trkpt>
      <trkpt lat="43.1499" lon="5.93022">
        <ele>485.3</ele>
        <time>2022-07-30T08:20:35Z</time>
      </trkpt>
      <trkpt lat="43.15006" lon="5.93022">
        <ele>487.5</ele>
        <time>2022-07-30T08:20:49Z</time>
      </trkpt>
      <trkpt lat="43.15014" lon="5.93025">
        <ele>488.5</ele>
        <time>2022-07-30T08:20:58Z</time>
      </trkpt>
      <trkpt lat="43.15019" lon="5.93028">
        <ele>488.7</ele>
        <time>2022-07-30T08:21:03Z</time>
      </trkpt>
      <trkpt lat="43.15028" lon="5.9303">
        <ele>489.9</ele>
        <time>2022-07-30T08:21:11Z</time>
      </trkpt>
      <trkpt lat="43.15032" lon="5.9303">
        <ele>490.4</ele>
        <time>2022-07-30T08:21:18Z</time>
      </trkpt>
      <trkpt lat="43.15031" lon="5.93021">
        <ele>490.1</ele>
        <time>2022-07-30T08:21:29Z</time>
      </trkpt>
      <trkpt lat="43.15032" lon="5.93018">
        <ele>490.2</ele>
        <time>2022-07-30T08:21:32Z</time>
      </trkpt>
      <trkpt lat="43.15034" lon="5.93011">
        <ele>490</ele>
        <time>2022-07-30T08:21:38Z</time>
      </trkpt>
      <trkpt lat="43.15034" lon="5.93008">
        <ele>490</ele>
        <time>2022-07-30T08:21:40Z</time>
      </trkpt>
      <trkpt lat="43.15034" lon="5.93007">
        <ele>490</ele>
        <time>2022-07-30T08:21:41Z</time>
      </trkpt>
      <trkpt lat="43.15035" lon="5.93005">
        <ele>490</ele>
        <time>2022-07-30T08:21:42Z</time>
      </trkpt>
      <trkpt lat="43.15037" lon="5.92991">
        <ele>489.8</ele>
        <time>2022-07-30T08:21:55Z</time>
      </trkpt>
      <trkpt lat="43.1504" lon="5.92987">
        <ele>489.5</ele>
        <time>2022-07-30T08:22:01Z</time>
      </trkpt>
      <trkpt lat="43.15042" lon="5.92981">
        <ele>489.1</ele>
        <time>2022-07-30T08:22:07Z</time>
      </trkpt>
      <trkpt lat="43.15041" lon="5.92978">
        <ele>488.9</ele>
        <time>2022-07-30T08:22:10Z</time>
      </trkpt>
      <trkpt lat="43.15041" lon="5.92977">
        <ele>488.9</ele>
        <time>2022-07-30T08:22:11Z</time>
      </trkpt>
      <trkpt lat="43.15044" lon="5.92972">
        <ele>488.5</ele>
        <time>2022-07-30T08:22:16Z</time>
      </trkpt>
      <trkpt lat="43.15044" lon="5.92969">
        <ele>487.8</ele>
        <time>2022-07-30T08:22:17Z</time>
      </trkpt>
      <trkpt lat="43.15045" lon="5.92967">
        <ele>487.8</ele>
        <time>2022-07-30T08:22:20Z</time>
      </trkpt>
      <trkpt lat="43.15047" lon="5.92963">
        <ele>487.4</ele>
        <time>2022-07-30T08:22:23Z</time>
      </trkpt>
      <trkpt lat="43.15046" lon="5.92953">
        <ele>486.4</ele>
        <time>2022-07-30T08:22:30Z</time>
      </trkpt>
      <trkpt lat="43.15046" lon="5.92952">
        <ele>485.9</ele>
        <time>2022-07-30T08:22:33Z</time>
      </trkpt>
      <trkpt lat="43.15048" lon="5.92952">
        <ele>485.4</ele>
        <time>2022-07-30T08:22:45Z</time>
      </trkpt>
      <trkpt lat="43.15048" lon="5.92951">
        <ele>485.4</ele>
        <time>2022-07-30T08:23:00Z</time>
      </trkpt>
      <trkpt lat="43.15048" lon="5.92951">
        <ele>485.4</ele>
        <time>2022-07-30T08:23:15Z</time>
      </trkpt>
      <trkpt lat="43.15048" lon="5.92952">
        <ele>485.4</ele>
        <time>2022-07-30T08:23:32Z</time>
      </trkpt>
      <trkpt lat="43.15049" lon="5.92954">
        <ele>486</ele>
        <time>2022-07-30T08:23:45Z</time>
      </trkpt>
      <trkpt lat="43.1505" lon="5.92959">
        <ele>486.5</ele>
        <time>2022-07-30T08:23:54Z</time>
      </trkpt>
      <trkpt lat="43.15046" lon="5.92964">
        <ele>487.4</ele>
        <time>2022-07-30T08:24:01Z</time>
      </trkpt>
      <trkpt lat="43.15042" lon="5.92969">
        <ele>488.1</ele>
        <time>2022-07-30T08:24:08Z</time>
      </trkpt>
      <trkpt lat="43.15041" lon="5.92972">
        <ele>488.5</ele>
        <time>2022-07-30T08:24:11Z</time>
      </trkpt>
      <trkpt lat="43.15041" lon="5.92973">
        <ele>488.5</ele>
        <time>2022-07-30T08:24:12Z</time>
      </trkpt>
      <trkpt lat="43.15041" lon="5.92975">
        <ele>489.1</ele>
        <time>2022-07-30T08:24:13Z</time>
      </trkpt>
      <trkpt lat="43.15041" lon="5.92979">
        <ele>489.3</ele>
        <time>2022-07-30T08:24:17Z</time>
      </trkpt>
      <trkpt lat="43.15041" lon="5.92982">
        <ele>489.3</ele>
        <time>2022-07-30T08:24:19Z</time>
      </trkpt>
      <trkpt lat="43.1504" lon="5.92984">
        <ele>489.5</ele>
        <time>2022-07-30T08:24:22Z</time>
      </trkpt>
      <trkpt lat="43.15038" lon="5.92985">
        <ele>489.6</ele>
        <time>2022-07-30T08:24:25Z</time>
      </trkpt>
      <trkpt lat="43.15035" lon="5.92988">
        <ele>489.8</ele>
        <time>2022-07-30T08:24:30Z</time>
      </trkpt>
      <trkpt lat="43.15034" lon="5.92989">
        <ele>489.8</ele>
        <time>2022-07-30T08:24:31Z</time>
      </trkpt>
      <trkpt lat="43.15032" lon="5.92993">
        <ele>489.9</ele>
        <time>2022-07-30T08:24:39Z</time>
      </trkpt>
      <trkpt lat="43.15021" lon="5.92996">
        <ele>489.7</ele>
        <time>2022-07-30T08:24:55Z</time>
      </trkpt>
      <trkpt lat="43.15021" lon="5.92996">
        <ele>489.7</ele>
        <time>2022-07-30T08:24:56Z</time>
      </trkpt>
      <trkpt lat="43.15019" lon="5.92999">
        <ele>489.7</ele>
        <time>2022-07-30T08:25:09Z</time>
      </trkpt>
      <trkpt lat="43.15018" lon="5.92999">
        <ele>489.5</ele>
        <time>2022-07-30T08:25:26Z</time>
      </trkpt>
      <trkpt lat="43.15016" lon="5.92998">
        <ele>489.5</ele>
        <time>2022-07-30T08:25:37Z</time>
      </trkpt>
      <trkpt lat="43.15015" lon="5.92998">
        <ele>489.3</ele>
        <time>2022-07-30T08:25:52Z</time>
      </trkpt>
      <trkpt lat="43.15016" lon="5.93002">
        <ele>489.5</ele>
        <time>2022-07-30T08:26:04Z</time>
      </trkpt>
      <trkpt lat="43.15016" lon="5.93002">
        <ele>489.5</ele>
        <time>2022-07-30T08:26:05Z</time>
      </trkpt>
      <trkpt lat="43.15023" lon="5.92999">
        <ele>489.8</ele>
        <time>2022-07-30T08:26:15Z</time>
      </trkpt>
      <trkpt lat="43.15024" lon="5.92999">
        <ele>489.8</ele>
        <time>2022-07-30T08:26:16Z</time>
      </trkpt>
      <trkpt lat="43.15035" lon="5.92993">
        <ele>489.8</ele>
        <time>2022-07-30T08:26:29Z</time>
      </trkpt>
      <trkpt lat="43.15036" lon="5.92992">
        <ele>489.8</ele>
        <time>2022-07-30T08:26:30Z</time>
      </trkpt>
      <trkpt lat="43.15039" lon="5.92989">
        <ele>489.6</ele>
        <time>2022-07-30T08:26:34Z</time>
      </trkpt>
      <trkpt lat="43.15039" lon="5.92988">
        <ele>489.6</ele>
        <time>2022-07-30T08:26:36Z</time>
      </trkpt>
      <trkpt lat="43.1504" lon="5.92986">
        <ele>489.5</ele>
        <time>2022-07-30T08:26:38Z</time>
      </trkpt>
      <trkpt lat="43.15044" lon="5.92986">
        <ele>489.3</ele>
        <time>2022-07-30T08:26:43Z</time>
      </trkpt>
      <trkpt lat="43.15047" lon="5.92985">
        <ele>489.1</ele>
        <time>2022-07-30T08:26:46Z</time>
      </trkpt>
      <trkpt lat="43.1505" lon="5.92985">
        <ele>488.9</ele>
        <time>2022-07-30T08:26:48Z</time>
      </trkpt>
      <trkpt lat="43.15053" lon="5.92984">
        <ele>488.6</ele>
        <time>2022-07-30T08:26:51Z</time>
      </trkpt>
      <trkpt lat="43.15062" lon="5.92979">
        <ele>487</ele>
        <time>2022-07-30T08:27:00Z</time>
      </trkpt>
      <trkpt lat="43.15062" lon="5.92969">
        <ele>485.5</ele>
        <time>2022-07-30T08:27:07Z</time>
      </trkpt>
      <trkpt lat="43.15062" lon="5.92967">
        <ele>485.5</ele>
        <time>2022-07-30T08:27:09Z</time>
      </trkpt>
      <trkpt lat="43.15062" lon="5.92964">
        <ele>484.9</ele>
        <time>2022-07-30T08:27:12Z</time>
      </trkpt>
      <trkpt lat="43.15062" lon="5.92961">
        <ele>484.2</ele>
        <time>2022-07-30T08:27:16Z</time>
      </trkpt>
      <trkpt lat="43.1506" lon="5.92958">
        <ele>484.2</ele>
        <time>2022-07-30T08:27:21Z</time>
      </trkpt>
      <trkpt lat="43.15062" lon="5.92952">
        <ele>482.8</ele>
        <time>2022-07-30T08:27:31Z</time>
      </trkpt>
      <trkpt lat="43.15063" lon="5.9295">
        <ele>482.1</ele>
        <time>2022-07-30T08:27:34Z</time>
      </trkpt>
      <trkpt lat="43.15066" lon="5.92947">
        <ele>481.3</ele>
        <time>2022-07-30T08:27:40Z</time>
      </trkpt>
      <trkpt lat="43.15067" lon="5.92947">
        <ele>480.5</ele>
        <time>2022-07-30T08:27:43Z</time>
      </trkpt>
      <trkpt lat="43.15072" lon="5.9295">
        <ele>479.8</ele>
        <time>2022-07-30T08:27:52Z</time>
      </trkpt>
      <trkpt lat="43.15074" lon="5.9295">
        <ele>479.8</ele>
        <time>2022-07-30T08:28:02Z</time>
      </trkpt>
      <trkpt lat="43.15078" lon="5.92955">
        <ele>479.8</ele>
        <time>2022-07-30T08:28:13Z</time>
      </trkpt>
      <trkpt lat="43.1508" lon="5.92955">
        <ele>478.9</ele>
        <time>2022-07-30T08:28:27Z</time>
      </trkpt>
      <trkpt lat="43.15083" lon="5.92961">
        <ele>478.8</ele>
        <time>2022-07-30T08:28:37Z</time>
      </trkpt>
      <trkpt lat="43.15085" lon="5.92963">
        <ele>478.7</ele>
        <time>2022-07-30T08:28:41Z</time>
      </trkpt>
      <trkpt lat="43.1509" lon="5.92968">
        <ele>478.7</ele>
        <time>2022-07-30T08:28:51Z</time>
      </trkpt>
      <trkpt lat="43.15093" lon="5.92975">
        <ele>479.7</ele>
        <time>2022-07-30T08:29:08Z</time>
      </trkpt>
      <trkpt lat="43.15098" lon="5.92978">
        <ele>478.3</ele>
        <time>2022-07-30T08:29:20Z</time>
      </trkpt>
      <trkpt lat="43.15097" lon="5.92978">
        <ele>479</ele>
        <time>2022-07-30T08:29:40Z</time>
      </trkpt>
      <trkpt lat="43.15095" lon="5.92976">
        <ele>479</ele>
        <time>2022-07-30T08:29:58Z</time>
      </trkpt>
      <trkpt lat="43.15095" lon="5.92977">
        <ele>479</ele>
        <time>2022-07-30T08:30:15Z</time>
      </trkpt>
      <trkpt lat="43.15093" lon="5.9298">
        <ele>480.4</ele>
        <time>2022-07-30T08:30:30Z</time>
      </trkpt>
      <trkpt lat="43.15091" lon="5.92984">
        <ele>481.8</ele>
        <time>2022-07-30T08:30:34Z</time>
      </trkpt>
      <trkpt lat="43.15089" lon="5.92986">
        <ele>481.8</ele>
        <time>2022-07-30T08:30:36Z</time>
      </trkpt>
      <trkpt lat="43.15089" lon="5.92987">
        <ele>482.4</ele>
        <time>2022-07-30T08:30:38Z</time>
      </trkpt>
      <trkpt lat="43.15089" lon="5.92989">
        <ele>482.4</ele>
        <time>2022-07-30T08:30:39Z</time>
      </trkpt>
      <trkpt lat="43.15092" lon="5.92993">
        <ele>482.4</ele>
        <time>2022-07-30T08:30:44Z</time>
      </trkpt>
      <trkpt lat="43.15093" lon="5.92994">
        <ele>482.4</ele>
        <time>2022-07-30T08:30:46Z</time>
      </trkpt>
      <trkpt lat="43.15094" lon="5.92995">
        <ele>481.8</ele>
        <time>2022-07-30T08:30:48Z</time>
      </trkpt>
      <trkpt lat="43.15095" lon="5.92997">
        <ele>482.5</ele>
        <time>2022-07-30T08:30:50Z</time>
      </trkpt>
      <trkpt lat="43.15095" lon="5.92999">
        <ele>482.5</ele>
        <time>2022-07-30T08:30:52Z</time>
      </trkpt>
      <trkpt lat="43.15096" lon="5.93003">
        <ele>483.1</ele>
        <time>2022-07-30T08:30:55Z</time>
      </trkpt>
      <trkpt lat="43.15096" lon="5.93008">
        <ele>483.7</ele>
        <time>2022-07-30T08:30:58Z</time>
      </trkpt>
      <trkpt lat="43.15097" lon="5.93017">
        <ele>484.9</ele>
        <time>2022-07-30T08:31:07Z</time>
      </trkpt>
      <trkpt lat="43.15097" lon="5.93016">
        <ele>484.5</ele>
        <time>2022-07-30T08:31:11Z</time>
      </trkpt>
      <trkpt lat="43.15101" lon="5.93017">
        <ele>484.1</ele>
        <time>2022-07-30T08:31:24Z</time>
      </trkpt>
      <trkpt lat="43.15102" lon="5.93017">
        <ele>484.1</ele>
        <time>2022-07-30T08:31:25Z</time>
      </trkpt>
      <trkpt lat="43.15104" lon="5.93017">
        <ele>483.6</ele>
        <time>2022-07-30T08:31:30Z</time>
      </trkpt>
      <trkpt lat="43.1511" lon="5.93016">
        <ele>483.2</ele>
        <time>2022-07-30T08:31:38Z</time>
      </trkpt>
      <trkpt lat="43.1511" lon="5.93015">
        <ele>482.7</ele>
        <time>2022-07-30T08:31:40Z</time>
      </trkpt>
      <trkpt lat="43.15112" lon="5.93009">
        <ele>481.9</ele>
        <time>2022-07-30T08:31:51Z</time>
      </trkpt>
      <trkpt lat="43.15118" lon="5.93">
        <ele>478.5</ele>
        <time>2022-07-30T08:32:03Z</time>
      </trkpt>
      <trkpt lat="43.15119" lon="5.92998">
        <ele>478.5</ele>
        <time>2022-07-30T08:32:14Z</time>
      </trkpt>
      <trkpt lat="43.1513" lon="5.93">
        <ele>477.5</ele>
        <time>2022-07-30T08:32:25Z</time>
      </trkpt>
      <trkpt lat="43.15133" lon="5.93">
        <ele>476.1</ele>
        <time>2022-07-30T08:32:28Z</time>
      </trkpt>
      <trkpt lat="43.15135" lon="5.92997">
        <ele>475.6</ele>
        <time>2022-07-30T08:32:32Z</time>
      </trkpt>
      <trkpt lat="43.15135" lon="5.92996">
        <ele>474.6</ele>
        <time>2022-07-30T08:32:35Z</time>
      </trkpt>
      <trkpt lat="43.15135" lon="5.92995">
        <ele>474.6</ele>
        <time>2022-07-30T08:32:36Z</time>
      </trkpt>
      <trkpt lat="43.15136" lon="5.92994">
        <ele>474.6</ele>
        <time>2022-07-30T08:32:49Z</time>
      </trkpt>
      <trkpt lat="43.15134" lon="5.92995">
        <ele>475.1</ele>
        <time>2022-07-30T08:33:06Z</time>
      </trkpt>
      <trkpt lat="43.15134" lon="5.92998">
        <ele>476.1</ele>
        <time>2022-07-30T08:33:19Z</time>
      </trkpt>
      <trkpt lat="43.1513" lon="5.93">
        <ele>477.5</ele>
        <time>2022-07-30T08:33:28Z</time>
      </trkpt>
      <trkpt lat="43.15123" lon="5.93011">
        <ele>480.1</ele>
        <time>2022-07-30T08:33:38Z</time>
      </trkpt>
      <trkpt lat="43.15118" lon="5.9303">
        <ele>484.2</ele>
        <time>2022-07-30T08:33:56Z</time>
      </trkpt>
      <trkpt lat="43.15111" lon="5.93034">
        <ele>485</ele>
        <time>2022-07-30T08:34:08Z</time>
      </trkpt>
      <trkpt lat="43.15109" lon="5.93033">
        <ele>485.4</ele>
        <time>2022-07-30T08:34:11Z</time>
      </trkpt>
      <trkpt lat="43.15104" lon="5.93029">
        <ele>485.3</ele>
        <time>2022-07-30T08:34:21Z</time>
      </trkpt>
      <trkpt lat="43.15098" lon="5.93023">
        <ele>485.5</ele>
        <time>2022-07-30T08:34:30Z</time>
      </trkpt>
      <trkpt lat="43.15096" lon="5.9302">
        <ele>485.4</ele>
        <time>2022-07-30T08:34:34Z</time>
      </trkpt>
      <trkpt lat="43.15095" lon="5.93018">
        <ele>485.4</ele>
        <time>2022-07-30T08:34:36Z</time>
      </trkpt>
      <trkpt lat="43.15095" lon="5.93014">
        <ele>484.9</ele>
        <time>2022-07-30T08:34:41Z</time>
      </trkpt>
      <trkpt lat="43.15095" lon="5.93011">
        <ele>484.3</ele>
        <time>2022-07-30T08:34:46Z</time>
      </trkpt>
      <trkpt lat="43.15095" lon="5.9301">
        <ele>484.3</ele>
        <time>2022-07-30T08:34:47Z</time>
      </trkpt>
      <trkpt lat="43.15095" lon="5.93009">
        <ele>484.3</ele>
        <time>2022-07-30T08:34:49Z</time>
      </trkpt>
      <trkpt lat="43.15097" lon="5.93003">
        <ele>483.1</ele>
        <time>2022-07-30T08:34:59Z</time>
      </trkpt>
      <trkpt lat="43.15098" lon="5.92994">
        <ele>481.3</ele>
        <time>2022-07-30T08:35:05Z</time>
      </trkpt>
      <trkpt lat="43.151" lon="5.92989">
        <ele>480.6</ele>
        <time>2022-07-30T08:35:11Z</time>
      </trkpt>
      <trkpt lat="43.151" lon="5.92989">
        <ele>480.6</ele>
        <time>2022-07-30T08:35:31Z</time>
      </trkpt>
      <trkpt lat="43.151" lon="5.92989">
        <ele>480.6</ele>
        <time>2022-07-30T08:36:22Z</time>
      </trkpt>
      <trkpt lat="43.151" lon="5.92999">
        <ele>481.9</ele>
        <time>2022-07-30T08:36:37Z</time>
      </trkpt>
      <trkpt lat="43.15098" lon="5.93001">
        <ele>482.6</ele>
        <time>2022-07-30T08:36:42Z</time>
      </trkpt>
      <trkpt lat="43.15098" lon="5.93004">
        <ele>482.6</ele>
        <time>2022-07-30T08:36:50Z</time>
      </trkpt>
      <trkpt lat="43.15098" lon="5.93008">
        <ele>483.3</ele>
        <time>2022-07-30T08:37:02Z</time>
      </trkpt>
      <trkpt lat="43.15095" lon="5.93016">
        <ele>484.9</ele>
        <time>2022-07-30T08:37:15Z</time>
      </trkpt>
      <trkpt lat="43.15095" lon="5.93019">
        <ele>485.4</ele>
        <time>2022-07-30T08:37:19Z</time>
      </trkpt>
      <trkpt lat="43.15092" lon="5.93023">
        <ele>486.1</ele>
        <time>2022-07-30T08:37:33Z</time>
      </trkpt>
      <trkpt lat="43.15092" lon="5.93023">
        <ele>486.1</ele>
        <time>2022-07-30T08:37:50Z</time>
      </trkpt>
      <trkpt lat="43.1509" lon="5.93027">
        <ele>486.7</ele>
        <time>2022-07-30T08:38:07Z</time>
      </trkpt>
      <trkpt lat="43.1509" lon="5.93032">
        <ele>487</ele>
        <time>2022-07-30T08:38:21Z</time>
      </trkpt>
      <trkpt lat="43.15088" lon="5.93034">
        <ele>487.2</ele>
        <time>2022-07-30T08:38:34Z</time>
      </trkpt>
      <trkpt lat="43.15086" lon="5.93034">
        <ele>487.5</ele>
        <time>2022-07-30T08:38:44Z</time>
      </trkpt>
      <trkpt lat="43.15085" lon="5.93034">
        <ele>487.5</ele>
        <time>2022-07-30T08:38:45Z</time>
      </trkpt>
      <trkpt lat="43.15079" lon="5.93039">
        <ele>488.3</ele>
        <time>2022-07-30T08:38:57Z</time>
      </trkpt>
      <trkpt lat="43.15073" lon="5.93043">
        <ele>488.9</ele>
        <time>2022-07-30T08:39:12Z</time>
      </trkpt>
      <trkpt lat="43.15067" lon="5.93043">
        <ele>489.4</ele>
        <time>2022-07-30T08:39:18Z</time>
      </trkpt>
      <trkpt lat="43.15063" lon="5.93042">
        <ele>489.8</ele>
        <time>2022-07-30T08:39:22Z</time>
      </trkpt>
      <trkpt lat="43.15053" lon="5.93047">
        <ele>490.5</ele>
        <time>2022-07-30T08:39:32Z</time>
      </trkpt>
      <trkpt lat="43.15051" lon="5.93049">
        <ele>490.7</ele>
        <time>2022-07-30T08:39:34Z</time>
      </trkpt>
      <trkpt lat="43.15042" lon="5.9305">
        <ele>491.2</ele>
        <time>2022-07-30T08:39:46Z</time>
      </trkpt>
      <trkpt lat="43.1504" lon="5.93045">
        <ele>491.4</ele>
        <time>2022-07-30T08:39:56Z</time>
      </trkpt>
      <trkpt lat="43.15036" lon="5.93046">
        <ele>491.6</ele>
        <time>2022-07-30T08:40:00Z</time>
      </trkpt>
      <trkpt lat="43.15033" lon="5.93044">
        <ele>491.8</ele>
        <time>2022-07-30T08:40:05Z</time>
      </trkpt>
      <trkpt lat="43.15028" lon="5.93037">
        <ele>492.3</ele>
        <time>2022-07-30T08:40:13Z</time>
      </trkpt>
      <trkpt lat="43.15026" lon="5.93035">
        <ele>492.1</ele>
        <time>2022-07-30T08:40:16Z</time>
      </trkpt>
      <trkpt lat="43.15022" lon="5.9303">
        <ele>491.7</ele>
        <time>2022-07-30T08:40:22Z</time>
      </trkpt>
      <trkpt lat="43.1502" lon="5.93029">
        <ele>491.6</ele>
        <time>2022-07-30T08:40:24Z</time>
      </trkpt>
      <trkpt lat="43.15017" lon="5.93024">
        <ele>491.3</ele>
        <time>2022-07-30T08:40:29Z</time>
      </trkpt>
      <trkpt lat="43.15013" lon="5.93021">
        <ele>490.9</ele>
        <time>2022-07-30T08:40:34Z</time>
      </trkpt>
      <trkpt lat="43.15006" lon="5.93016">
        <ele>490.3</ele>
        <time>2022-07-30T08:40:42Z</time>
      </trkpt>
      <trkpt lat="43.15" lon="5.93019">
        <ele>489.8</ele>
        <time>2022-07-30T08:40:50Z</time>
      </trkpt>
      <trkpt lat="43.14997" lon="5.93019">
        <ele>489.5</ele>
        <time>2022-07-30T08:40:53Z</time>
      </trkpt>
      <trkpt lat="43.14996" lon="5.93019">
        <ele>489.3</ele>
        <time>2022-07-30T08:40:55Z</time>
      </trkpt>
      <trkpt lat="43.14994" lon="5.93019">
        <ele>489.2</ele>
        <time>2022-07-30T08:40:57Z</time>
      </trkpt>
      <trkpt lat="43.14993" lon="5.93019">
        <ele>489.1</ele>
        <time>2022-07-30T08:40:59Z</time>
      </trkpt>
      <trkpt lat="43.1499" lon="5.93019">
        <ele>488.8</ele>
        <time>2022-07-30T08:41:02Z</time>
      </trkpt>
      <trkpt lat="43.14989" lon="5.9302">
        <ele>488.8</ele>
        <time>2022-07-30T08:41:03Z</time>
      </trkpt>
      <trkpt lat="43.14988" lon="5.9302">
        <ele>488.7</ele>
        <time>2022-07-30T08:41:04Z</time>
      </trkpt>
      <trkpt lat="43.14974" lon="5.93029">
        <ele>487.2</ele>
        <time>2022-07-30T08:41:21Z</time>
      </trkpt>
      <trkpt lat="43.14967" lon="5.93033">
        <ele>486.3</ele>
        <time>2022-07-30T08:41:29Z</time>
      </trkpt>
      <trkpt lat="43.14967" lon="5.93034">
        <ele>486.3</ele>
        <time>2022-07-30T08:41:31Z</time>
      </trkpt>
      <trkpt lat="43.14967" lon="5.93035">
        <ele>486.3</ele>
        <time>2022-07-30T08:41:34Z</time>
      </trkpt>
      <trkpt lat="43.14971" lon="5.93036">
        <ele>486.3</ele>
        <time>2022-07-30T08:41:45Z</time>
      </trkpt>
      <trkpt lat="43.14971" lon="5.93037">
        <ele>486.3</ele>
        <time>2022-07-30T08:41:48Z</time>
      </trkpt>
      <trkpt lat="43.14975" lon="5.93038">
        <ele>486.3</ele>
        <time>2022-07-30T08:42:01Z</time>
      </trkpt>
      <trkpt lat="43.14986" lon="5.93042">
        <ele>486.4</ele>
        <time>2022-07-30T08:42:14Z</time>
      </trkpt>
      <trkpt lat="43.14991" lon="5.93043">
        <ele>486.6</ele>
        <time>2022-07-30T08:42:18Z</time>
      </trkpt>
      <trkpt lat="43.14995" lon="5.93044">
        <ele>486.7</ele>
        <time>2022-07-30T08:42:21Z</time>
      </trkpt>
      <trkpt lat="43.15003" lon="5.93045">
        <ele>487.1</ele>
        <time>2022-07-30T08:42:27Z</time>
      </trkpt>
      <trkpt lat="43.15012" lon="5.93051">
        <ele>487.8</ele>
        <time>2022-07-30T08:42:36Z</time>
      </trkpt>
      <trkpt lat="43.15016" lon="5.93054">
        <ele>488.1</ele>
        <time>2022-07-30T08:42:40Z</time>
      </trkpt>
      <trkpt lat="43.15027" lon="5.93068">
        <ele>488.8</ele>
        <time>2022-07-30T08:42:53Z</time>
      </trkpt>
      <trkpt lat="43.15034" lon="5.93088">
        <ele>489.2</ele>
        <time>2022-07-30T08:43:08Z</time>
      </trkpt>
      <trkpt lat="43.15041" lon="5.93107">
        <ele>489.6</ele>
        <time>2022-07-30T08:43:23Z</time>
      </trkpt>
      <trkpt lat="43.15054" lon="5.93117">
        <ele>490.6</ele>
        <time>2022-07-30T08:43:39Z</time>
      </trkpt>
      <trkpt lat="43.15059" lon="5.93123">
        <ele>491.2</ele>
        <time>2022-07-30T08:43:48Z</time>
      </trkpt>
      <trkpt lat="43.1506" lon="5.93124">
        <ele>491.3</ele>
        <time>2022-07-30T08:43:51Z</time>
      </trkpt>
      <trkpt lat="43.1506" lon="5.93125">
        <ele>491.4</ele>
        <time>2022-07-30T08:43:53Z</time>
      </trkpt>
      <trkpt lat="43.15067" lon="5.93125">
        <ele>491.4</ele>
        <time>2022-07-30T08:44:11Z</time>
      </trkpt>
      <trkpt lat="43.1507" lon="5.9313">
        <ele>491.7</ele>
        <time>2022-07-30T08:44:17Z</time>
      </trkpt>
      <trkpt lat="43.15072" lon="5.93136">
        <ele>492</ele>
        <time>2022-07-30T08:44:23Z</time>
      </trkpt>
      <trkpt lat="43.15073" lon="5.93137">
        <ele>492</ele>
        <time>2022-07-30T08:44:24Z</time>
      </trkpt>
      <trkpt lat="43.15073" lon="5.93142">
        <ele>492.3</ele>
        <time>2022-07-30T08:44:28Z</time>
      </trkpt>
      <trkpt lat="43.15073" lon="5.93145">
        <ele>492.4</ele>
        <time>2022-07-30T08:44:30Z</time>
      </trkpt>
      <trkpt lat="43.15072" lon="5.93148">
        <ele>492.7</ele>
        <time>2022-07-30T08:44:33Z</time>
      </trkpt>
      <trkpt lat="43.15072" lon="5.93153">
        <ele>493</ele>
        <time>2022-07-30T08:44:35Z</time>
      </trkpt>
      <trkpt lat="43.15072" lon="5.93157">
        <ele>493.2</ele>
        <time>2022-07-30T08:44:37Z</time>
      </trkpt>
      <trkpt lat="43.15072" lon="5.93158">
        <ele>493.2</ele>
        <time>2022-07-30T08:44:38Z</time>
      </trkpt>
      <trkpt lat="43.1507" lon="5.93165">
        <ele>493.7</ele>
        <time>2022-07-30T08:44:44Z</time>
      </trkpt>
      <trkpt lat="43.15074" lon="5.93178">
        <ele>494.5</ele>
        <time>2022-07-30T08:44:52Z</time>
      </trkpt>
      <trkpt lat="43.15075" lon="5.93182">
        <ele>494.8</ele>
        <time>2022-07-30T08:44:55Z</time>
      </trkpt>
      <trkpt lat="43.15077" lon="5.93196">
        <ele>495.7</ele>
        <time>2022-07-30T08:45:05Z</time>
      </trkpt>
      <trkpt lat="43.15079" lon="5.93199">
        <ele>495.8</ele>
        <time>2022-07-30T08:45:07Z</time>
      </trkpt>
      <trkpt lat="43.15081" lon="5.93211">
        <ele>496.4</ele>
        <time>2022-07-30T08:45:17Z</time>
      </trkpt>
      <trkpt lat="43.15081" lon="5.93217">
        <ele>496.6</ele>
        <time>2022-07-30T08:45:23Z</time>
      </trkpt>
      <trkpt lat="43.15082" lon="5.93235">
        <ele>496.9</ele>
        <time>2022-07-30T08:45:37Z</time>
      </trkpt>
      <trkpt lat="43.15083" lon="5.93255">
        <ele>496.6</ele>
        <time>2022-07-30T08:45:51Z</time>
      </trkpt>
      <trkpt lat="43.15083" lon="5.93258">
        <ele>496.5</ele>
        <time>2022-07-30T08:45:53Z</time>
      </trkpt>
      <trkpt lat="43.15083" lon="5.93273">
        <ele>496</ele>
        <time>2022-07-30T08:46:03Z</time>
      </trkpt>
      <trkpt lat="43.15083" lon="5.93277">
        <ele>495.8</ele>
        <time>2022-07-30T08:46:06Z</time>
      </trkpt>
      <trkpt lat="43.15085" lon="5.9328">
        <ele>495.6</ele>
        <time>2022-07-30T08:46:11Z</time>
      </trkpt>
      <trkpt lat="43.15084" lon="5.9328">
        <ele>495.5</ele>
        <time>2022-07-30T08:46:14Z</time>
      </trkpt>
      <trkpt lat="43.15083" lon="5.9328">
        <ele>495.5</ele>
        <time>2022-07-30T08:46:15Z</time>
      </trkpt>
      <trkpt lat="43.15078" lon="5.93281">
        <ele>495.2</ele>
        <time>2022-07-30T08:46:24Z</time>
      </trkpt>
      <trkpt lat="43.15076" lon="5.93281">
        <ele>495.1</ele>
        <time>2022-07-30T08:46:30Z</time>
      </trkpt>
      <trkpt lat="43.15075" lon="5.93282">
        <ele>495</ele>
        <time>2022-07-30T08:46:47Z</time>
      </trkpt>
      <trkpt lat="43.15071" lon="5.93284">
        <ele>494.8</ele>
        <time>2022-07-30T08:47:05Z</time>
      </trkpt>
      <trkpt lat="43.15072" lon="5.93285">
        <ele>494.8</ele>
        <time>2022-07-30T08:47:12Z</time>
      </trkpt>
      <trkpt lat="43.15075" lon="5.93285">
        <ele>494.6</ele>
        <time>2022-07-30T08:47:17Z</time>
      </trkpt>
      <trkpt lat="43.15076" lon="5.93285">
        <ele>494.6</ele>
        <time>2022-07-30T08:47:19Z</time>
      </trkpt>
      <trkpt lat="43.1508" lon="5.93286">
        <ele>494.4</ele>
        <time>2022-07-30T08:47:26Z</time>
      </trkpt>
      <trkpt lat="43.15085" lon="5.93287">
        <ele>494.2</ele>
        <time>2022-07-30T08:47:31Z</time>
      </trkpt>
      <trkpt lat="43.15086" lon="5.93288">
        <ele>494.2</ele>
        <time>2022-07-30T08:47:33Z</time>
      </trkpt>
      <trkpt lat="43.15086" lon="5.93289">
        <ele>494.1</ele>
        <time>2022-07-30T08:47:34Z</time>
      </trkpt>
      <trkpt lat="43.15088" lon="5.9329">
        <ele>494.1</ele>
        <time>2022-07-30T08:47:36Z</time>
      </trkpt>
      <trkpt lat="43.15089" lon="5.93292">
        <ele>494</ele>
        <time>2022-07-30T08:47:38Z</time>
      </trkpt>
      <trkpt lat="43.1509" lon="5.93293">
        <ele>493.9</ele>
        <time>2022-07-30T08:47:40Z</time>
      </trkpt>
      <trkpt lat="43.15092" lon="5.93297">
        <ele>493.8</ele>
        <time>2022-07-30T08:47:43Z</time>
      </trkpt>
      <trkpt lat="43.15094" lon="5.93302">
        <ele>493.6</ele>
        <time>2022-07-30T08:47:48Z</time>
      </trkpt>
      <trkpt lat="43.15094" lon="5.93304">
        <ele>493.6</ele>
        <time>2022-07-30T08:47:49Z</time>
      </trkpt>
      <trkpt lat="43.151" lon="5.93315">
        <ele>493.1</ele>
        <time>2022-07-30T08:48:00Z</time>
      </trkpt>
      <trkpt lat="43.15108" lon="5.93326">
        <ele>492.3</ele>
        <time>2022-07-30T08:48:11Z</time>
      </trkpt>
      <trkpt lat="43.1511" lon="5.9333">
        <ele>492.1</ele>
        <time>2022-07-30T08:48:15Z</time>
      </trkpt>
      <trkpt lat="43.15119" lon="5.93341">
        <ele>491.3</ele>
        <time>2022-07-30T08:48:27Z</time>
      </trkpt>
      <trkpt lat="43.1512" lon="5.93344">
        <ele>491.2</ele>
        <time>2022-07-30T08:48:29Z</time>
      </trkpt>
      <trkpt lat="43.15127" lon="5.93355">
        <ele>490.5</ele>
        <time>2022-07-30T08:48:41Z</time>
      </trkpt>
      <trkpt lat="43.15129" lon="5.93359">
        <ele>490.3</ele>
        <time>2022-07-30T08:48:45Z</time>
      </trkpt>
      <trkpt lat="43.15132" lon="5.93362">
        <ele>490.1</ele>
        <time>2022-07-30T08:48:50Z</time>
      </trkpt>
      <trkpt lat="43.15133" lon="5.93363">
        <ele>490</ele>
        <time>2022-07-30T08:48:54Z</time>
      </trkpt>
      <trkpt lat="43.15133" lon="5.93363">
        <ele>490</ele>
        <time>2022-07-30T08:48:56Z</time>
      </trkpt>
      <trkpt lat="43.15136" lon="5.93374">
        <ele>489.6</ele>
        <time>2022-07-30T08:49:08Z</time>
      </trkpt>
      <trkpt lat="43.15142" lon="5.93377">
        <ele>490.3</ele>
        <time>2022-07-30T08:49:13Z</time>
      </trkpt>
      <trkpt lat="43.15149" lon="5.93377">
        <ele>491</ele>
        <time>2022-07-30T08:49:19Z</time>
      </trkpt>
      <trkpt lat="43.15156" lon="5.93368">
        <ele>491.9</ele>
        <time>2022-07-30T08:49:30Z</time>
      </trkpt>
      <trkpt lat="43.1516" lon="5.93358">
        <ele>492.8</ele>
        <time>2022-07-30T08:49:37Z</time>
      </trkpt>
      <trkpt lat="43.15164" lon="5.93351">
        <ele>493.5</ele>
        <time>2022-07-30T08:49:45Z</time>
      </trkpt>
      <trkpt lat="43.15165" lon="5.93338">
        <ele>494.5</ele>
        <time>2022-07-30T08:49:56Z</time>
      </trkpt>
      <trkpt lat="43.15165" lon="5.93337">
        <ele>494.5</ele>
        <time>2022-07-30T08:49:57Z</time>
      </trkpt>
      <trkpt lat="43.15165" lon="5.93337">
        <ele>494.6</ele>
        <time>2022-07-30T08:49:58Z</time>
      </trkpt>
      <trkpt lat="43.15165" lon="5.93336">
        <ele>494.6</ele>
        <time>2022-07-30T08:49:59Z</time>
      </trkpt>
      <trkpt lat="43.15168" lon="5.93334">
        <ele>495</ele>
        <time>2022-07-30T08:50:11Z</time>
      </trkpt>
      <trkpt lat="43.15172" lon="5.93327">
        <ele>495.7</ele>
        <time>2022-07-30T08:50:24Z</time>
      </trkpt>
      <trkpt lat="43.15175" lon="5.93316">
        <ele>496.6</ele>
        <time>2022-07-30T08:50:35Z</time>
      </trkpt>
      <trkpt lat="43.15176" lon="5.93311">
        <ele>497</ele>
        <time>2022-07-30T08:50:39Z</time>
      </trkpt>
      <trkpt lat="43.15176" lon="5.9331">
        <ele>497.1</ele>
        <time>2022-07-30T08:50:40Z</time>
      </trkpt>
      <trkpt lat="43.15176" lon="5.93308">
        <ele>497.2</ele>
        <time>2022-07-30T08:50:41Z</time>
      </trkpt>
      <trkpt lat="43.15176" lon="5.93307">
        <ele>497.4</ele>
        <time>2022-07-30T08:50:42Z</time>
      </trkpt>
      <trkpt lat="43.15177" lon="5.93304">
        <ele>497.6</ele>
        <time>2022-07-30T08:50:45Z</time>
      </trkpt>
      <trkpt lat="43.15177" lon="5.93303">
        <ele>497.7</ele>
        <time>2022-07-30T08:50:46Z</time>
      </trkpt>
      <trkpt lat="43.15177" lon="5.93303">
        <ele>497.7</ele>
        <time>2022-07-30T08:52:35Z</time>
      </trkpt>
      <trkpt lat="43.15186" lon="5.93311">
        <ele>499</ele>
        <time>2022-07-30T08:52:54Z</time>
      </trkpt>
      <trkpt lat="43.15175" lon="5.93313">
        <ele>500.3</ele>
        <time>2022-07-30T08:52:59Z</time>
      </trkpt>
      <trkpt lat="43.15177" lon="5.93323">
        <ele>500.1</ele>
        <time>2022-07-30T08:53:05Z</time>
      </trkpt>
      <trkpt lat="43.1517" lon="5.9334">
        <ele>497.5</ele>
        <time>2022-07-30T08:53:19Z</time>
      </trkpt>
      <trkpt lat="43.15163" lon="5.93353">
        <ele>495.2</ele>
        <time>2022-07-30T08:53:34Z</time>
      </trkpt>
      <trkpt lat="43.15161" lon="5.93356">
        <ele>494.7</ele>
        <time>2022-07-30T08:53:39Z</time>
      </trkpt>
      <trkpt lat="43.15161" lon="5.9336">
        <ele>494.3</ele>
        <time>2022-07-30T08:53:42Z</time>
      </trkpt>
      <trkpt lat="43.1516" lon="5.93364">
        <ele>493.7</ele>
        <time>2022-07-30T08:53:46Z</time>
      </trkpt>
      <trkpt lat="43.15159" lon="5.93366">
        <ele>493.4</ele>
        <time>2022-07-30T08:53:49Z</time>
      </trkpt>
      <trkpt lat="43.15157" lon="5.93378">
        <ele>491.8</ele>
        <time>2022-07-30T08:53:59Z</time>
      </trkpt>
      <trkpt lat="43.15158" lon="5.93388">
        <ele>490.2</ele>
        <time>2022-07-30T08:54:05Z</time>
      </trkpt>
      <trkpt lat="43.1516" lon="5.93393">
        <ele>490.4</ele>
        <time>2022-07-30T08:54:11Z</time>
      </trkpt>
      <trkpt lat="43.15161" lon="5.93394">
        <ele>490.5</ele>
        <time>2022-07-30T08:54:16Z</time>
      </trkpt>
      <trkpt lat="43.15168" lon="5.93396">
        <ele>490.8</ele>
        <time>2022-07-30T08:54:23Z</time>
      </trkpt>
      <trkpt lat="43.15172" lon="5.93397">
        <ele>491</ele>
        <time>2022-07-30T08:54:27Z</time>
      </trkpt>
      <trkpt lat="43.15179" lon="5.93404">
        <ele>491.4</ele>
        <time>2022-07-30T08:54:38Z</time>
      </trkpt>
      <trkpt lat="43.15186" lon="5.93416">
        <ele>491.7</ele>
        <time>2022-07-30T08:54:49Z</time>
      </trkpt>
      <trkpt lat="43.15186" lon="5.93417">
        <ele>491.7</ele>
        <time>2022-07-30T08:54:50Z</time>
      </trkpt>
      <trkpt lat="43.15189" lon="5.9343">
        <ele>492</ele>
        <time>2022-07-30T08:55:01Z</time>
      </trkpt>
      <trkpt lat="43.15191" lon="5.93448">
        <ele>492.3</ele>
        <time>2022-07-30T08:55:16Z</time>
      </trkpt>
      <trkpt lat="43.15196" lon="5.93462">
        <ele>492.7</ele>
        <time>2022-07-30T08:55:26Z</time>
      </trkpt>
      <trkpt lat="43.15198" lon="5.93469">
        <ele>492.9</ele>
        <time>2022-07-30T08:55:31Z</time>
      </trkpt>
      <trkpt lat="43.15204" lon="5.93486">
        <ele>493.4</ele>
        <time>2022-07-30T08:55:46Z</time>
      </trkpt>
      <trkpt lat="43.15203" lon="5.93504">
        <ele>493.5</ele>
        <time>2022-07-30T08:55:59Z</time>
      </trkpt>
      <trkpt lat="43.15209" lon="5.93524">
        <ele>493.6</ele>
        <time>2022-07-30T08:56:14Z</time>
      </trkpt>
      <trkpt lat="43.15213" lon="5.93546">
        <ele>493.9</ele>
        <time>2022-07-30T08:56:30Z</time>
      </trkpt>
      <trkpt lat="43.15217" lon="5.93558">
        <ele>494.2</ele>
        <time>2022-07-30T08:56:39Z</time>
      </trkpt>
      <trkpt lat="43.15218" lon="5.93564">
        <ele>494.3</ele>
        <time>2022-07-30T08:56:44Z</time>
      </trkpt>
      <trkpt lat="43.15219" lon="5.93572">
        <ele>494.4</ele>
        <time>2022-07-30T08:56:52Z</time>
      </trkpt>
      <trkpt lat="43.15219" lon="5.93576">
        <ele>494.5</ele>
        <time>2022-07-30T08:56:55Z</time>
      </trkpt>
      <trkpt lat="43.15219" lon="5.93578">
        <ele>494.5</ele>
        <time>2022-07-30T08:56:57Z</time>
      </trkpt>
      <trkpt lat="43.15219" lon="5.93581">
        <ele>494.5</ele>
        <time>2022-07-30T08:56:59Z</time>
      </trkpt>
      <trkpt lat="43.1522" lon="5.93582">
        <ele>494.5</ele>
        <time>2022-07-30T08:57:00Z</time>
      </trkpt>
      <trkpt lat="43.15226" lon="5.93603">
        <ele>494.7</ele>
        <time>2022-07-30T08:57:16Z</time>
      </trkpt>
      <trkpt lat="43.15235" lon="5.93623">
        <ele>494.6</ele>
        <time>2022-07-30T08:57:31Z</time>
      </trkpt>
      <trkpt lat="43.15241" lon="5.93641">
        <ele>494.9</ele>
        <time>2022-07-30T08:57:47Z</time>
      </trkpt>
      <trkpt lat="43.15245" lon="5.93657">
        <ele>495.3</ele>
        <time>2022-07-30T08:58:00Z</time>
      </trkpt>
      <trkpt lat="43.15247" lon="5.93659">
        <ele>495.4</ele>
        <time>2022-07-30T08:58:02Z</time>
      </trkpt>
      <trkpt lat="43.15251" lon="5.93677">
        <ele>495.6</ele>
        <time>2022-07-30T08:58:14Z</time>
      </trkpt>
      <trkpt lat="43.15251" lon="5.937">
        <ele>495.3</ele>
        <time>2022-07-30T08:58:28Z</time>
      </trkpt>
      <trkpt lat="43.15245" lon="5.93718">
        <ele>495.2</ele>
        <time>2022-07-30T08:58:42Z</time>
      </trkpt>
      <trkpt lat="43.15243" lon="5.93741">
        <ele>495.5</ele>
        <time>2022-07-30T08:58:57Z</time>
      </trkpt>
      <trkpt lat="43.15241" lon="5.93765">
        <ele>496.2</ele>
        <time>2022-07-30T08:59:14Z</time>
      </trkpt>
      <trkpt lat="43.1524" lon="5.93774">
        <ele>496.4</ele>
        <time>2022-07-30T08:59:21Z</time>
      </trkpt>
      <trkpt lat="43.15238" lon="5.93787">
        <ele>496.6</ele>
        <time>2022-07-30T08:59:31Z</time>
      </trkpt>
      <trkpt lat="43.15239" lon="5.93807">
        <ele>497.3</ele>
        <time>2022-07-30T08:59:47Z</time>
      </trkpt>
      <trkpt lat="43.15241" lon="5.93812">
        <ele>497.5</ele>
        <time>2022-07-30T08:59:53Z</time>
      </trkpt>
      <trkpt lat="43.15243" lon="5.93814">
        <ele>497.7</ele>
        <time>2022-07-30T08:59:59Z</time>
      </trkpt>
      <trkpt lat="43.15248" lon="5.93817">
        <ele>498.1</ele>
        <time>2022-07-30T09:00:09Z</time>
      </trkpt>
      <trkpt lat="43.15249" lon="5.9382">
        <ele>498.2</ele>
        <time>2022-07-30T09:00:13Z</time>
      </trkpt>
      <trkpt lat="43.1525" lon="5.93833">
        <ele>498.4</ele>
        <time>2022-07-30T09:00:26Z</time>
      </trkpt>
      <trkpt lat="43.1525" lon="5.93834">
        <ele>498.4</ele>
        <time>2022-07-30T09:00:27Z</time>
      </trkpt>
      <trkpt lat="43.1525" lon="5.93855">
        <ele>498</ele>
        <time>2022-07-30T09:00:43Z</time>
      </trkpt>
      <trkpt lat="43.15251" lon="5.93868">
        <ele>497.7</ele>
        <time>2022-07-30T09:00:58Z</time>
      </trkpt>
      <trkpt lat="43.15251" lon="5.93872">
        <ele>497.6</ele>
        <time>2022-07-30T09:01:01Z</time>
      </trkpt>
      <trkpt lat="43.15251" lon="5.93874">
        <ele>497.5</ele>
        <time>2022-07-30T09:01:03Z</time>
      </trkpt>
      <trkpt lat="43.15251" lon="5.93877">
        <ele>497.4</ele>
        <time>2022-07-30T09:01:05Z</time>
      </trkpt>
      <trkpt lat="43.15251" lon="5.93883">
        <ele>497.1</ele>
        <time>2022-07-30T09:01:10Z</time>
      </trkpt>
      <trkpt lat="43.1525" lon="5.93884">
        <ele>497.1</ele>
        <time>2022-07-30T09:01:12Z</time>
      </trkpt>
      <trkpt lat="43.1525" lon="5.93885">
        <ele>497</ele>
        <time>2022-07-30T09:01:13Z</time>
      </trkpt>
      <trkpt lat="43.15255" lon="5.9389">
        <ele>496.6</ele>
        <time>2022-07-30T09:01:27Z</time>
      </trkpt>
      <trkpt lat="43.15255" lon="5.93891">
        <ele>496.5</ele>
        <time>2022-07-30T09:01:28Z</time>
      </trkpt>
      <trkpt lat="43.15255" lon="5.93906">
        <ele>496.1</ele>
        <time>2022-07-30T09:01:42Z</time>
      </trkpt>
      <trkpt lat="43.15256" lon="5.93908">
        <ele>496</ele>
        <time>2022-07-30T09:01:44Z</time>
      </trkpt>
      <trkpt lat="43.15261" lon="5.93921">
        <ele>495.8</ele>
        <time>2022-07-30T09:01:55Z</time>
      </trkpt>
      <trkpt lat="43.15262" lon="5.93925">
        <ele>495.7</ele>
        <time>2022-07-30T09:01:58Z</time>
      </trkpt>
      <trkpt lat="43.15265" lon="5.9394">
        <ele>495.6</ele>
        <time>2022-07-30T09:02:10Z</time>
      </trkpt>
      <trkpt lat="43.15266" lon="5.93949">
        <ele>494.3</ele>
        <time>2022-07-30T09:02:18Z</time>
      </trkpt>
      <trkpt lat="43.15266" lon="5.93955">
        <ele>493.8</ele>
        <time>2022-07-30T09:02:24Z</time>
      </trkpt>
      <trkpt lat="43.15267" lon="5.93959">
        <ele>493.4</ele>
        <time>2022-07-30T09:02:29Z</time>
      </trkpt>
      <trkpt lat="43.15264" lon="5.93969">
        <ele>492.6</ele>
        <time>2022-07-30T09:02:38Z</time>
      </trkpt>
      <trkpt lat="43.15262" lon="5.93974">
        <ele>492.1</ele>
        <time>2022-07-30T09:02:42Z</time>
      </trkpt>
      <trkpt lat="43.15256" lon="5.93981">
        <ele>491.3</ele>
        <time>2022-07-30T09:02:52Z</time>
      </trkpt>
      <trkpt lat="43.15251" lon="5.93984">
        <ele>490.8</ele>
        <time>2022-07-30T09:02:56Z</time>
      </trkpt>
      <trkpt lat="43.15245" lon="5.9399">
        <ele>490.4</ele>
        <time>2022-07-30T09:03:05Z</time>
      </trkpt>
      <trkpt lat="43.15244" lon="5.93989">
        <ele>490.4</ele>
        <time>2022-07-30T09:03:06Z</time>
      </trkpt>
      <trkpt lat="43.15238" lon="5.93993">
        <ele>490.4</ele>
        <time>2022-07-30T09:03:16Z</time>
      </trkpt>
      <trkpt lat="43.15233" lon="5.93992">
        <ele>490.3</ele>
        <time>2022-07-30T09:03:22Z</time>
      </trkpt>
      <trkpt lat="43.15233" lon="5.9399">
        <ele>490.3</ele>
        <time>2022-07-30T09:03:27Z</time>
      </trkpt>
      <trkpt lat="43.15234" lon="5.93989">
        <ele>490.3</ele>
        <time>2022-07-30T09:03:43Z</time>
      </trkpt>
      <trkpt lat="43.15233" lon="5.93992">
        <ele>490.3</ele>
        <time>2022-07-30T09:03:59Z</time>
      </trkpt>
      <trkpt lat="43.1523" lon="5.9399">
        <ele>490.3</ele>
        <time>2022-07-30T09:04:16Z</time>
      </trkpt>
      <trkpt lat="43.15226" lon="5.93985">
        <ele>490.3</ele>
        <time>2022-07-30T09:04:30Z</time>
      </trkpt>
      <trkpt lat="43.15223" lon="5.93983">
        <ele>490.2</ele>
        <time>2022-07-30T09:04:34Z</time>
      </trkpt>
      <trkpt lat="43.15216" lon="5.9398">
        <ele>490.2</ele>
        <time>2022-07-30T09:04:42Z</time>
      </trkpt>
      <trkpt lat="43.15198" lon="5.93987">
        <ele>490.2</ele>
        <time>2022-07-30T09:04:58Z</time>
      </trkpt>
      <trkpt lat="43.1518" lon="5.93995">
        <ele>490.5</ele>
        <time>2022-07-30T09:05:13Z</time>
      </trkpt>
      <trkpt lat="43.15179" lon="5.93995">
        <ele>490.5</ele>
        <time>2022-07-30T09:05:14Z</time>
      </trkpt>
      <trkpt lat="43.15178" lon="5.93995">
        <ele>490.6</ele>
        <time>2022-07-30T09:05:16Z</time>
      </trkpt>
      <trkpt lat="43.15164" lon="5.94">
        <ele>490.9</ele>
        <time>2022-07-30T09:05:30Z</time>
      </trkpt>
      <trkpt lat="43.15152" lon="5.94005">
        <ele>491.3</ele>
        <time>2022-07-30T09:05:45Z</time>
      </trkpt>
      <trkpt lat="43.1515" lon="5.94006">
        <ele>491.4</ele>
        <time>2022-07-30T09:05:48Z</time>
      </trkpt>
      <trkpt lat="43.15136" lon="5.94007">
        <ele>492</ele>
        <time>2022-07-30T09:06:02Z</time>
      </trkpt>
      <trkpt lat="43.15123" lon="5.94009">
        <ele>492.5</ele>
        <time>2022-07-30T09:06:15Z</time>
      </trkpt>
      <trkpt lat="43.1512" lon="5.94009">
        <ele>492.6</ele>
        <time>2022-07-30T09:06:18Z</time>
      </trkpt>
      <trkpt lat="43.15119" lon="5.94009">
        <ele>492.7</ele>
        <time>2022-07-30T09:06:19Z</time>
      </trkpt>
      <trkpt lat="43.15103" lon="5.94013">
        <ele>493.3</ele>
        <time>2022-07-30T09:06:35Z</time>
      </trkpt>
      <trkpt lat="43.15099" lon="5.94014">
        <ele>493.5</ele>
        <time>2022-07-30T09:06:40Z</time>
      </trkpt>
      <trkpt lat="43.15093" lon="5.94014">
        <ele>493.6</ele>
        <time>2022-07-30T09:06:48Z</time>
      </trkpt>
      <trkpt lat="43.15088" lon="5.94019">
        <ele>493.8</ele>
        <time>2022-07-30T09:07:00Z</time>
      </trkpt>
      <trkpt lat="43.15077" lon="5.9401">
        <ele>494</ele>
        <time>2022-07-30T09:07:13Z</time>
      </trkpt>
      <trkpt lat="43.15067" lon="5.9401">
        <ele>494.2</ele>
        <time>2022-07-30T09:07:25Z</time>
      </trkpt>
      <trkpt lat="43.15067" lon="5.9401">
        <ele>494.2</ele>
        <time>2022-07-30T09:07:26Z</time>
      </trkpt>
      <trkpt lat="43.15061" lon="5.94009">
        <ele>494.2</ele>
        <time>2022-07-30T09:07:41Z</time>
      </trkpt>
      <trkpt lat="43.15051" lon="5.94001">
        <ele>494.3</ele>
        <time>2022-07-30T09:07:54Z</time>
      </trkpt>
      <trkpt lat="43.1504" lon="5.93998">
        <ele>494.2</ele>
        <time>2022-07-30T09:08:08Z</time>
      </trkpt>
      <trkpt lat="43.15037" lon="5.93997">
        <ele>494.2</ele>
        <time>2022-07-30T09:08:12Z</time>
      </trkpt>
      <trkpt lat="43.15032" lon="5.93995">
        <ele>494.1</ele>
        <time>2022-07-30T09:08:18Z</time>
      </trkpt>
      <trkpt lat="43.15028" lon="5.93992">
        <ele>494.1</ele>
        <time>2022-07-30T09:08:23Z</time>
      </trkpt>
      <trkpt lat="43.15013" lon="5.93988">
        <ele>493.9</ele>
        <time>2022-07-30T09:08:37Z</time>
      </trkpt>
      <trkpt lat="43.15006" lon="5.93985">
        <ele>493.9</ele>
        <time>2022-07-30T09:08:44Z</time>
      </trkpt>
      <trkpt lat="43.14996" lon="5.93986">
        <ele>493.9</ele>
        <time>2022-07-30T09:08:54Z</time>
      </trkpt>
      <trkpt lat="43.1498" lon="5.93985">
        <ele>493.9</ele>
        <time>2022-07-30T09:09:09Z</time>
      </trkpt>
      <trkpt lat="43.14977" lon="5.93983">
        <ele>493.9</ele>
        <time>2022-07-30T09:09:15Z</time>
      </trkpt>
      <trkpt lat="43.14975" lon="5.93982">
        <ele>493.9</ele>
        <time>2022-07-30T09:09:18Z</time>
      </trkpt>
      <trkpt lat="43.14973" lon="5.93983">
        <ele>493.9</ele>
        <time>2022-07-30T09:09:23Z</time>
      </trkpt>
      <trkpt lat="43.14962" lon="5.93977">
        <ele>493.7</ele>
        <time>2022-07-30T09:09:36Z</time>
      </trkpt>
      <trkpt lat="43.14957" lon="5.93972">
        <ele>493.4</ele>
        <time>2022-07-30T09:09:41Z</time>
      </trkpt>
      <trkpt lat="43.14952" lon="5.93965">
        <ele>493.1</ele>
        <time>2022-07-30T09:09:49Z</time>
      </trkpt>
      <trkpt lat="43.14946" lon="5.93956">
        <ele>492.8</ele>
        <time>2022-07-30T09:09:57Z</time>
      </trkpt>
      <trkpt lat="43.14943" lon="5.93948">
        <ele>492.6</ele>
        <time>2022-07-30T09:10:03Z</time>
      </trkpt>
      <trkpt lat="43.14941" lon="5.93931">
        <ele>491.8</ele>
        <time>2022-07-30T09:10:16Z</time>
      </trkpt>
      <trkpt lat="43.14942" lon="5.9392">
        <ele>491.4</ele>
        <time>2022-07-30T09:10:24Z</time>
      </trkpt>
      <trkpt lat="43.14943" lon="5.93914">
        <ele>491.2</ele>
        <time>2022-07-30T09:10:29Z</time>
      </trkpt>
      <trkpt lat="43.14942" lon="5.93909">
        <ele>491</ele>
        <time>2022-07-30T09:10:33Z</time>
      </trkpt>
      <trkpt lat="43.14942" lon="5.93908">
        <ele>490.9</ele>
        <time>2022-07-30T09:10:36Z</time>
      </trkpt>
      <trkpt lat="43.14942" lon="5.93907">
        <ele>490.9</ele>
        <time>2022-07-30T09:10:39Z</time>
      </trkpt>
      <trkpt lat="43.14942" lon="5.93906">
        <ele>490.9</ele>
        <time>2022-07-30T09:10:40Z</time>
      </trkpt>
      <trkpt lat="43.14945" lon="5.939">
        <ele>490.6</ele>
        <time>2022-07-30T09:10:50Z</time>
      </trkpt>
      <trkpt lat="43.14948" lon="5.93896">
        <ele>490.4</ele>
        <time>2022-07-30T09:11:04Z</time>
      </trkpt>
      <trkpt lat="43.14954" lon="5.93898">
        <ele>490</ele>
        <time>2022-07-30T09:11:23Z</time>
      </trkpt>
      <trkpt lat="43.14954" lon="5.93898">
        <ele>490</ele>
        <time>2022-07-30T09:11:24Z</time>
      </trkpt>
      <trkpt lat="43.14949" lon="5.93905">
        <ele>489.5</ele>
        <time>2022-07-30T09:11:32Z</time>
      </trkpt>
      <trkpt lat="43.14947" lon="5.93906">
        <ele>489.4</ele>
        <time>2022-07-30T09:11:33Z</time>
      </trkpt>
      <trkpt lat="43.14945" lon="5.93906">
        <ele>489.2</ele>
        <time>2022-07-30T09:11:37Z</time>
      </trkpt>
      <trkpt lat="43.14945" lon="5.93905">
        <ele>489.2</ele>
        <time>2022-07-30T09:11:43Z</time>
      </trkpt>
      <trkpt lat="43.14951" lon="5.93896">
        <ele>488.6</ele>
        <time>2022-07-30T09:11:52Z</time>
      </trkpt>
      <trkpt lat="43.14954" lon="5.93893">
        <ele>488.3</ele>
        <time>2022-07-30T09:11:55Z</time>
      </trkpt>
      <trkpt lat="43.1496" lon="5.93882">
        <ele>487.5</ele>
        <time>2022-07-30T09:12:05Z</time>
      </trkpt>
      <trkpt lat="43.14963" lon="5.9388">
        <ele>487.2</ele>
        <time>2022-07-30T09:12:08Z</time>
      </trkpt>
      <trkpt lat="43.14971" lon="5.93878">
        <ele>486.5</ele>
        <time>2022-07-30T09:12:16Z</time>
      </trkpt>
      <trkpt lat="43.14972" lon="5.93878">
        <ele>486.4</ele>
        <time>2022-07-30T09:12:17Z</time>
      </trkpt>
      <trkpt lat="43.14981" lon="5.93877">
        <ele>485.4</ele>
        <time>2022-07-30T09:12:26Z</time>
      </trkpt>
      <trkpt lat="43.14987" lon="5.93876">
        <ele>485</ele>
        <time>2022-07-30T09:12:33Z</time>
      </trkpt>
      <trkpt lat="43.14993" lon="5.93874">
        <ele>484.6</ele>
        <time>2022-07-30T09:12:41Z</time>
      </trkpt>
      <trkpt lat="43.14993" lon="5.93874">
        <ele>484.6</ele>
        <time>2022-07-30T09:12:42Z</time>
      </trkpt>
      <trkpt lat="43.14993" lon="5.93872">
        <ele>484.6</ele>
        <time>2022-07-30T09:12:46Z</time>
      </trkpt>
      <trkpt lat="43.14993" lon="5.93873">
        <ele>484.5</ele>
        <time>2022-07-30T09:12:50Z</time>
      </trkpt>
      <trkpt lat="43.15001" lon="5.93871">
        <ele>484.2</ele>
        <time>2022-07-30T09:12:59Z</time>
      </trkpt>
      <trkpt lat="43.15016" lon="5.93871">
        <ele>483.6</ele>
        <time>2022-07-30T09:13:11Z</time>
      </trkpt>
      <trkpt lat="43.15018" lon="5.9387">
        <ele>483.5</ele>
        <time>2022-07-30T09:13:13Z</time>
      </trkpt>
      <trkpt lat="43.1503" lon="5.9387">
        <ele>483.2</ele>
        <time>2022-07-30T09:13:27Z</time>
      </trkpt>
      <trkpt lat="43.15031" lon="5.9387">
        <ele>483.1</ele>
        <time>2022-07-30T09:13:28Z</time>
      </trkpt>
      <trkpt lat="43.15035" lon="5.93871">
        <ele>483</ele>
        <time>2022-07-30T09:13:35Z</time>
      </trkpt>
      <trkpt lat="43.15037" lon="5.93872">
        <ele>483</ele>
        <time>2022-07-30T09:13:41Z</time>
      </trkpt>
      <trkpt lat="43.15041" lon="5.9387">
        <ele>482.9</ele>
        <time>2022-07-30T09:13:55Z</time>
      </trkpt>
      <trkpt lat="43.15035" lon="5.93868">
        <ele>483</ele>
        <time>2022-07-30T09:14:07Z</time>
      </trkpt>
      <trkpt lat="43.15032" lon="5.93868">
        <ele>483.1</ele>
        <time>2022-07-30T09:14:10Z</time>
      </trkpt>
      <trkpt lat="43.15027" lon="5.93868">
        <ele>483.2</ele>
        <time>2022-07-30T09:14:15Z</time>
      </trkpt>
      <trkpt lat="43.15018" lon="5.93869">
        <ele>483.5</ele>
        <time>2022-07-30T09:14:22Z</time>
      </trkpt>
      <trkpt lat="43.15006" lon="5.93869">
        <ele>483.9</ele>
        <time>2022-07-30T09:14:32Z</time>
      </trkpt>
      <trkpt lat="43.15001" lon="5.9387">
        <ele>484.2</ele>
        <time>2022-07-30T09:14:37Z</time>
      </trkpt>
      <trkpt lat="43.14998" lon="5.93871">
        <ele>484.3</ele>
        <time>2022-07-30T09:14:39Z</time>
      </trkpt>
      <trkpt lat="43.14991" lon="5.93871">
        <ele>484.7</ele>
        <time>2022-07-30T09:14:45Z</time>
      </trkpt>
      <trkpt lat="43.14974" lon="5.93872">
        <ele>486.1</ele>
        <time>2022-07-30T09:14:57Z</time>
      </trkpt>
      <trkpt lat="43.14969" lon="5.93873">
        <ele>486.8</ele>
        <time>2022-07-30T09:15:03Z</time>
      </trkpt>
      <trkpt lat="43.14959" lon="5.93879">
        <ele>488</ele>
        <time>2022-07-30T09:15:12Z</time>
      </trkpt>
      <trkpt lat="43.14958" lon="5.93879">
        <ele>488.2</ele>
        <time>2022-07-30T09:15:13Z</time>
      </trkpt>
      <trkpt lat="43.14952" lon="5.93882">
        <ele>488.9</ele>
        <time>2022-07-30T09:15:20Z</time>
      </trkpt>
      <trkpt lat="43.1495" lon="5.93886">
        <ele>489.2</ele>
        <time>2022-07-30T09:15:23Z</time>
      </trkpt>
      <trkpt lat="43.14949" lon="5.93888">
        <ele>489.2</ele>
        <time>2022-07-30T09:15:24Z</time>
      </trkpt>
      <trkpt lat="43.14948" lon="5.93889">
        <ele>489.5</ele>
        <time>2022-07-30T09:15:25Z</time>
      </trkpt>
      <trkpt lat="43.14947" lon="5.93892">
        <ele>489.8</ele>
        <time>2022-07-30T09:15:29Z</time>
      </trkpt>
      <trkpt lat="43.14946" lon="5.93892">
        <ele>489.8</ele>
        <time>2022-07-30T09:15:31Z</time>
      </trkpt>
      <trkpt lat="43.14944" lon="5.93893">
        <ele>490.3</ele>
        <time>2022-07-30T09:15:34Z</time>
      </trkpt>
      <trkpt lat="43.14942" lon="5.93893">
        <ele>490.3</ele>
        <time>2022-07-30T09:15:36Z</time>
      </trkpt>
      <trkpt lat="43.14942" lon="5.93894">
        <ele>490.4</ele>
        <time>2022-07-30T09:15:37Z</time>
      </trkpt>
      <trkpt lat="43.1494" lon="5.93895">
        <ele>490.6</ele>
        <time>2022-07-30T09:15:40Z</time>
      </trkpt>
      <trkpt lat="43.14937" lon="5.93898">
        <ele>491.1</ele>
        <time>2022-07-30T09:15:52Z</time>
      </trkpt>
      <trkpt lat="43.14934" lon="5.93899">
        <ele>491.4</ele>
        <time>2022-07-30T09:16:07Z</time>
      </trkpt>
      <trkpt lat="43.14928" lon="5.93887">
        <ele>490.7</ele>
        <time>2022-07-30T09:16:18Z</time>
      </trkpt>
      <trkpt lat="43.14923" lon="5.93876">
        <ele>490.7</ele>
        <time>2022-07-30T09:16:31Z</time>
      </trkpt>
      <trkpt lat="43.14921" lon="5.93873">
        <ele>490.7</ele>
        <time>2022-07-30T09:16:34Z</time>
      </trkpt>
      <trkpt lat="43.14921" lon="5.93857">
        <ele>490.7</ele>
        <time>2022-07-30T09:16:47Z</time>
      </trkpt>
      <trkpt lat="43.14921" lon="5.93842">
        <ele>490.5</ele>
        <time>2022-07-30T09:17:00Z</time>
      </trkpt>
      <trkpt lat="43.14922" lon="5.9384">
        <ele>490.4</ele>
        <time>2022-07-30T09:17:02Z</time>
      </trkpt>
      <trkpt lat="43.14921" lon="5.93839">
        <ele>490.4</ele>
        <time>2022-07-30T09:17:03Z</time>
      </trkpt>
      <trkpt lat="43.14922" lon="5.93838">
        <ele>490.4</ele>
        <time>2022-07-30T09:17:04Z</time>
      </trkpt>
      <trkpt lat="43.14922" lon="5.93838">
        <ele>490.4</ele>
        <time>2022-07-30T09:17:05Z</time>
      </trkpt>
      <trkpt lat="43.14924" lon="5.93831">
        <ele>490.1</ele>
        <time>2022-07-30T09:17:19Z</time>
      </trkpt>
      <trkpt lat="43.14923" lon="5.93829">
        <ele>490.1</ele>
        <time>2022-07-30T09:17:34Z</time>
      </trkpt>
      <trkpt lat="43.14918" lon="5.93826">
        <ele>489.8</ele>
        <time>2022-07-30T09:17:45Z</time>
      </trkpt>
      <trkpt lat="43.14916" lon="5.93824">
        <ele>489.8</ele>
        <time>2022-07-30T09:17:48Z</time>
      </trkpt>
      <trkpt lat="43.14914" lon="5.93822">
        <ele>489.9</ele>
        <time>2022-07-30T09:17:52Z</time>
      </trkpt>
      <trkpt lat="43.14902" lon="5.93814">
        <ele>490.5</ele>
        <time>2022-07-30T09:18:03Z</time>
      </trkpt>
      <trkpt lat="43.149" lon="5.93812">
        <ele>490.6</ele>
        <time>2022-07-30T09:18:05Z</time>
      </trkpt>
      <trkpt lat="43.14887" lon="5.93802">
        <ele>490.7</ele>
        <time>2022-07-30T09:18:18Z</time>
      </trkpt>
      <trkpt lat="43.14869" lon="5.93794">
        <ele>490.3</ele>
        <time>2022-07-30T09:18:34Z</time>
      </trkpt>
      <trkpt lat="43.14867" lon="5.93793">
        <ele>490.3</ele>
        <time>2022-07-30T09:18:35Z</time>
      </trkpt>
      <trkpt lat="43.14854" lon="5.93786">
        <ele>490</ele>
        <time>2022-07-30T09:18:48Z</time>
      </trkpt>
      <trkpt lat="43.14839" lon="5.93775">
        <ele>489.7</ele>
        <time>2022-07-30T09:19:03Z</time>
      </trkpt>
      <trkpt lat="43.1483" lon="5.93768">
        <ele>489.5</ele>
        <time>2022-07-30T09:19:12Z</time>
      </trkpt>
      <trkpt lat="43.14826" lon="5.93765">
        <ele>489.4</ele>
        <time>2022-07-30T09:19:17Z</time>
      </trkpt>
      <trkpt lat="43.14814" lon="5.93757">
        <ele>489.1</ele>
        <time>2022-07-30T09:19:33Z</time>
      </trkpt>
      <trkpt lat="43.14813" lon="5.93756">
        <ele>489</ele>
        <time>2022-07-30T09:19:35Z</time>
      </trkpt>
      <trkpt lat="43.14813" lon="5.93756">
        <ele>489</ele>
        <time>2022-07-30T09:19:36Z</time>
      </trkpt>
      <trkpt lat="43.14813" lon="5.93756">
        <ele>489</ele>
        <time>2022-07-30T09:19:37Z</time>
      </trkpt>
      <trkpt lat="43.1481" lon="5.93754">
        <ele>488.8</ele>
        <time>2022-07-30T09:19:41Z</time>
      </trkpt>
      <trkpt lat="43.14807" lon="5.93752">
        <ele>488.7</ele>
        <time>2022-07-30T09:19:44Z</time>
      </trkpt>
      <trkpt lat="43.14797" lon="5.93749">
        <ele>488.1</ele>
        <time>2022-07-30T09:19:54Z</time>
      </trkpt>
      <trkpt lat="43.14794" lon="5.93749">
        <ele>488</ele>
        <time>2022-07-30T09:19:56Z</time>
      </trkpt>
      <trkpt lat="43.14791" lon="5.93749">
        <ele>487.9</ele>
        <time>2022-07-30T09:19:59Z</time>
      </trkpt>
      <trkpt lat="43.14781" lon="5.93744">
        <ele>487.2</ele>
        <time>2022-07-30T09:20:09Z</time>
      </trkpt>
      <trkpt lat="43.14776" lon="5.93741">
        <ele>486.8</ele>
        <time>2022-07-30T09:20:13Z</time>
      </trkpt>
      <trkpt lat="43.14774" lon="5.9374">
        <ele>486.6</ele>
        <time>2022-07-30T09:20:15Z</time>
      </trkpt>
      <trkpt lat="43.14764" lon="5.93733">
        <ele>485.6</ele>
        <time>2022-07-30T09:20:24Z</time>
      </trkpt>
      <trkpt lat="43.1476" lon="5.93727">
        <ele>485</ele>
        <time>2022-07-30T09:20:30Z</time>
      </trkpt>
      <trkpt lat="43.14759" lon="5.93724">
        <ele>484.8</ele>
        <time>2022-07-30T09:20:32Z</time>
      </trkpt>
      <trkpt lat="43.14755" lon="5.93716">
        <ele>484</ele>
        <time>2022-07-30T09:20:42Z</time>
      </trkpt>
      <trkpt lat="43.14755" lon="5.93716">
        <ele>483.9</ele>
        <time>2022-07-30T09:20:43Z</time>
      </trkpt>
      <trkpt lat="43.14754" lon="5.93715">
        <ele>483.9</ele>
        <time>2022-07-30T09:20:44Z</time>
      </trkpt>
      <trkpt lat="43.14753" lon="5.93711">
        <ele>483.5</ele>
        <time>2022-07-30T09:20:48Z</time>
      </trkpt>
      <trkpt lat="43.14752" lon="5.93709">
        <ele>483.3</ele>
        <time>2022-07-30T09:20:50Z</time>
      </trkpt>
      <trkpt lat="43.1475" lon="5.93707">
        <ele>483</ele>
        <time>2022-07-30T09:20:52Z</time>
      </trkpt>
      <trkpt lat="43.14747" lon="5.93706">
        <ele>482.7</ele>
        <time>2022-07-30T09:20:56Z</time>
      </trkpt>
      <trkpt lat="43.14746" lon="5.93706">
        <ele>482.6</ele>
        <time>2022-07-30T09:20:57Z</time>
      </trkpt>
      <trkpt lat="43.14745" lon="5.93705">
        <ele>482.4</ele>
        <time>2022-07-30T09:20:58Z</time>
      </trkpt>
      <trkpt lat="43.14742" lon="5.93704">
        <ele>482.1</ele>
        <time>2022-07-30T09:21:00Z</time>
      </trkpt>
      <trkpt lat="43.14734" lon="5.937">
        <ele>481.1</ele>
        <time>2022-07-30T09:21:09Z</time>
      </trkpt>
      <trkpt lat="43.14724" lon="5.93697">
        <ele>480</ele>
        <time>2022-07-30T09:21:18Z</time>
      </trkpt>
      <trkpt lat="43.14718" lon="5.93696">
        <ele>479.4</ele>
        <time>2022-07-30T09:21:24Z</time>
      </trkpt>
      <trkpt lat="43.14709" lon="5.93694">
        <ele>478.6</ele>
        <time>2022-07-30T09:21:33Z</time>
      </trkpt>
      <trkpt lat="43.14704" lon="5.9369">
        <ele>478</ele>
        <time>2022-07-30T09:21:40Z</time>
      </trkpt>
      <trkpt lat="43.147" lon="5.93687">
        <ele>477.5</ele>
        <time>2022-07-30T09:21:44Z</time>
      </trkpt>
      <trkpt lat="43.14696" lon="5.93679">
        <ele>476.8</ele>
        <time>2022-07-30T09:21:52Z</time>
      </trkpt>
      <trkpt lat="43.14695" lon="5.93678">
        <ele>476.7</ele>
        <time>2022-07-30T09:21:54Z</time>
      </trkpt>
      <trkpt lat="43.14694" lon="5.93678">
        <ele>476.6</ele>
        <time>2022-07-30T09:21:56Z</time>
      </trkpt>
      <trkpt lat="43.14691" lon="5.93679">
        <ele>476.2</ele>
        <time>2022-07-30T09:22:06Z</time>
      </trkpt>
      <trkpt lat="43.1469" lon="5.93677">
        <ele>476</ele>
        <time>2022-07-30T09:22:10Z</time>
      </trkpt>
      <trkpt lat="43.14689" lon="5.93676">
        <ele>475.9</ele>
        <time>2022-07-30T09:22:18Z</time>
      </trkpt>
      <trkpt lat="43.14689" lon="5.93675">
        <ele>475.8</ele>
        <time>2022-07-30T09:22:32Z</time>
      </trkpt>
      <trkpt lat="43.14689" lon="5.9367">
        <ele>475.5</ele>
        <time>2022-07-30T09:22:44Z</time>
      </trkpt>
      <trkpt lat="43.14687" lon="5.93671">
        <ele>475.3</ele>
        <time>2022-07-30T09:22:58Z</time>
      </trkpt>
      <trkpt lat="43.14688" lon="5.9367">
        <ele>475.1</ele>
        <time>2022-07-30T09:23:07Z</time>
      </trkpt>
      <trkpt lat="43.14688" lon="5.93669">
        <ele>475</ele>
        <time>2022-07-30T09:23:14Z</time>
      </trkpt>
      <trkpt lat="43.14687" lon="5.93667">
        <ele>474.9</ele>
        <time>2022-07-30T09:23:30Z</time>
      </trkpt>
      <trkpt lat="43.14688" lon="5.93667">
        <ele>474.8</ele>
        <time>2022-07-30T09:23:43Z</time>
      </trkpt>
      <trkpt lat="43.14689" lon="5.93668">
        <ele>474.7</ele>
        <time>2022-07-30T09:23:58Z</time>
      </trkpt>
      <trkpt lat="43.14689" lon="5.93666">
        <ele>474.6</ele>
        <time>2022-07-30T09:24:14Z</time>
      </trkpt>
      <trkpt lat="43.14688" lon="5.93665">
        <ele>474.4</ele>
        <time>2022-07-30T09:24:30Z</time>
      </trkpt>
      <trkpt lat="43.14688" lon="5.93662">
        <ele>474.3</ele>
        <time>2022-07-30T09:24:34Z</time>
      </trkpt>
      <trkpt lat="43.14687" lon="5.93654">
        <ele>473.8</ele>
        <time>2022-07-30T09:24:41Z</time>
      </trkpt>
      <trkpt lat="43.14687" lon="5.93653">
        <ele>473.8</ele>
        <time>2022-07-30T09:24:42Z</time>
      </trkpt>
      <trkpt lat="43.1468" lon="5.93646">
        <ele>473.1</ele>
        <time>2022-07-30T09:24:51Z</time>
      </trkpt>
      <trkpt lat="43.14679" lon="5.93645">
        <ele>473.1</ele>
        <time>2022-07-30T09:24:52Z</time>
      </trkpt>
      <trkpt lat="43.14678" lon="5.93642">
        <ele>472.9</ele>
        <time>2022-07-30T09:24:56Z</time>
      </trkpt>
      <trkpt lat="43.14677" lon="5.93643">
        <ele>472.8</ele>
        <time>2022-07-30T09:25:02Z</time>
      </trkpt>
      <trkpt lat="43.14675" lon="5.9364">
        <ele>472.6</ele>
        <time>2022-07-30T09:25:09Z</time>
      </trkpt>
      <trkpt lat="43.14674" lon="5.93638">
        <ele>472.4</ele>
        <time>2022-07-30T09:25:11Z</time>
      </trkpt>
      <trkpt lat="43.14672" lon="5.93634">
        <ele>472.2</ele>
        <time>2022-07-30T09:25:14Z</time>
      </trkpt>
      <trkpt lat="43.14664" lon="5.93623">
        <ele>471.3</ele>
        <time>2022-07-30T09:25:24Z</time>
      </trkpt>
      <trkpt lat="43.14663" lon="5.93622">
        <ele>471.2</ele>
        <time>2022-07-30T09:25:25Z</time>
      </trkpt>
      <trkpt lat="43.14657" lon="5.9361">
        <ele>470.3</ele>
        <time>2022-07-30T09:25:37Z</time>
      </trkpt>
      <trkpt lat="43.14657" lon="5.93609">
        <ele>470.3</ele>
        <time>2022-07-30T09:25:38Z</time>
      </trkpt>
      <trkpt lat="43.14657" lon="5.93609">
        <ele>470.3</ele>
        <time>2022-07-30T09:25:39Z</time>
      </trkpt>
      <trkpt lat="43.14657" lon="5.93609">
        <ele>470.2</ele>
        <time>2022-07-30T09:25:52Z</time>
      </trkpt>
      <trkpt lat="43.14658" lon="5.93608">
        <ele>470.1</ele>
        <time>2022-07-30T09:26:11Z</time>
      </trkpt>
      <trkpt lat="43.14655" lon="5.93604">
        <ele>469.8</ele>
        <time>2022-07-30T09:26:28Z</time>
      </trkpt>
      <trkpt lat="43.14652" lon="5.93599">
        <ele>469.4</ele>
        <time>2022-07-30T09:26:39Z</time>
      </trkpt>
      <trkpt lat="43.14649" lon="5.93596">
        <ele>469.2</ele>
        <time>2022-07-30T09:26:42Z</time>
      </trkpt>
      <trkpt lat="43.14643" lon="5.93588">
        <ele>468.7</ele>
        <time>2022-07-30T09:26:49Z</time>
      </trkpt>
      <trkpt lat="43.14636" lon="5.93581">
        <ele>468.3</ele>
        <time>2022-07-30T09:26:59Z</time>
      </trkpt>
      <trkpt lat="43.14635" lon="5.93581">
        <ele>468.3</ele>
        <time>2022-07-30T09:27:01Z</time>
      </trkpt>
      <trkpt lat="43.14635" lon="5.93581">
        <ele>468.3</ele>
        <time>2022-07-30T09:27:02Z</time>
      </trkpt>
      <trkpt lat="43.14635" lon="5.93579">
        <ele>468.3</ele>
        <time>2022-07-30T09:27:07Z</time>
      </trkpt>
      <trkpt lat="43.14636" lon="5.93578">
        <ele>468.2</ele>
        <time>2022-07-30T09:27:12Z</time>
      </trkpt>
      <trkpt lat="43.14637" lon="5.93567">
        <ele>468</ele>
        <time>2022-07-30T09:27:25Z</time>
      </trkpt>
      <trkpt lat="43.14637" lon="5.93562">
        <ele>467.9</ele>
        <time>2022-07-30T09:27:32Z</time>
      </trkpt>
      <trkpt lat="43.14636" lon="5.93561">
        <ele>467.9</ele>
        <time>2022-07-30T09:27:36Z</time>
      </trkpt>
      <trkpt lat="43.14636" lon="5.93561">
        <ele>467.9</ele>
        <time>2022-07-30T09:27:54Z</time>
      </trkpt>
      <trkpt lat="43.14634" lon="5.93554">
        <ele>467.8</ele>
        <time>2022-07-30T09:28:04Z</time>
      </trkpt>
      <trkpt lat="43.14633" lon="5.93552">
        <ele>467.8</ele>
        <time>2022-07-30T09:28:05Z</time>
      </trkpt>
      <trkpt lat="43.14634" lon="5.93549">
        <ele>467.7</ele>
        <time>2022-07-30T09:28:16Z</time>
      </trkpt>
      <trkpt lat="43.14635" lon="5.93549">
        <ele>467.7</ele>
        <time>2022-07-30T09:28:34Z</time>
      </trkpt>
      <trkpt lat="43.14636" lon="5.93548">
        <ele>467.7</ele>
        <time>2022-07-30T09:28:54Z</time>
      </trkpt>
      <trkpt lat="43.14635" lon="5.93548">
        <ele>467.7</ele>
        <time>2022-07-30T09:29:13Z</time>
      </trkpt>
      <trkpt lat="43.14636" lon="5.93547">
        <ele>467.7</ele>
        <time>2022-07-30T09:29:32Z</time>
      </trkpt>
      <trkpt lat="43.14636" lon="5.93547">
        <ele>467.7</ele>
        <time>2022-07-30T09:29:33Z</time>
      </trkpt>
      <trkpt lat="43.14636" lon="5.93548">
        <ele>467.6</ele>
        <time>2022-07-30T09:29:46Z</time>
      </trkpt>
      <trkpt lat="43.14635" lon="5.9355">
        <ele>467.6</ele>
        <time>2022-07-30T09:30:07Z</time>
      </trkpt>
      <trkpt lat="43.14634" lon="5.93549">
        <ele>467.6</ele>
        <time>2022-07-30T09:30:25Z</time>
      </trkpt>
      <trkpt lat="43.14633" lon="5.93552">
        <ele>467.6</ele>
        <time>2022-07-30T09:30:40Z</time>
      </trkpt>
      <trkpt lat="43.14634" lon="5.93552">
        <ele>467.6</ele>
        <time>2022-07-30T09:30:43Z</time>
      </trkpt>
      <trkpt lat="43.1463" lon="5.93546">
        <ele>467.5</ele>
        <time>2022-07-30T09:30:56Z</time>
      </trkpt>
      <trkpt lat="43.1463" lon="5.93547">
        <ele>467.4</ele>
        <time>2022-07-30T09:31:18Z</time>
      </trkpt>
      <trkpt lat="43.14631" lon="5.93548">
        <ele>467.4</ele>
        <time>2022-07-30T09:31:32Z</time>
      </trkpt>
      <trkpt lat="43.14629" lon="5.93546">
        <ele>467.4</ele>
        <time>2022-07-30T09:31:50Z</time>
      </trkpt>
      <trkpt lat="43.1463" lon="5.93547">
        <ele>467.4</ele>
        <time>2022-07-30T09:32:08Z</time>
      </trkpt>
      <trkpt lat="43.14629" lon="5.93546">
        <ele>467.3</ele>
        <time>2022-07-30T09:32:16Z</time>
      </trkpt>
      <trkpt lat="43.1463" lon="5.93546">
        <ele>467.3</ele>
        <time>2022-07-30T09:32:28Z</time>
      </trkpt>
      <trkpt lat="43.14631" lon="5.93545">
        <ele>467.3</ele>
        <time>2022-07-30T09:32:45Z</time>
      </trkpt>
      <trkpt lat="43.14631" lon="5.9354">
        <ele>467.2</ele>
        <time>2022-07-30T09:33:03Z</time>
      </trkpt>
      <trkpt lat="43.14635" lon="5.93542">
        <ele>467.2</ele>
        <time>2022-07-30T09:33:19Z</time>
      </trkpt>
      <trkpt lat="43.14634" lon="5.93544">
        <ele>467.1</ele>
        <time>2022-07-30T09:33:36Z</time>
      </trkpt>
      <trkpt lat="43.14633" lon="5.93545">
        <ele>467.1</ele>
        <time>2022-07-30T09:33:40Z</time>
      </trkpt>
      <trkpt lat="43.14632" lon="5.93546">
        <ele>467</ele>
        <time>2022-07-30T09:33:43Z</time>
      </trkpt>
      <trkpt lat="43.14629" lon="5.93548">
        <ele>467</ele>
        <time>2022-07-30T09:33:53Z</time>
      </trkpt>
      <trkpt lat="43.14628" lon="5.93547">
        <ele>466.9</ele>
        <time>2022-07-30T09:34:13Z</time>
      </trkpt>
      <trkpt lat="43.14628" lon="5.93547">
        <ele>466.9</ele>
        <time>2022-07-30T09:34:20Z</time>
      </trkpt>
      <trkpt lat="43.14629" lon="5.93547">
        <ele>466.9</ele>
        <time>2022-07-30T09:34:34Z</time>
      </trkpt>
      <trkpt lat="43.14628" lon="5.93547">
        <ele>466.9</ele>
        <time>2022-07-30T09:34:47Z</time>
      </trkpt>
      <trkpt lat="43.14626" lon="5.93554">
        <ele>466.8</ele>
        <time>2022-07-30T09:34:58Z</time>
      </trkpt>
      <trkpt lat="43.14626" lon="5.93558">
        <ele>466.7</ele>
        <time>2022-07-30T09:35:03Z</time>
      </trkpt>
      <trkpt lat="43.14626" lon="5.9356">
        <ele>466.7</ele>
        <time>2022-07-30T09:35:05Z</time>
      </trkpt>
      <trkpt lat="43.14626" lon="5.93562">
        <ele>466.6</ele>
        <time>2022-07-30T09:35:07Z</time>
      </trkpt>
      <trkpt lat="43.14625" lon="5.93563">
        <ele>466.6</ele>
        <time>2022-07-30T09:35:10Z</time>
      </trkpt>
      <trkpt lat="43.14623" lon="5.93563">
        <ele>466.5</ele>
        <time>2022-07-30T09:35:17Z</time>
      </trkpt>
      <trkpt lat="43.14621" lon="5.93563">
        <ele>466.5</ele>
        <time>2022-07-30T09:35:19Z</time>
      </trkpt>
      <trkpt lat="43.14619" lon="5.93562">
        <ele>466.4</ele>
        <time>2022-07-30T09:35:21Z</time>
      </trkpt>
      <trkpt lat="43.14608" lon="5.93554">
        <ele>466.2</ele>
        <time>2022-07-30T09:35:35Z</time>
      </trkpt>
      <trkpt lat="43.14598" lon="5.93542">
        <ele>466.2</ele>
        <time>2022-07-30T09:35:50Z</time>
      </trkpt>
      <trkpt lat="43.14583" lon="5.93532">
        <ele>466.4</ele>
        <time>2022-07-30T09:36:06Z</time>
      </trkpt>
      <trkpt lat="43.14572" lon="5.93517">
        <ele>466.7</ele>
        <time>2022-07-30T09:36:20Z</time>
      </trkpt>
      <trkpt lat="43.14568" lon="5.93506">
        <ele>463.4</ele>
        <time>2022-07-30T09:36:29Z</time>
      </trkpt>
      <trkpt lat="43.14568" lon="5.93506">
        <ele>463.4</ele>
        <time>2022-07-30T09:36:30Z</time>
      </trkpt>
      <trkpt lat="43.14567" lon="5.93505">
        <ele>463.4</ele>
        <time>2022-07-30T09:36:31Z</time>
      </trkpt>
      <trkpt lat="43.14566" lon="5.93504">
        <ele>463.3</ele>
        <time>2022-07-30T09:36:37Z</time>
      </trkpt>
      <trkpt lat="43.14565" lon="5.93502">
        <ele>463.2</ele>
        <time>2022-07-30T09:36:42Z</time>
      </trkpt>
      <trkpt lat="43.14562" lon="5.93497">
        <ele>462.9</ele>
        <time>2022-07-30T09:36:52Z</time>
      </trkpt>
      <trkpt lat="43.14562" lon="5.93497">
        <ele>462.9</ele>
        <time>2022-07-30T09:36:53Z</time>
      </trkpt>
      <trkpt lat="43.14562" lon="5.93496">
        <ele>462.8</ele>
        <time>2022-07-30T09:36:56Z</time>
      </trkpt>
      <trkpt lat="43.14562" lon="5.93496">
        <ele>462.8</ele>
        <time>2022-07-30T09:37:04Z</time>
      </trkpt>
      <trkpt lat="43.14562" lon="5.93496">
        <ele>462.8</ele>
        <time>2022-07-30T09:37:21Z</time>
      </trkpt>
      <trkpt lat="43.14561" lon="5.93496">
        <ele>462.8</ele>
        <time>2022-07-30T09:37:31Z</time>
      </trkpt>
      <trkpt lat="43.14561" lon="5.93497">
        <ele>462.7</ele>
        <time>2022-07-30T09:37:39Z</time>
      </trkpt>
      <trkpt lat="43.14561" lon="5.93498">
        <ele>462.7</ele>
        <time>2022-07-30T09:37:59Z</time>
      </trkpt>
      <trkpt lat="43.14562" lon="5.93497">
        <ele>462.7</ele>
        <time>2022-07-30T09:38:11Z</time>
      </trkpt>
      <trkpt lat="43.14562" lon="5.93498">
        <ele>462.7</ele>
        <time>2022-07-30T09:38:22Z</time>
      </trkpt>
      <trkpt lat="43.14562" lon="5.93498">
        <ele>462.6</ele>
        <time>2022-07-30T09:38:29Z</time>
      </trkpt>
      <trkpt lat="43.14562" lon="5.93498">
        <ele>462.6</ele>
        <time>2022-07-30T09:38:51Z</time>
      </trkpt>
      <trkpt lat="43.14562" lon="5.93498">
        <ele>462.6</ele>
        <time>2022-07-30T09:38:59Z</time>
      </trkpt>
      <trkpt lat="43.14562" lon="5.93498">
        <ele>462.6</ele>
        <time>2022-07-30T09:39:13Z</time>
      </trkpt>
      <trkpt lat="43.14561" lon="5.93497">
        <ele>462.6</ele>
        <time>2022-07-30T09:39:27Z</time>
      </trkpt>
      <trkpt lat="43.14562" lon="5.935">
        <ele>462.5</ele>
        <time>2022-07-30T09:39:48Z</time>
      </trkpt>
      <trkpt lat="43.14562" lon="5.935">
        <ele>462.4</ele>
        <time>2022-07-30T09:39:56Z</time>
      </trkpt>
      <trkpt lat="43.14562" lon="5.93499">
        <ele>462.4</ele>
        <time>2022-07-30T09:40:11Z</time>
      </trkpt>
      <trkpt lat="43.14562" lon="5.93499">
        <ele>462.4</ele>
        <time>2022-07-30T09:40:44Z</time>
      </trkpt>
      <trkpt lat="43.14562" lon="5.93498">
        <ele>462.4</ele>
        <time>2022-07-30T09:40:56Z</time>
      </trkpt>
      <trkpt lat="43.14562" lon="5.93498">
        <ele>462.4</ele>
        <time>2022-07-30T09:40:58Z</time>
      </trkpt>
      <trkpt lat="43.14562" lon="5.93497">
        <ele>462.3</ele>
        <time>2022-07-30T09:41:15Z</time>
      </trkpt>
      <trkpt lat="43.14561" lon="5.93497">
        <ele>462.2</ele>
        <time>2022-07-30T09:41:20Z</time>
      </trkpt>
      <trkpt lat="43.14562" lon="5.93498">
        <ele>462.2</ele>
        <time>2022-07-30T09:41:35Z</time>
      </trkpt>
      <trkpt lat="43.14563" lon="5.93498">
        <ele>462.1</ele>
        <time>2022-07-30T09:41:58Z</time>
      </trkpt>
      <trkpt lat="43.14564" lon="5.93499">
        <ele>462.1</ele>
        <time>2022-07-30T09:42:17Z</time>
      </trkpt>
      <trkpt lat="43.14564" lon="5.93499">
        <ele>462.1</ele>
        <time>2022-07-30T09:42:38Z</time>
      </trkpt>
      <trkpt lat="43.14563" lon="5.93499">
        <ele>462</ele>
        <time>2022-07-30T09:42:43Z</time>
      </trkpt>
      <trkpt lat="43.14563" lon="5.93499">
        <ele>462</ele>
        <time>2022-07-30T09:42:54Z</time>
      </trkpt>
      <trkpt lat="43.14563" lon="5.93499">
        <ele>462</ele>
        <time>2022-07-30T09:43:14Z</time>
      </trkpt>
      <trkpt lat="43.14563" lon="5.93499">
        <ele>462</ele>
        <time>2022-07-30T09:43:46Z</time>
      </trkpt>
      <trkpt lat="43.14564" lon="5.935">
        <ele>461.9</ele>
        <time>2022-07-30T09:44:22Z</time>
      </trkpt>
      <trkpt lat="43.14564" lon="5.93501">
        <ele>461.8</ele>
        <time>2022-07-30T09:44:23Z</time>
      </trkpt>
      <trkpt lat="43.14564" lon="5.93502">
        <ele>461.8</ele>
        <time>2022-07-30T09:44:31Z</time>
      </trkpt>
      <trkpt lat="43.14564" lon="5.93501">
        <ele>461.8</ele>
        <time>2022-07-30T09:44:32Z</time>
      </trkpt>
      <trkpt lat="43.14563" lon="5.935">
        <ele>461.7</ele>
        <time>2022-07-30T09:44:50Z</time>
      </trkpt>
      <trkpt lat="43.14562" lon="5.935">
        <ele>461.7</ele>
        <time>2022-07-30T09:45:09Z</time>
      </trkpt>
      <trkpt lat="43.14562" lon="5.93501">
        <ele>461.6</ele>
        <time>2022-07-30T09:45:27Z</time>
      </trkpt>
      <trkpt lat="43.14562" lon="5.93502">
        <ele>461.6</ele>
        <time>2022-07-30T09:45:31Z</time>
      </trkpt>
      <trkpt lat="43.14562" lon="5.935">
        <ele>461.5</ele>
        <time>2022-07-30T09:45:35Z</time>
      </trkpt>
      <trkpt lat="43.14561" lon="5.93498">
        <ele>461.4</ele>
        <time>2022-07-30T09:45:49Z</time>
      </trkpt>
      <trkpt lat="43.14562" lon="5.935">
        <ele>461.3</ele>
        <time>2022-07-30T09:46:07Z</time>
      </trkpt>
      <trkpt lat="43.14565" lon="5.935">
        <ele>461.1</ele>
        <time>2022-07-30T09:46:18Z</time>
      </trkpt>
      <trkpt lat="43.14566" lon="5.93499">
        <ele>461</ele>
        <time>2022-07-30T09:46:29Z</time>
      </trkpt>
      <trkpt lat="43.14566" lon="5.93499">
        <ele>461</ele>
        <time>2022-07-30T09:46:31Z</time>
      </trkpt>
      <trkpt lat="43.14567" lon="5.93506">
        <ele>460.6</ele>
        <time>2022-07-30T09:46:39Z</time>
      </trkpt>
      <trkpt lat="43.14566" lon="5.9351">
        <ele>466.7</ele>
        <time>2022-07-30T09:46:51Z</time>
      </trkpt>
      <trkpt lat="43.14568" lon="5.93511">
        <ele>466.7</ele>
        <time>2022-07-30T09:47:03Z</time>
      </trkpt>
      <trkpt lat="43.14569" lon="5.93513">
        <ele>466.7</ele>
        <time>2022-07-30T09:47:05Z</time>
      </trkpt>
      <trkpt lat="43.14572" lon="5.93514">
        <ele>466.7</ele>
        <time>2022-07-30T09:47:10Z</time>
      </trkpt>
      <trkpt lat="43.14569" lon="5.93514">
        <ele>466.7</ele>
        <time>2022-07-30T09:47:15Z</time>
      </trkpt>
      <trkpt lat="43.14566" lon="5.93514">
        <ele>466.7</ele>
        <time>2022-07-30T09:47:25Z</time>
      </trkpt>
      <trkpt lat="43.1457" lon="5.93512">
        <ele>466.7</ele>
        <time>2022-07-30T09:47:30Z</time>
      </trkpt>
      <trkpt lat="43.14572" lon="5.93512">
        <ele>466.7</ele>
        <time>2022-07-30T09:47:34Z</time>
      </trkpt>
      <trkpt lat="43.14573" lon="5.93513">
        <ele>466.7</ele>
        <time>2022-07-30T09:47:40Z</time>
      </trkpt>
      <trkpt lat="43.14574" lon="5.93513">
        <ele>466.7</ele>
        <time>2022-07-30T09:47:47Z</time>
      </trkpt>
      <trkpt lat="43.14574" lon="5.93511">
        <ele>466.7</ele>
        <time>2022-07-30T09:48:03Z</time>
      </trkpt>
      <trkpt lat="43.14575" lon="5.9351">
        <ele>466.7</ele>
        <time>2022-07-30T09:48:16Z</time>
      </trkpt>
      <trkpt lat="43.14575" lon="5.9351">
        <ele>466.7</ele>
        <time>2022-07-30T09:48:20Z</time>
      </trkpt>
      <trkpt lat="43.14575" lon="5.93511">
        <ele>466.7</ele>
        <time>2022-07-30T09:48:25Z</time>
      </trkpt>
      <trkpt lat="43.14574" lon="5.93511">
        <ele>466.7</ele>
        <time>2022-07-30T09:48:34Z</time>
      </trkpt>
      <trkpt lat="43.14573" lon="5.9351">
        <ele>466.7</ele>
        <time>2022-07-30T09:48:47Z</time>
      </trkpt>
      <trkpt lat="43.14573" lon="5.93511">
        <ele>466.7</ele>
        <time>2022-07-30T09:49:04Z</time>
      </trkpt>
      <trkpt lat="43.14575" lon="5.93511">
        <ele>466.7</ele>
        <time>2022-07-30T09:49:16Z</time>
      </trkpt>
      <trkpt lat="43.14575" lon="5.93511">
        <ele>466.7</ele>
        <time>2022-07-30T09:49:19Z</time>
      </trkpt>
      <trkpt lat="43.14576" lon="5.93512">
        <ele>466.7</ele>
        <time>2022-07-30T09:49:39Z</time>
      </trkpt>
      <trkpt lat="43.1457" lon="5.93514">
        <ele>466.7</ele>
        <time>2022-07-30T09:49:47Z</time>
      </trkpt>
      <trkpt lat="43.14569" lon="5.93515">
        <ele>466.7</ele>
        <time>2022-07-30T09:49:48Z</time>
      </trkpt>
      <trkpt lat="43.14564" lon="5.93517">
        <ele>466.7</ele>
        <time>2022-07-30T09:49:55Z</time>
      </trkpt>
      <trkpt lat="43.14562" lon="5.93519">
        <ele>466.6</ele>
        <time>2022-07-30T09:49:59Z</time>
      </trkpt>
      <trkpt lat="43.14561" lon="5.9352">
        <ele>466.6</ele>
        <time>2022-07-30T09:50:01Z</time>
      </trkpt>
      <trkpt lat="43.14561" lon="5.93521">
        <ele>466.6</ele>
        <time>2022-07-30T09:50:02Z</time>
      </trkpt>
      <trkpt lat="43.14558" lon="5.93521">
        <ele>466.6</ele>
        <time>2022-07-30T09:50:13Z</time>
      </trkpt>
      <trkpt lat="43.1456" lon="5.93516">
        <ele>466.5</ele>
        <time>2022-07-30T09:50:25Z</time>
      </trkpt>
      <trkpt lat="43.14567" lon="5.93515">
        <ele>466.4</ele>
        <time>2022-07-30T09:50:36Z</time>
      </trkpt>
      <trkpt lat="43.14569" lon="5.93515">
        <ele>466.3</ele>
        <time>2022-07-30T09:50:48Z</time>
      </trkpt>
      <trkpt lat="43.1457" lon="5.93515">
        <ele>466.3</ele>
        <time>2022-07-30T09:50:53Z</time>
      </trkpt>
      <trkpt lat="43.14573" lon="5.93513">
        <ele>466.3</ele>
        <time>2022-07-30T09:51:05Z</time>
      </trkpt>
      <trkpt lat="43.14574" lon="5.93512">
        <ele>466.3</ele>
        <time>2022-07-30T09:51:10Z</time>
      </trkpt>
      <trkpt lat="43.14573" lon="5.93511">
        <ele>466.3</ele>
        <time>2022-07-30T09:51:20Z</time>
      </trkpt>
      <trkpt lat="43.14576" lon="5.93512">
        <ele>466.2</ele>
        <time>2022-07-30T09:51:35Z</time>
      </trkpt>
      <trkpt lat="43.14577" lon="5.93512">
        <ele>466.2</ele>
        <time>2022-07-30T09:51:38Z</time>
      </trkpt>
      <trkpt lat="43.14579" lon="5.93511">
        <ele>466.2</ele>
        <time>2022-07-30T09:51:53Z</time>
      </trkpt>
      <trkpt lat="43.14578" lon="5.93509">
        <ele>466.2</ele>
        <time>2022-07-30T09:52:03Z</time>
      </trkpt>
      <trkpt lat="43.14577" lon="5.93511">
        <ele>466.2</ele>
        <time>2022-07-30T09:52:12Z</time>
      </trkpt>
      <trkpt lat="43.14577" lon="5.9351">
        <ele>466.2</ele>
        <time>2022-07-30T09:52:25Z</time>
      </trkpt>
      <trkpt lat="43.14574" lon="5.9351">
        <ele>466.2</ele>
        <time>2022-07-30T09:52:39Z</time>
      </trkpt>
      <trkpt lat="43.14573" lon="5.9351">
        <ele>466.2</ele>
        <time>2022-07-30T09:52:40Z</time>
      </trkpt>
      <trkpt lat="43.14572" lon="5.9351">
        <ele>466.2</ele>
        <time>2022-07-30T09:52:44Z</time>
      </trkpt>
      <trkpt lat="43.14574" lon="5.93515">
        <ele>466.2</ele>
        <time>2022-07-30T10:42:31Z</time>
      </trkpt>
      <trkpt lat="43.14575" lon="5.93514">
        <ele>466.2</ele>
        <time>2022-07-30T10:42:37Z</time>
      </trkpt>
      <trkpt lat="43.14577" lon="5.93511">
        <ele>466.2</ele>
        <time>2022-07-30T10:42:44Z</time>
      </trkpt>
      <trkpt lat="43.14578" lon="5.93511">
        <ele>466.2</ele>
        <time>2022-07-30T10:42:46Z</time>
      </trkpt>
      <trkpt lat="43.14578" lon="5.93509">
        <ele>466.2</ele>
        <time>2022-07-30T10:42:51Z</time>
      </trkpt>
      <trkpt lat="43.14577" lon="5.93509">
        <ele>466.2</ele>
        <time>2022-07-30T10:43:05Z</time>
      </trkpt>
      <trkpt lat="43.14577" lon="5.93509">
        <ele>466.2</ele>
        <time>2022-07-30T10:43:08Z</time>
      </trkpt>
      <trkpt lat="43.14578" lon="5.93509">
        <ele>466.3</ele>
        <time>2022-07-30T10:43:22Z</time>
      </trkpt>
      <trkpt lat="43.14578" lon="5.9351">
        <ele>466.3</ele>
        <time>2022-07-30T10:43:37Z</time>
      </trkpt>
      <trkpt lat="43.1458" lon="5.93509">
        <ele>466.3</ele>
        <time>2022-07-30T10:43:45Z</time>
      </trkpt>
      <trkpt lat="43.14579" lon="5.9351">
        <ele>466.3</ele>
        <time>2022-07-30T10:43:51Z</time>
      </trkpt>
      <trkpt lat="43.14579" lon="5.93512">
        <ele>466.3</ele>
        <time>2022-07-30T10:43:58Z</time>
      </trkpt>
      <trkpt lat="43.14583" lon="5.93514">
        <ele>466.4</ele>
        <time>2022-07-30T10:44:07Z</time>
      </trkpt>
      <trkpt lat="43.1458" lon="5.93514">
        <ele>466.5</ele>
        <time>2022-07-30T10:44:15Z</time>
      </trkpt>
      <trkpt lat="43.14577" lon="5.93514">
        <ele>466.6</ele>
        <time>2022-07-30T10:44:22Z</time>
      </trkpt>
      <trkpt lat="43.14577" lon="5.93513">
        <ele>466.6</ele>
        <time>2022-07-30T10:44:30Z</time>
      </trkpt>
      <trkpt lat="43.14577" lon="5.93513">
        <ele>466.6</ele>
        <time>2022-07-30T10:44:39Z</time>
      </trkpt>
      <trkpt lat="43.14577" lon="5.93513">
        <ele>466.6</ele>
        <time>2022-07-30T10:44:47Z</time>
      </trkpt>
      <trkpt lat="43.14574" lon="5.93513">
        <ele>466.7</ele>
        <time>2022-07-30T10:44:54Z</time>
      </trkpt>
      <trkpt lat="43.14574" lon="5.93513">
        <ele>466.7</ele>
        <time>2022-07-30T10:44:56Z</time>
      </trkpt>
      <trkpt lat="43.14573" lon="5.93512">
        <ele>466.7</ele>
        <time>2022-07-30T10:44:59Z</time>
      </trkpt>
      <trkpt lat="43.14572" lon="5.93513">
        <ele>466.7</ele>
        <time>2022-07-30T10:45:06Z</time>
      </trkpt>
      <trkpt lat="43.14572" lon="5.93513">
        <ele>466.8</ele>
        <time>2022-07-30T10:45:18Z</time>
      </trkpt>
      <trkpt lat="43.14574" lon="5.93514">
        <ele>466.8</ele>
        <time>2022-07-30T10:45:28Z</time>
      </trkpt>
      <trkpt lat="43.14576" lon="5.93513">
        <ele>466.9</ele>
        <time>2022-07-30T10:45:33Z</time>
      </trkpt>
      <trkpt lat="43.14574" lon="5.93512">
        <ele>466.9</ele>
        <time>2022-07-30T10:45:38Z</time>
      </trkpt>
      <trkpt lat="43.14571" lon="5.93509">
        <ele>467</ele>
        <time>2022-07-30T10:45:48Z</time>
      </trkpt>
      <trkpt lat="43.14576" lon="5.93513">
        <ele>467.1</ele>
        <time>2022-07-30T10:45:57Z</time>
      </trkpt>
      <trkpt lat="43.14577" lon="5.93513">
        <ele>467.1</ele>
        <time>2022-07-30T10:46:17Z</time>
      </trkpt>
      <trkpt lat="43.14577" lon="5.93513">
        <ele>467.1</ele>
        <time>2022-07-30T10:46:37Z</time>
      </trkpt>
      <trkpt lat="43.14577" lon="5.93514">
        <ele>467.2</ele>
        <time>2022-07-30T10:46:48Z</time>
      </trkpt>
      <trkpt lat="43.14577" lon="5.93514">
        <ele>467.2</ele>
        <time>2022-07-30T10:46:49Z</time>
      </trkpt>
      <trkpt lat="43.14579" lon="5.93515">
        <ele>467.2</ele>
        <time>2022-07-30T10:47:04Z</time>
      </trkpt>
      <trkpt lat="43.14579" lon="5.93515">
        <ele>467.2</ele>
        <time>2022-07-30T10:47:18Z</time>
      </trkpt>
      <trkpt lat="43.14578" lon="5.93521">
        <ele>467.3</ele>
        <time>2022-07-30T10:47:26Z</time>
      </trkpt>
      <trkpt lat="43.14578" lon="5.93525">
        <ele>467.3</ele>
        <time>2022-07-30T10:47:31Z</time>
      </trkpt>
      <trkpt lat="43.14579" lon="5.93528">
        <ele>467.4</ele>
        <time>2022-07-30T10:47:34Z</time>
      </trkpt>
      <trkpt lat="43.1458" lon="5.93528">
        <ele>467.4</ele>
        <time>2022-07-30T10:47:35Z</time>
      </trkpt>
      <trkpt lat="43.14582" lon="5.9353">
        <ele>467.4</ele>
        <time>2022-07-30T10:47:38Z</time>
      </trkpt>
      <trkpt lat="43.14585" lon="5.93532">
        <ele>467.5</ele>
        <time>2022-07-30T10:47:42Z</time>
      </trkpt>
      <trkpt lat="43.14588" lon="5.93535">
        <ele>467.5</ele>
        <time>2022-07-30T10:47:47Z</time>
      </trkpt>
      <trkpt lat="43.14591" lon="5.93536">
        <ele>467.6</ele>
        <time>2022-07-30T10:47:51Z</time>
      </trkpt>
      <trkpt lat="43.14591" lon="5.93537">
        <ele>467.6</ele>
        <time>2022-07-30T10:47:52Z</time>
      </trkpt>
      <trkpt lat="43.14592" lon="5.93539">
        <ele>467.6</ele>
        <time>2022-07-30T10:47:54Z</time>
      </trkpt>
      <trkpt lat="43.14593" lon="5.93541">
        <ele>467.6</ele>
        <time>2022-07-30T10:47:56Z</time>
      </trkpt>
      <trkpt lat="43.14596" lon="5.93544">
        <ele>467.7</ele>
        <time>2022-07-30T10:47:59Z</time>
      </trkpt>
      <trkpt lat="43.14598" lon="5.93546">
        <ele>467.7</ele>
        <time>2022-07-30T10:48:03Z</time>
      </trkpt>
      <trkpt lat="43.14599" lon="5.93546">
        <ele>467.8</ele>
        <time>2022-07-30T10:48:05Z</time>
      </trkpt>
      <trkpt lat="43.14601" lon="5.93546">
        <ele>467.8</ele>
        <time>2022-07-30T10:48:07Z</time>
      </trkpt>
      <trkpt lat="43.14605" lon="5.93547">
        <ele>467.8</ele>
        <time>2022-07-30T10:48:11Z</time>
      </trkpt>
      <trkpt lat="43.14606" lon="5.93549">
        <ele>467.9</ele>
        <time>2022-07-30T10:48:13Z</time>
      </trkpt>
      <trkpt lat="43.14616" lon="5.93562">
        <ele>468.1</ele>
        <time>2022-07-30T10:48:28Z</time>
      </trkpt>
      <trkpt lat="43.1463" lon="5.9357">
        <ele>468.6</ele>
        <time>2022-07-30T10:48:42Z</time>
      </trkpt>
      <trkpt lat="43.14638" lon="5.93582">
        <ele>469.3</ele>
        <time>2022-07-30T10:48:55Z</time>
      </trkpt>
      <trkpt lat="43.14648" lon="5.93593">
        <ele>470.1</ele>
        <time>2022-07-30T10:49:05Z</time>
      </trkpt>
      <trkpt lat="43.14649" lon="5.93597">
        <ele>470.3</ele>
        <time>2022-07-30T10:49:08Z</time>
      </trkpt>
      <trkpt lat="43.14657" lon="5.93611">
        <ele>471.3</ele>
        <time>2022-07-30T10:49:20Z</time>
      </trkpt>
      <trkpt lat="43.14667" lon="5.93627">
        <ele>472.4</ele>
        <time>2022-07-30T10:49:33Z</time>
      </trkpt>
      <trkpt lat="43.14669" lon="5.93631">
        <ele>472.6</ele>
        <time>2022-07-30T10:49:36Z</time>
      </trkpt>
      <trkpt lat="43.14677" lon="5.93642">
        <ele>473.3</ele>
        <time>2022-07-30T10:49:46Z</time>
      </trkpt>
      <trkpt lat="43.1468" lon="5.93651">
        <ele>473.8</ele>
        <time>2022-07-30T10:49:57Z</time>
      </trkpt>
      <trkpt lat="43.1468" lon="5.93651">
        <ele>473.9</ele>
        <time>2022-07-30T10:49:58Z</time>
      </trkpt>
      <trkpt lat="43.1468" lon="5.93651">
        <ele>473.9</ele>
        <time>2022-07-30T10:50:13Z</time>
      </trkpt>
      <trkpt lat="43.14678" lon="5.93648">
        <ele>474.1</ele>
        <time>2022-07-30T10:50:23Z</time>
      </trkpt>
      <trkpt lat="43.14676" lon="5.93645">
        <ele>474.3</ele>
        <time>2022-07-30T10:50:36Z</time>
      </trkpt>
      <trkpt lat="43.14676" lon="5.93647">
        <ele>474.5</ele>
        <time>2022-07-30T10:50:53Z</time>
      </trkpt>
      <trkpt lat="43.14678" lon="5.93651">
        <ele>474.7</ele>
        <time>2022-07-30T10:51:09Z</time>
      </trkpt>
      <trkpt lat="43.14675" lon="5.93651">
        <ele>475</ele>
        <time>2022-07-30T10:51:26Z</time>
      </trkpt>
      <trkpt lat="43.14682" lon="5.93653">
        <ele>475.6</ele>
        <time>2022-07-30T10:51:41Z</time>
      </trkpt>
      <trkpt lat="43.14685" lon="5.93656">
        <ele>475.9</ele>
        <time>2022-07-30T10:51:44Z</time>
      </trkpt>
      <trkpt lat="43.14686" lon="5.93658">
        <ele>476.1</ele>
        <time>2022-07-30T10:51:46Z</time>
      </trkpt>
      <trkpt lat="43.14686" lon="5.9366">
        <ele>476.2</ele>
        <time>2022-07-30T10:51:48Z</time>
      </trkpt>
      <trkpt lat="43.14687" lon="5.93662">
        <ele>476.4</ele>
        <time>2022-07-30T10:51:50Z</time>
      </trkpt>
      <trkpt lat="43.14687" lon="5.93664">
        <ele>476.5</ele>
        <time>2022-07-30T10:51:52Z</time>
      </trkpt>
      <trkpt lat="43.14688" lon="5.93666">
        <ele>476.6</ele>
        <time>2022-07-30T10:51:53Z</time>
      </trkpt>
      <trkpt lat="43.14693" lon="5.93679">
        <ele>477.7</ele>
        <time>2022-07-30T10:52:05Z</time>
      </trkpt>
      <trkpt lat="43.14696" lon="5.93683">
        <ele>478.1</ele>
        <time>2022-07-30T10:52:10Z</time>
      </trkpt>
      <trkpt lat="43.14701" lon="5.93687">
        <ele>478.5</ele>
        <time>2022-07-30T10:52:15Z</time>
      </trkpt>
      <trkpt lat="43.14703" lon="5.9369">
        <ele>478.8</ele>
        <time>2022-07-30T10:52:19Z</time>
      </trkpt>
      <trkpt lat="43.14704" lon="5.93691">
        <ele>478.9</ele>
        <time>2022-07-30T10:52:21Z</time>
      </trkpt>
      <trkpt lat="43.14713" lon="5.937">
        <ele>479.9</ele>
        <time>2022-07-30T10:52:32Z</time>
      </trkpt>
      <trkpt lat="43.14715" lon="5.93701">
        <ele>480.1</ele>
        <time>2022-07-30T10:52:34Z</time>
      </trkpt>
      <trkpt lat="43.14722" lon="5.93703">
        <ele>480.8</ele>
        <time>2022-07-30T10:52:41Z</time>
      </trkpt>
      <trkpt lat="43.14723" lon="5.93703">
        <ele>480.9</ele>
        <time>2022-07-30T10:52:42Z</time>
      </trkpt>
      <trkpt lat="43.14732" lon="5.93704">
        <ele>481.8</ele>
        <time>2022-07-30T10:52:50Z</time>
      </trkpt>
      <trkpt lat="43.14733" lon="5.93704">
        <ele>481.9</ele>
        <time>2022-07-30T10:52:51Z</time>
      </trkpt>
      <trkpt lat="43.14738" lon="5.93706">
        <ele>482.5</ele>
        <time>2022-07-30T10:52:57Z</time>
      </trkpt>
      <trkpt lat="43.14748" lon="5.93711">
        <ele>483.5</ele>
        <time>2022-07-30T10:53:07Z</time>
      </trkpt>
      <trkpt lat="43.1475" lon="5.93712">
        <ele>483.7</ele>
        <time>2022-07-30T10:53:10Z</time>
      </trkpt>
      <trkpt lat="43.14756" lon="5.93715">
        <ele>484.4</ele>
        <time>2022-07-30T10:53:18Z</time>
      </trkpt>
      <trkpt lat="43.14758" lon="5.93716">
        <ele>484.5</ele>
        <time>2022-07-30T10:53:22Z</time>
      </trkpt>
      <trkpt lat="43.1476" lon="5.93719">
        <ele>484.8</ele>
        <time>2022-07-30T10:53:26Z</time>
      </trkpt>
      <trkpt lat="43.1476" lon="5.93721">
        <ele>485</ele>
        <time>2022-07-30T10:53:28Z</time>
      </trkpt>
      <trkpt lat="43.14762" lon="5.93727">
        <ele>485.4</ele>
        <time>2022-07-30T10:53:34Z</time>
      </trkpt>
      <trkpt lat="43.14763" lon="5.93727">
        <ele>485.5</ele>
        <time>2022-07-30T10:53:35Z</time>
      </trkpt>
      <trkpt lat="43.14764" lon="5.93728">
        <ele>485.5</ele>
        <time>2022-07-30T10:53:36Z</time>
      </trkpt>
      <trkpt lat="43.14764" lon="5.93729">
        <ele>485.6</ele>
        <time>2022-07-30T10:53:37Z</time>
      </trkpt>
      <trkpt lat="43.14765" lon="5.93731">
        <ele>485.8</ele>
        <time>2022-07-30T10:53:39Z</time>
      </trkpt>
      <trkpt lat="43.14766" lon="5.93733">
        <ele>485.9</ele>
        <time>2022-07-30T10:53:41Z</time>
      </trkpt>
      <trkpt lat="43.14766" lon="5.93734">
        <ele>485.9</ele>
        <time>2022-07-30T10:53:42Z</time>
      </trkpt>
      <trkpt lat="43.14768" lon="5.93736">
        <ele>486.1</ele>
        <time>2022-07-30T10:53:46Z</time>
      </trkpt>
      <trkpt lat="43.14769" lon="5.93737">
        <ele>486.2</ele>
        <time>2022-07-30T10:53:48Z</time>
      </trkpt>
      <trkpt lat="43.1477" lon="5.93738">
        <ele>486.3</ele>
        <time>2022-07-30T10:53:50Z</time>
      </trkpt>
      <trkpt lat="43.14771" lon="5.93739">
        <ele>486.4</ele>
        <time>2022-07-30T10:53:52Z</time>
      </trkpt>
      <trkpt lat="43.14772" lon="5.9374">
        <ele>486.6</ele>
        <time>2022-07-30T10:53:54Z</time>
      </trkpt>
      <trkpt lat="43.14774" lon="5.93741">
        <ele>486.7</ele>
        <time>2022-07-30T10:53:56Z</time>
      </trkpt>
      <trkpt lat="43.14776" lon="5.93743">
        <ele>486.9</ele>
        <time>2022-07-30T10:54:06Z</time>
      </trkpt>
      <trkpt lat="43.14777" lon="5.93743">
        <ele>486.9</ele>
        <time>2022-07-30T10:54:10Z</time>
      </trkpt>
      <trkpt lat="43.14783" lon="5.93748">
        <ele>487.4</ele>
        <time>2022-07-30T10:54:21Z</time>
      </trkpt>
      <trkpt lat="43.14787" lon="5.93749">
        <ele>487.6</ele>
        <time>2022-07-30T10:54:24Z</time>
      </trkpt>
      <trkpt lat="43.1479" lon="5.9375">
        <ele>487.8</ele>
        <time>2022-07-30T10:54:27Z</time>
      </trkpt>
      <trkpt lat="43.14791" lon="5.93751">
        <ele>487.8</ele>
        <time>2022-07-30T10:54:28Z</time>
      </trkpt>
      <trkpt lat="43.148" lon="5.93753">
        <ele>488.3</ele>
        <time>2022-07-30T10:54:36Z</time>
      </trkpt>
      <trkpt lat="43.14811" lon="5.93758">
        <ele>489</ele>
        <time>2022-07-30T10:54:49Z</time>
      </trkpt>
      <trkpt lat="43.14812" lon="5.93757">
        <ele>489</ele>
        <time>2022-07-30T10:54:50Z</time>
      </trkpt>
      <trkpt lat="43.14818" lon="5.93759">
        <ele>489.2</ele>
        <time>2022-07-30T10:55:01Z</time>
      </trkpt>
      <trkpt lat="43.14822" lon="5.93762">
        <ele>489.3</ele>
        <time>2022-07-30T10:55:06Z</time>
      </trkpt>
      <trkpt lat="43.14824" lon="5.93763">
        <ele>489.3</ele>
        <time>2022-07-30T10:55:14Z</time>
      </trkpt>
      <trkpt lat="43.1483" lon="5.93767">
        <ele>489.5</ele>
        <time>2022-07-30T10:55:28Z</time>
      </trkpt>
      <trkpt lat="43.14831" lon="5.93768">
        <ele>489.5</ele>
        <time>2022-07-30T10:55:29Z</time>
      </trkpt>
      <trkpt lat="43.14832" lon="5.93771">
        <ele>489.5</ele>
        <time>2022-07-30T10:55:32Z</time>
      </trkpt>
      <trkpt lat="43.14834" lon="5.93773">
        <ele>489.6</ele>
        <time>2022-07-30T10:55:34Z</time>
      </trkpt>
      <trkpt lat="43.1484" lon="5.93779">
        <ele>489.7</ele>
        <time>2022-07-30T10:55:39Z</time>
      </trkpt>
      <trkpt lat="43.14843" lon="5.93783">
        <ele>489.8</ele>
        <time>2022-07-30T10:55:43Z</time>
      </trkpt>
      <trkpt lat="43.14859" lon="5.93789">
        <ele>490.1</ele>
        <time>2022-07-30T10:55:58Z</time>
      </trkpt>
      <trkpt lat="43.14876" lon="5.93794">
        <ele>490.4</ele>
        <time>2022-07-30T10:56:14Z</time>
      </trkpt>
      <trkpt lat="43.14893" lon="5.93799">
        <ele>490.7</ele>
        <time>2022-07-30T10:56:29Z</time>
      </trkpt>
      <trkpt lat="43.14905" lon="5.93804">
        <ele>490.5</ele>
        <time>2022-07-30T10:56:42Z</time>
      </trkpt>
      <trkpt lat="43.14917" lon="5.93815">
        <ele>489.9</ele>
        <time>2022-07-30T10:56:55Z</time>
      </trkpt>
      <trkpt lat="43.14926" lon="5.93827">
        <ele>489.9</ele>
        <time>2022-07-30T10:57:08Z</time>
      </trkpt>
      <trkpt lat="43.14926" lon="5.93843">
        <ele>490.4</ele>
        <time>2022-07-30T10:57:19Z</time>
      </trkpt>
      <trkpt lat="43.14925" lon="5.93855">
        <ele>490.6</ele>
        <time>2022-07-30T10:57:28Z</time>
      </trkpt>
      <trkpt lat="43.14925" lon="5.93863">
        <ele>490.7</ele>
        <time>2022-07-30T10:57:33Z</time>
      </trkpt>
      <trkpt lat="43.14928" lon="5.93882">
        <ele>490.7</ele>
        <time>2022-07-30T10:57:47Z</time>
      </trkpt>
      <trkpt lat="43.14936" lon="5.93894">
        <ele>491.1</ele>
        <time>2022-07-30T10:57:58Z</time>
      </trkpt>
      <trkpt lat="43.14937" lon="5.93896">
        <ele>491</ele>
        <time>2022-07-30T10:58:00Z</time>
      </trkpt>
      <trkpt lat="43.14939" lon="5.93898">
        <ele>490.9</ele>
        <time>2022-07-30T10:58:04Z</time>
      </trkpt>
      <trkpt lat="43.1494" lon="5.93899">
        <ele>490.8</ele>
        <time>2022-07-30T10:58:07Z</time>
      </trkpt>
      <trkpt lat="43.14942" lon="5.93898">
        <ele>490.4</ele>
        <time>2022-07-30T10:58:12Z</time>
      </trkpt>
      <trkpt lat="43.14946" lon="5.93894">
        <ele>489.7</ele>
        <time>2022-07-30T10:58:17Z</time>
      </trkpt>
      <trkpt lat="43.14948" lon="5.93891">
        <ele>489.4</ele>
        <time>2022-07-30T10:58:20Z</time>
      </trkpt>
      <trkpt lat="43.14949" lon="5.93891">
        <ele>489.3</ele>
        <time>2022-07-30T10:58:21Z</time>
      </trkpt>
      <trkpt lat="43.14952" lon="5.9389">
        <ele>489.1</ele>
        <time>2022-07-30T10:58:25Z</time>
      </trkpt>
      <trkpt lat="43.14952" lon="5.93889">
        <ele>489</ele>
        <time>2022-07-30T10:58:29Z</time>
      </trkpt>
      <trkpt lat="43.14954" lon="5.93889">
        <ele>488.9</ele>
        <time>2022-07-30T10:58:37Z</time>
      </trkpt>
      <trkpt lat="43.14961" lon="5.93881">
        <ele>487.9</ele>
        <time>2022-07-30T10:58:46Z</time>
      </trkpt>
      <trkpt lat="43.14962" lon="5.93881">
        <ele>487.7</ele>
        <time>2022-07-30T10:58:47Z</time>
      </trkpt>
      <trkpt lat="43.14971" lon="5.93874">
        <ele>486.5</ele>
        <time>2022-07-30T10:58:59Z</time>
      </trkpt>
      <trkpt lat="43.14972" lon="5.93874">
        <ele>486.3</ele>
        <time>2022-07-30T10:59:00Z</time>
      </trkpt>
      <trkpt lat="43.14979" lon="5.93874">
        <ele>485.5</ele>
        <time>2022-07-30T10:59:06Z</time>
      </trkpt>
      <trkpt lat="43.14985" lon="5.93875">
        <ele>485.1</ele>
        <time>2022-07-30T10:59:11Z</time>
      </trkpt>
      <trkpt lat="43.14992" lon="5.93875">
        <ele>484.7</ele>
        <time>2022-07-30T10:59:17Z</time>
      </trkpt>
      <trkpt lat="43.15" lon="5.93872">
        <ele>484.2</ele>
        <time>2022-07-30T10:59:26Z</time>
      </trkpt>
      <trkpt lat="43.15002" lon="5.93873">
        <ele>484.2</ele>
        <time>2022-07-30T10:59:28Z</time>
      </trkpt>
      <trkpt lat="43.1501" lon="5.93876">
        <ele>483.8</ele>
        <time>2022-07-30T10:59:34Z</time>
      </trkpt>
      <trkpt lat="43.15026" lon="5.93873">
        <ele>483.3</ele>
        <time>2022-07-30T10:59:49Z</time>
      </trkpt>
      <trkpt lat="43.15028" lon="5.93873">
        <ele>483.2</ele>
        <time>2022-07-30T10:59:50Z</time>
      </trkpt>
      <trkpt lat="43.15045" lon="5.93875">
        <ele>482.7</ele>
        <time>2022-07-30T11:00:06Z</time>
      </trkpt>
      <trkpt lat="43.15046" lon="5.93874">
        <ele>482.7</ele>
        <time>2022-07-30T11:00:08Z</time>
      </trkpt>
      <trkpt lat="43.15046" lon="5.93874">
        <ele>482.7</ele>
        <time>2022-07-30T11:00:10Z</time>
      </trkpt>
      <trkpt lat="43.15049" lon="5.93875">
        <ele>482.6</ele>
        <time>2022-07-30T11:00:17Z</time>
      </trkpt>
      <trkpt lat="43.1505" lon="5.93876">
        <ele>482.6</ele>
        <time>2022-07-30T11:00:31Z</time>
      </trkpt>
      <trkpt lat="43.15052" lon="5.9388">
        <ele>482.5</ele>
        <time>2022-07-30T11:00:52Z</time>
      </trkpt>
      <trkpt lat="43.15052" lon="5.9388">
        <ele>482.4</ele>
        <time>2022-07-30T11:01:05Z</time>
      </trkpt>
      <trkpt lat="43.15056" lon="5.93876">
        <ele>482.3</ele>
        <time>2022-07-30T11:01:18Z</time>
      </trkpt>
      <trkpt lat="43.15069" lon="5.93876">
        <ele>481.8</ele>
        <time>2022-07-30T11:01:33Z</time>
      </trkpt>
      <trkpt lat="43.15071" lon="5.93876">
        <ele>481.7</ele>
        <time>2022-07-30T11:01:35Z</time>
      </trkpt>
      <trkpt lat="43.15072" lon="5.93876">
        <ele>481.6</ele>
        <time>2022-07-30T11:01:36Z</time>
      </trkpt>
      <trkpt lat="43.15075" lon="5.93877">
        <ele>481.5</ele>
        <time>2022-07-30T11:01:40Z</time>
      </trkpt>
      <trkpt lat="43.15079" lon="5.93878">
        <ele>481.3</ele>
        <time>2022-07-30T11:01:43Z</time>
      </trkpt>
      <trkpt lat="43.15087" lon="5.93877">
        <ele>480.8</ele>
        <time>2022-07-30T11:01:51Z</time>
      </trkpt>
      <trkpt lat="43.15089" lon="5.93878">
        <ele>480.6</ele>
        <time>2022-07-30T11:01:53Z</time>
      </trkpt>
      <trkpt lat="43.15096" lon="5.93879">
        <ele>480.1</ele>
        <time>2022-07-30T11:02:00Z</time>
      </trkpt>
      <trkpt lat="43.151" lon="5.9388">
        <ele>479.9</ele>
        <time>2022-07-30T11:02:04Z</time>
      </trkpt>
      <trkpt lat="43.15106" lon="5.93882">
        <ele>479.6</ele>
        <time>2022-07-30T11:02:10Z</time>
      </trkpt>
      <trkpt lat="43.15119" lon="5.93886">
        <ele>479.4</ele>
        <time>2022-07-30T11:02:22Z</time>
      </trkpt>
      <trkpt lat="43.15131" lon="5.93889">
        <ele>479.6</ele>
        <time>2022-07-30T11:02:34Z</time>
      </trkpt>
      <trkpt lat="43.15145" lon="5.9389">
        <ele>480</ele>
        <time>2022-07-30T11:02:50Z</time>
      </trkpt>
      <trkpt lat="43.15159" lon="5.93886">
        <ele>480.3</ele>
        <time>2022-07-30T11:03:05Z</time>
      </trkpt>
      <trkpt lat="43.15159" lon="5.93885">
        <ele>480.4</ele>
        <time>2022-07-30T11:03:06Z</time>
      </trkpt>
      <trkpt lat="43.1516" lon="5.93882">
        <ele>480.4</ele>
        <time>2022-07-30T11:03:19Z</time>
      </trkpt>
      <trkpt lat="43.15161" lon="5.9388">
        <ele>480.4</ele>
        <time>2022-07-30T11:03:38Z</time>
      </trkpt>
      <trkpt lat="43.15163" lon="5.93883">
        <ele>480.3</ele>
        <time>2022-07-30T11:03:52Z</time>
      </trkpt>
      <trkpt lat="43.15165" lon="5.93882">
        <ele>480.3</ele>
        <time>2022-07-30T11:03:57Z</time>
      </trkpt>
      <trkpt lat="43.15167" lon="5.93876">
        <ele>480.3</ele>
        <time>2022-07-30T11:04:07Z</time>
      </trkpt>
      <trkpt lat="43.15168" lon="5.93874">
        <ele>480.3</ele>
        <time>2022-07-30T11:04:09Z</time>
      </trkpt>
      <trkpt lat="43.15169" lon="5.93862">
        <ele>480.2</ele>
        <time>2022-07-30T11:04:22Z</time>
      </trkpt>
      <trkpt lat="43.15169" lon="5.93857">
        <ele>480.2</ele>
        <time>2022-07-30T11:04:26Z</time>
      </trkpt>
      <trkpt lat="43.15169" lon="5.93855">
        <ele>480.2</ele>
        <time>2022-07-30T11:04:27Z</time>
      </trkpt>
      <trkpt lat="43.15169" lon="5.93853">
        <ele>480.2</ele>
        <time>2022-07-30T11:04:29Z</time>
      </trkpt>
      <trkpt lat="43.15168" lon="5.93847">
        <ele>480.2</ele>
        <time>2022-07-30T11:04:33Z</time>
      </trkpt>
      <trkpt lat="43.15166" lon="5.93839">
        <ele>480.2</ele>
        <time>2022-07-30T11:04:40Z</time>
      </trkpt>
      <trkpt lat="43.15169" lon="5.9382">
        <ele>480.2</ele>
        <time>2022-07-30T11:04:54Z</time>
      </trkpt>
      <trkpt lat="43.15166" lon="5.93802">
        <ele>480.1</ele>
        <time>2022-07-30T11:05:07Z</time>
      </trkpt>
      <trkpt lat="43.15171" lon="5.93783">
        <ele>480</ele>
        <time>2022-07-30T11:05:22Z</time>
      </trkpt>
      <trkpt lat="43.15167" lon="5.93765">
        <ele>479.8</ele>
        <time>2022-07-30T11:05:36Z</time>
      </trkpt>
      <trkpt lat="43.15168" lon="5.93743">
        <ele>479.6</ele>
        <time>2022-07-30T11:05:51Z</time>
      </trkpt>
      <trkpt lat="43.15167" lon="5.93718">
        <ele>479.5</ele>
        <time>2022-07-30T11:06:07Z</time>
      </trkpt>
      <trkpt lat="43.15167" lon="5.93718">
        <ele>479.5</ele>
        <time>2022-07-30T11:06:08Z</time>
      </trkpt>
      <trkpt lat="43.15167" lon="5.93717">
        <ele>479.5</ele>
        <time>2022-07-30T11:06:11Z</time>
      </trkpt>
      <trkpt lat="43.15168" lon="5.93709">
        <ele>479.5</ele>
        <time>2022-07-30T11:06:18Z</time>
      </trkpt>
      <trkpt lat="43.15168" lon="5.93708">
        <ele>479.5</ele>
        <time>2022-07-30T11:06:19Z</time>
      </trkpt>
      <trkpt lat="43.15167" lon="5.93704">
        <ele>479.5</ele>
        <time>2022-07-30T11:06:21Z</time>
      </trkpt>
      <trkpt lat="43.15168" lon="5.93688">
        <ele>479.8</ele>
        <time>2022-07-30T11:06:31Z</time>
      </trkpt>
      <trkpt lat="43.15169" lon="5.93668">
        <ele>480.5</ele>
        <time>2022-07-30T11:06:48Z</time>
      </trkpt>
      <trkpt lat="43.15169" lon="5.93667">
        <ele>480.5</ele>
        <time>2022-07-30T11:06:49Z</time>
      </trkpt>
      <trkpt lat="43.15164" lon="5.93655">
        <ele>481.3</ele>
        <time>2022-07-30T11:06:59Z</time>
      </trkpt>
      <trkpt lat="43.15162" lon="5.93654">
        <ele>481.4</ele>
        <time>2022-07-30T11:07:02Z</time>
      </trkpt>
      <trkpt lat="43.15161" lon="5.93652">
        <ele>481.6</ele>
        <time>2022-07-30T11:07:08Z</time>
      </trkpt>
      <trkpt lat="43.15164" lon="5.93645">
        <ele>482.2</ele>
        <time>2022-07-30T11:07:17Z</time>
      </trkpt>
      <trkpt lat="43.15169" lon="5.93639">
        <ele>482.8</ele>
        <time>2022-07-30T11:07:22Z</time>
      </trkpt>
      <trkpt lat="43.15172" lon="5.93629">
        <ele>483.4</ele>
        <time>2022-07-30T11:07:30Z</time>
      </trkpt>
      <trkpt lat="43.15172" lon="5.93624">
        <ele>483.7</ele>
        <time>2022-07-30T11:07:34Z</time>
      </trkpt>
      <trkpt lat="43.1517" lon="5.93613">
        <ele>484.3</ele>
        <time>2022-07-30T11:07:42Z</time>
      </trkpt>
      <trkpt lat="43.1517" lon="5.93603">
        <ele>484.8</ele>
        <time>2022-07-30T11:07:50Z</time>
      </trkpt>
      <trkpt lat="43.15171" lon="5.93601">
        <ele>484.9</ele>
        <time>2022-07-30T11:07:54Z</time>
      </trkpt>
      <trkpt lat="43.15172" lon="5.93598">
        <ele>485.1</ele>
        <time>2022-07-30T11:07:57Z</time>
      </trkpt>
      <trkpt lat="43.15172" lon="5.93597">
        <ele>485.1</ele>
        <time>2022-07-30T11:07:58Z</time>
      </trkpt>
      <trkpt lat="43.15172" lon="5.93596">
        <ele>485.2</ele>
        <time>2022-07-30T11:07:59Z</time>
      </trkpt>
      <trkpt lat="43.15172" lon="5.93594">
        <ele>485.2</ele>
        <time>2022-07-30T11:08:00Z</time>
      </trkpt>
      <trkpt lat="43.15171" lon="5.93591">
        <ele>485.4</ele>
        <time>2022-07-30T11:08:02Z</time>
      </trkpt>
      <trkpt lat="43.1517" lon="5.93588">
        <ele>485.5</ele>
        <time>2022-07-30T11:08:04Z</time>
      </trkpt>
      <trkpt lat="43.15168" lon="5.93581">
        <ele>485.7</ele>
        <time>2022-07-30T11:08:08Z</time>
      </trkpt>
      <trkpt lat="43.15166" lon="5.93575">
        <ele>485.9</ele>
        <time>2022-07-30T11:08:12Z</time>
      </trkpt>
      <trkpt lat="43.15162" lon="5.93557">
        <ele>486.4</ele>
        <time>2022-07-30T11:08:28Z</time>
      </trkpt>
      <trkpt lat="43.1516" lon="5.93553">
        <ele>486.5</ele>
        <time>2022-07-30T11:08:41Z</time>
      </trkpt>
      <trkpt lat="43.15159" lon="5.93553">
        <ele>486.5</ele>
        <time>2022-07-30T11:08:57Z</time>
      </trkpt>
      <trkpt lat="43.15159" lon="5.93542">
        <ele>486.8</ele>
        <time>2022-07-30T11:09:07Z</time>
      </trkpt>
      <trkpt lat="43.1516" lon="5.93542">
        <ele>486.8</ele>
        <time>2022-07-30T11:09:09Z</time>
      </trkpt>
      <trkpt lat="43.15159" lon="5.9353">
        <ele>487</ele>
        <time>2022-07-30T11:09:19Z</time>
      </trkpt>
      <trkpt lat="43.15159" lon="5.93529">
        <ele>487.1</ele>
        <time>2022-07-30T11:09:20Z</time>
      </trkpt>
      <trkpt lat="43.15158" lon="5.93514">
        <ele>487.4</ele>
        <time>2022-07-30T11:09:29Z</time>
      </trkpt>
      <trkpt lat="43.15156" lon="5.93507">
        <ele>487.6</ele>
        <time>2022-07-30T11:09:35Z</time>
      </trkpt>
      <trkpt lat="43.15156" lon="5.93503">
        <ele>487.7</ele>
        <time>2022-07-30T11:09:39Z</time>
      </trkpt>
      <trkpt lat="43.15155" lon="5.93499">
        <ele>487.8</ele>
        <time>2022-07-30T11:09:44Z</time>
      </trkpt>
      <trkpt lat="43.15154" lon="5.93496">
        <ele>487.9</ele>
        <time>2022-07-30T11:09:47Z</time>
      </trkpt>
      <trkpt lat="43.15152" lon="5.93493">
        <ele>488</ele>
        <time>2022-07-30T11:09:50Z</time>
      </trkpt>
      <trkpt lat="43.15152" lon="5.93491">
        <ele>488</ele>
        <time>2022-07-30T11:09:51Z</time>
      </trkpt>
      <trkpt lat="43.15152" lon="5.93491">
        <ele>488</ele>
        <time>2022-07-30T11:09:52Z</time>
      </trkpt>
      <trkpt lat="43.15152" lon="5.93488">
        <ele>488.1</ele>
        <time>2022-07-30T11:09:54Z</time>
      </trkpt>
      <trkpt lat="43.15154" lon="5.93485">
        <ele>488.2</ele>
        <time>2022-07-30T11:09:56Z</time>
      </trkpt>
      <trkpt lat="43.15155" lon="5.93482">
        <ele>488.2</ele>
        <time>2022-07-30T11:09:58Z</time>
      </trkpt>
      <trkpt lat="43.15156" lon="5.93479">
        <ele>488.3</ele>
        <time>2022-07-30T11:10:01Z</time>
      </trkpt>
      <trkpt lat="43.15156" lon="5.93462">
        <ele>488.6</ele>
        <time>2022-07-30T11:10:13Z</time>
      </trkpt>
      <trkpt lat="43.15158" lon="5.93446">
        <ele>488.9</ele>
        <time>2022-07-30T11:10:26Z</time>
      </trkpt>
      <trkpt lat="43.15163" lon="5.93434">
        <ele>489.3</ele>
        <time>2022-07-30T11:10:38Z</time>
      </trkpt>
      <trkpt lat="43.15164" lon="5.93433">
        <ele>489.3</ele>
        <time>2022-07-30T11:10:40Z</time>
      </trkpt>
      <trkpt lat="43.15165" lon="5.93431">
        <ele>489.4</ele>
        <time>2022-07-30T11:10:54Z</time>
      </trkpt>
      <trkpt lat="43.15163" lon="5.93431">
        <ele>489.4</ele>
        <time>2022-07-30T11:11:09Z</time>
      </trkpt>
      <trkpt lat="43.15157" lon="5.93422">
        <ele>489.6</ele>
        <time>2022-07-30T11:11:20Z</time>
      </trkpt>
      <trkpt lat="43.15156" lon="5.9342">
        <ele>489.6</ele>
        <time>2022-07-30T11:11:21Z</time>
      </trkpt>
      <trkpt lat="43.1515" lon="5.93406">
        <ele>489.6</ele>
        <time>2022-07-30T11:11:35Z</time>
      </trkpt>
      <trkpt lat="43.15143" lon="5.93394">
        <ele>489.6</ele>
        <time>2022-07-30T11:11:47Z</time>
      </trkpt>
      <trkpt lat="43.15139" lon="5.93385">
        <ele>489.6</ele>
        <time>2022-07-30T11:11:56Z</time>
      </trkpt>
      <trkpt lat="43.15139" lon="5.93385">
        <ele>489.6</ele>
        <time>2022-07-30T11:11:58Z</time>
      </trkpt>
      <trkpt lat="43.15139" lon="5.93385">
        <ele>489.6</ele>
        <time>2022-07-30T11:11:59Z</time>
      </trkpt>
      <trkpt lat="43.15137" lon="5.9339">
        <ele>489.6</ele>
        <time>2022-07-30T11:12:08Z</time>
      </trkpt>
      <trkpt lat="43.15133" lon="5.93389">
        <ele>489.6</ele>
        <time>2022-07-30T11:12:14Z</time>
      </trkpt>
      <trkpt lat="43.15132" lon="5.93388">
        <ele>489.5</ele>
        <time>2022-07-30T11:12:15Z</time>
      </trkpt>
      <trkpt lat="43.15129" lon="5.93387">
        <ele>489.5</ele>
        <time>2022-07-30T11:12:17Z</time>
      </trkpt>
      <trkpt lat="43.15114" lon="5.93379">
        <ele>489.4</ele>
        <time>2022-07-30T11:12:31Z</time>
      </trkpt>
      <trkpt lat="43.151" lon="5.9337">
        <ele>489.2</ele>
        <time>2022-07-30T11:12:46Z</time>
      </trkpt>
      <trkpt lat="43.15098" lon="5.93368">
        <ele>489.2</ele>
        <time>2022-07-30T11:12:48Z</time>
      </trkpt>
      <trkpt lat="43.15093" lon="5.93362">
        <ele>489.1</ele>
        <time>2022-07-30T11:12:56Z</time>
      </trkpt>
      <trkpt lat="43.15092" lon="5.93361">
        <ele>489.1</ele>
        <time>2022-07-30T11:13:00Z</time>
      </trkpt>
      <trkpt lat="43.15092" lon="5.93361">
        <ele>489.1</ele>
        <time>2022-07-30T11:13:01Z</time>
      </trkpt>
      <trkpt lat="43.15087" lon="5.93351">
        <ele>489.1</ele>
        <time>2022-07-30T11:13:13Z</time>
      </trkpt>
      <trkpt lat="43.15081" lon="5.93342">
        <ele>489</ele>
        <time>2022-07-30T11:13:21Z</time>
      </trkpt>
      <trkpt lat="43.1508" lon="5.93339">
        <ele>489</ele>
        <time>2022-07-30T11:13:23Z</time>
      </trkpt>
      <trkpt lat="43.15078" lon="5.93334">
        <ele>489</ele>
        <time>2022-07-30T11:13:27Z</time>
      </trkpt>
      <trkpt lat="43.15075" lon="5.93329">
        <ele>489</ele>
        <time>2022-07-30T11:13:33Z</time>
      </trkpt>
      <trkpt lat="43.15072" lon="5.93322">
        <ele>489</ele>
        <time>2022-07-30T11:13:41Z</time>
      </trkpt>
      <trkpt lat="43.1507" lon="5.93322">
        <ele>489</ele>
        <time>2022-07-30T11:13:42Z</time>
      </trkpt>
      <trkpt lat="43.15068" lon="5.93321">
        <ele>489</ele>
        <time>2022-07-30T11:13:46Z</time>
      </trkpt>
      <trkpt lat="43.15064" lon="5.9332">
        <ele>489</ele>
        <time>2022-07-30T11:13:55Z</time>
      </trkpt>
      <trkpt lat="43.15066" lon="5.93315">
        <ele>489</ele>
        <time>2022-07-30T11:14:10Z</time>
      </trkpt>
      <trkpt lat="43.15061" lon="5.93308">
        <ele>489</ele>
        <time>2022-07-30T11:14:17Z</time>
      </trkpt>
      <trkpt lat="43.15058" lon="5.93305">
        <ele>489</ele>
        <time>2022-07-30T11:14:21Z</time>
      </trkpt>
      <trkpt lat="43.15049" lon="5.93289">
        <ele>488.8</ele>
        <time>2022-07-30T11:14:37Z</time>
      </trkpt>
      <trkpt lat="43.15047" lon="5.93284">
        <ele>488.8</ele>
        <time>2022-07-30T11:14:47Z</time>
      </trkpt>
      <trkpt lat="43.15047" lon="5.93271">
        <ele>488.7</ele>
        <time>2022-07-30T11:14:58Z</time>
      </trkpt>
      <trkpt lat="43.15047" lon="5.93271">
        <ele>488.7</ele>
        <time>2022-07-30T11:14:59Z</time>
      </trkpt>
      <trkpt lat="43.15044" lon="5.93268">
        <ele>488.6</ele>
        <time>2022-07-30T11:15:07Z</time>
      </trkpt>
      <trkpt lat="43.15045" lon="5.93266">
        <ele>488.6</ele>
        <time>2022-07-30T11:15:09Z</time>
      </trkpt>
      <trkpt lat="43.15045" lon="5.93257">
        <ele>488.5</ele>
        <time>2022-07-30T11:15:15Z</time>
      </trkpt>
      <trkpt lat="43.15045" lon="5.93254">
        <ele>488.5</ele>
        <time>2022-07-30T11:15:17Z</time>
      </trkpt>
      <trkpt lat="43.15047" lon="5.93233">
        <ele>488.3</ele>
        <time>2022-07-30T11:15:30Z</time>
      </trkpt>
      <trkpt lat="43.15046" lon="5.93222">
        <ele>488.1</ele>
        <time>2022-07-30T11:15:41Z</time>
      </trkpt>
      <trkpt lat="43.15045" lon="5.9322">
        <ele>488.1</ele>
        <time>2022-07-30T11:15:45Z</time>
      </trkpt>
      <trkpt lat="43.15047" lon="5.93211">
        <ele>487.8</ele>
        <time>2022-07-30T11:15:58Z</time>
      </trkpt>
      <trkpt lat="43.15046" lon="5.9321">
        <ele>487.8</ele>
        <time>2022-07-30T11:15:59Z</time>
      </trkpt>
      <trkpt lat="43.15046" lon="5.93208">
        <ele>487.8</ele>
        <time>2022-07-30T11:16:00Z</time>
      </trkpt>
      <trkpt lat="43.15047" lon="5.93193">
        <ele>487.4</ele>
        <time>2022-07-30T11:16:12Z</time>
      </trkpt>
      <trkpt lat="43.15051" lon="5.93173">
        <ele>487.4</ele>
        <time>2022-07-30T11:16:26Z</time>
      </trkpt>
      <trkpt lat="43.15052" lon="5.93164">
        <ele>487.7</ele>
        <time>2022-07-30T11:16:34Z</time>
      </trkpt>
      <trkpt lat="43.15056" lon="5.93158">
        <ele>488.1</ele>
        <time>2022-07-30T11:16:40Z</time>
      </trkpt>
      <trkpt lat="43.15058" lon="5.93156">
        <ele>488.2</ele>
        <time>2022-07-30T11:16:42Z</time>
      </trkpt>
      <trkpt lat="43.15061" lon="5.93151">
        <ele>488.7</ele>
        <time>2022-07-30T11:16:48Z</time>
      </trkpt>
      <trkpt lat="43.15062" lon="5.9314">
        <ele>489.7</ele>
        <time>2022-07-30T11:16:56Z</time>
      </trkpt>
      <trkpt lat="43.15062" lon="5.9314">
        <ele>489.7</ele>
        <time>2022-07-30T11:16:57Z</time>
      </trkpt>
      <trkpt lat="43.15064" lon="5.93134">
        <ele>490.2</ele>
        <time>2022-07-30T11:17:11Z</time>
      </trkpt>
      <trkpt lat="43.15061" lon="5.93129">
        <ele>490.7</ele>
        <time>2022-07-30T11:17:29Z</time>
      </trkpt>
      <trkpt lat="43.15061" lon="5.9313">
        <ele>490.8</ele>
        <time>2022-07-30T11:17:44Z</time>
      </trkpt>
      <trkpt lat="43.1506" lon="5.93131">
        <ele>490.9</ele>
        <time>2022-07-30T11:17:59Z</time>
      </trkpt>
      <trkpt lat="43.15066" lon="5.93132">
        <ele>491.3</ele>
        <time>2022-07-30T11:18:19Z</time>
      </trkpt>
      <trkpt lat="43.15069" lon="5.93127">
        <ele>491.5</ele>
        <time>2022-07-30T11:18:30Z</time>
      </trkpt>
      <trkpt lat="43.15068" lon="5.93124">
        <ele>491.3</ele>
        <time>2022-07-30T11:18:43Z</time>
      </trkpt>
      <trkpt lat="43.15067" lon="5.93121">
        <ele>491.2</ele>
        <time>2022-07-30T11:18:56Z</time>
      </trkpt>
      <trkpt lat="43.15067" lon="5.9313">
        <ele>490.6</ele>
        <time>2022-07-30T11:19:06Z</time>
      </trkpt>
      <trkpt lat="43.15064" lon="5.93131">
        <ele>490.4</ele>
        <time>2022-07-30T11:19:12Z</time>
      </trkpt>
      <trkpt lat="43.15061" lon="5.93127">
        <ele>490.2</ele>
        <time>2022-07-30T11:19:16Z</time>
      </trkpt>
      <trkpt lat="43.15059" lon="5.93126">
        <ele>490</ele>
        <time>2022-07-30T11:19:19Z</time>
      </trkpt>
      <trkpt lat="43.15055" lon="5.93121">
        <ele>489.7</ele>
        <time>2022-07-30T11:19:27Z</time>
      </trkpt>
      <trkpt lat="43.15051" lon="5.93117">
        <ele>489.5</ele>
        <time>2022-07-30T11:19:31Z</time>
      </trkpt>
      <trkpt lat="43.15048" lon="5.93115">
        <ele>489.5</ele>
        <time>2022-07-30T11:19:33Z</time>
      </trkpt>
      <trkpt lat="43.15039" lon="5.93103">
        <ele>489.2</ele>
        <time>2022-07-30T11:19:46Z</time>
      </trkpt>
      <trkpt lat="43.15037" lon="5.93101">
        <ele>489.2</ele>
        <time>2022-07-30T11:19:50Z</time>
      </trkpt>
      <trkpt lat="43.15035" lon="5.93102">
        <ele>489.1</ele>
        <time>2022-07-30T11:19:52Z</time>
      </trkpt>
      <trkpt lat="43.15035" lon="5.93104">
        <ele>489.1</ele>
        <time>2022-07-30T11:19:57Z</time>
      </trkpt>
      <trkpt lat="43.15035" lon="5.93106">
        <ele>489.1</ele>
        <time>2022-07-30T11:20:11Z</time>
      </trkpt>
      <trkpt lat="43.15034" lon="5.931">
        <ele>489</ele>
        <time>2022-07-30T11:20:26Z</time>
      </trkpt>
      <trkpt lat="43.15036" lon="5.93094">
        <ele>488.9</ele>
        <time>2022-07-30T11:20:42Z</time>
      </trkpt>
      <trkpt lat="43.15036" lon="5.93088">
        <ele>488.8</ele>
        <time>2022-07-30T11:20:47Z</time>
      </trkpt>
      <trkpt lat="43.15033" lon="5.93083">
        <ele>488.7</ele>
        <time>2022-07-30T11:20:51Z</time>
      </trkpt>
      <trkpt lat="43.15032" lon="5.9308">
        <ele>488.6</ele>
        <time>2022-07-30T11:20:54Z</time>
      </trkpt>
      <trkpt lat="43.1503" lon="5.93077">
        <ele>488.5</ele>
        <time>2022-07-30T11:20:56Z</time>
      </trkpt>
      <trkpt lat="43.15029" lon="5.93076">
        <ele>488.4</ele>
        <time>2022-07-30T11:20:58Z</time>
      </trkpt>
      <trkpt lat="43.15028" lon="5.93074">
        <ele>488.3</ele>
        <time>2022-07-30T11:21:00Z</time>
      </trkpt>
      <trkpt lat="43.15022" lon="5.93065">
        <ele>487.9</ele>
        <time>2022-07-30T11:21:09Z</time>
      </trkpt>
      <trkpt lat="43.15011" lon="5.93049">
        <ele>487</ele>
        <time>2022-07-30T11:21:24Z</time>
      </trkpt>
      <trkpt lat="43.15004" lon="5.93044">
        <ele>486.7</ele>
        <time>2022-07-30T11:21:31Z</time>
      </trkpt>
      <trkpt lat="43.14998" lon="5.93042">
        <ele>486.5</ele>
        <time>2022-07-30T11:21:37Z</time>
      </trkpt>
      <trkpt lat="43.14984" lon="5.93037">
        <ele>486.4</ele>
        <time>2022-07-30T11:21:51Z</time>
      </trkpt>
      <trkpt lat="43.14977" lon="5.93036">
        <ele>486.3</ele>
        <time>2022-07-30T11:22:00Z</time>
      </trkpt>
      <trkpt lat="43.14976" lon="5.93036">
        <ele>486.3</ele>
        <time>2022-07-30T11:22:02Z</time>
      </trkpt>
      <trkpt lat="43.14974" lon="5.93035">
        <ele>486.3</ele>
        <time>2022-07-30T11:22:05Z</time>
      </trkpt>
      <trkpt lat="43.14972" lon="5.93035">
        <ele>486.3</ele>
        <time>2022-07-30T11:22:07Z</time>
      </trkpt>
      <trkpt lat="43.14968" lon="5.93034">
        <ele>486.3</ele>
        <time>2022-07-30T11:22:11Z</time>
      </trkpt>
      <trkpt lat="43.14966" lon="5.93034">
        <ele>486.2</ele>
        <time>2022-07-30T11:22:13Z</time>
      </trkpt>
      <trkpt lat="43.14964" lon="5.93033">
        <ele>486.2</ele>
        <time>2022-07-30T11:22:15Z</time>
      </trkpt>
      <trkpt lat="43.14961" lon="5.93033">
        <ele>486.1</ele>
        <time>2022-07-30T11:22:18Z</time>
      </trkpt>
      <trkpt lat="43.14957" lon="5.93033">
        <ele>485.9</ele>
        <time>2022-07-30T11:22:21Z</time>
      </trkpt>
      <trkpt lat="43.14947" lon="5.93025">
        <ele>485</ele>
        <time>2022-07-30T11:22:32Z</time>
      </trkpt>
      <trkpt lat="43.14943" lon="5.93023">
        <ele>484.8</ele>
        <time>2022-07-30T11:22:37Z</time>
      </trkpt>
      <trkpt lat="43.14941" lon="5.93019">
        <ele>484.4</ele>
        <time>2022-07-30T11:22:42Z</time>
      </trkpt>
      <trkpt lat="43.1494" lon="5.93017">
        <ele>484.3</ele>
        <time>2022-07-30T11:22:44Z</time>
      </trkpt>
      <trkpt lat="43.1494" lon="5.93016">
        <ele>484.2</ele>
        <time>2022-07-30T11:22:45Z</time>
      </trkpt>
      <trkpt lat="43.14939" lon="5.93013">
        <ele>484.3</ele>
        <time>2022-07-30T11:22:49Z</time>
      </trkpt>
      <trkpt lat="43.14938" lon="5.9301">
        <ele>484.2</ele>
        <time>2022-07-30T11:22:55Z</time>
      </trkpt>
      <trkpt lat="43.14937" lon="5.9301">
        <ele>483.6</ele>
        <time>2022-07-30T11:22:57Z</time>
      </trkpt>
      <trkpt lat="43.14936" lon="5.9301">
        <ele>483.5</ele>
        <time>2022-07-30T11:22:58Z</time>
      </trkpt>
      <trkpt lat="43.14936" lon="5.9301">
        <ele>483.4</ele>
        <time>2022-07-30T11:23:01Z</time>
      </trkpt>
      <trkpt lat="43.14937" lon="5.93009">
        <ele>483.3</ele>
        <time>2022-07-30T11:23:03Z</time>
      </trkpt>
      <trkpt lat="43.14937" lon="5.93009">
        <ele>483.2</ele>
        <time>2022-07-30T11:23:05Z</time>
      </trkpt>
      <trkpt lat="43.14937" lon="5.9301">
        <ele>483.1</ele>
        <time>2022-07-30T11:23:15Z</time>
      </trkpt>
      <trkpt lat="43.14927" lon="5.93017">
        <ele>481.2</ele>
        <time>2022-07-30T11:23:23Z</time>
      </trkpt>
      <trkpt lat="43.14926" lon="5.93018">
        <ele>480.9</ele>
        <time>2022-07-30T11:23:25Z</time>
      </trkpt>
      <trkpt lat="43.14926" lon="5.93018">
        <ele>480.8</ele>
        <time>2022-07-30T11:23:27Z</time>
      </trkpt>
      <trkpt lat="43.14921" lon="5.93015">
        <ele>479.5</ele>
        <time>2022-07-30T11:23:40Z</time>
      </trkpt>
      <trkpt lat="43.14921" lon="5.93017">
        <ele>479.4</ele>
        <time>2022-07-30T11:23:52Z</time>
      </trkpt>
      <trkpt lat="43.1492" lon="5.93016">
        <ele>479.3</ele>
        <time>2022-07-30T11:24:10Z</time>
      </trkpt>
      <trkpt lat="43.14923" lon="5.93016">
        <ele>480</ele>
        <time>2022-07-30T11:24:26Z</time>
      </trkpt>
      <trkpt lat="43.14923" lon="5.93016">
        <ele>479.9</ele>
        <time>2022-07-30T11:24:40Z</time>
      </trkpt>
      <trkpt lat="43.14923" lon="5.93016">
        <ele>479.8</ele>
        <time>2022-07-30T11:24:42Z</time>
      </trkpt>
      <trkpt lat="43.14925" lon="5.93015">
        <ele>480.3</ele>
        <time>2022-07-30T11:24:51Z</time>
      </trkpt>
      <trkpt lat="43.14927" lon="5.93015">
        <ele>480.2</ele>
        <time>2022-07-30T11:24:55Z</time>
      </trkpt>
      <trkpt lat="43.1493" lon="5.93016">
        <ele>480.7</ele>
        <time>2022-07-30T11:25:00Z</time>
      </trkpt>
      <trkpt lat="43.14932" lon="5.93016">
        <ele>481.2</ele>
        <time>2022-07-30T11:25:02Z</time>
      </trkpt>
      <trkpt lat="43.14929" lon="5.93013">
        <ele>480.7</ele>
        <time>2022-07-30T11:25:28Z</time>
      </trkpt>
      <trkpt lat="43.14929" lon="5.93014">
        <ele>480.4</ele>
        <time>2022-07-30T11:25:31Z</time>
      </trkpt>
      <trkpt lat="43.14928" lon="5.93021">
        <ele>479.3</ele>
        <time>2022-07-30T11:25:41Z</time>
      </trkpt>
      <trkpt lat="43.14923" lon="5.93028">
        <ele>478.3</ele>
        <time>2022-07-30T11:26:00Z</time>
      </trkpt>
      <trkpt lat="43.14923" lon="5.93029">
        <ele>478.2</ele>
        <time>2022-07-30T11:26:02Z</time>
      </trkpt>
      <trkpt lat="43.14926" lon="5.93025">
        <ele>479</ele>
        <time>2022-07-30T11:26:16Z</time>
      </trkpt>
      <trkpt lat="43.14923" lon="5.93028">
        <ele>478</ele>
        <time>2022-07-30T11:26:36Z</time>
      </trkpt>
      <trkpt lat="43.14914" lon="5.93034">
        <ele>475.4</ele>
        <time>2022-07-30T11:26:40Z</time>
      </trkpt>
      <trkpt lat="43.14913" lon="5.93035">
        <ele>475.3</ele>
        <time>2022-07-30T11:26:41Z</time>
      </trkpt>
      <trkpt lat="43.14911" lon="5.93035">
        <ele>474.5</ele>
        <time>2022-07-30T11:26:43Z</time>
      </trkpt>
      <trkpt lat="43.14907" lon="5.93038">
        <ele>473.4</ele>
        <time>2022-07-30T11:26:44Z</time>
      </trkpt>
      <trkpt lat="43.14904" lon="5.93039">
        <ele>472.4</ele>
        <time>2022-07-30T11:26:45Z</time>
      </trkpt>
      <trkpt lat="43.14892" lon="5.93041">
        <ele>469.5</ele>
        <time>2022-07-30T11:26:49Z</time>
      </trkpt>
      <trkpt lat="43.14888" lon="5.93042">
        <ele>468.5</ele>
        <time>2022-07-30T11:26:50Z</time>
      </trkpt>
      <trkpt lat="43.14882" lon="5.93044">
        <ele>466.6</ele>
        <time>2022-07-30T11:26:52Z</time>
      </trkpt>
      <trkpt lat="43.14874" lon="5.93046">
        <ele>463.9</ele>
        <time>2022-07-30T11:26:54Z</time>
      </trkpt>
      <trkpt lat="43.14866" lon="5.93048">
        <ele>462.1</ele>
        <time>2022-07-30T11:26:56Z</time>
      </trkpt>
      <trkpt lat="43.14862" lon="5.9305">
        <ele>459.7</ele>
        <time>2022-07-30T11:26:57Z</time>
      </trkpt>
      <trkpt lat="43.14858" lon="5.93052">
        <ele>458.6</ele>
        <time>2022-07-30T11:26:58Z</time>
      </trkpt>
      <trkpt lat="43.14853" lon="5.93054">
        <ele>457.3</ele>
        <time>2022-07-30T11:26:59Z</time>
      </trkpt>
      <trkpt lat="43.14843" lon="5.93058">
        <ele>453.2</ele>
        <time>2022-07-30T11:27:01Z</time>
      </trkpt>
      <trkpt lat="43.14832" lon="5.93063">
        <ele>449.4</ele>
        <time>2022-07-30T11:27:03Z</time>
      </trkpt>
      <trkpt lat="43.14827" lon="5.93065">
        <ele>447</ele>
        <time>2022-07-30T11:27:04Z</time>
      </trkpt>
      <trkpt lat="43.14822" lon="5.93067">
        <ele>445.7</ele>
        <time>2022-07-30T11:27:05Z</time>
      </trkpt>
      <trkpt lat="43.14812" lon="5.9307">
        <ele>440.4</ele>
        <time>2022-07-30T11:27:07Z</time>
      </trkpt>
      <trkpt lat="43.14807" lon="5.93071">
        <ele>438.7</ele>
        <time>2022-07-30T11:27:08Z</time>
      </trkpt>
      <trkpt lat="43.14802" lon="5.93072">
        <ele>435.3</ele>
        <time>2022-07-30T11:27:09Z</time>
      </trkpt>
      <trkpt lat="43.14798" lon="5.93073">
        <ele>434.1</ele>
        <time>2022-07-30T11:27:10Z</time>
      </trkpt>
      <trkpt lat="43.14789" lon="5.93076">
        <ele>429</ele>
        <time>2022-07-30T11:27:12Z</time>
      </trkpt>
      <trkpt lat="43.14784" lon="5.93077">
        <ele>425.1</ele>
        <time>2022-07-30T11:27:13Z</time>
      </trkpt>
      <trkpt lat="43.14779" lon="5.93079">
        <ele>423.6</ele>
        <time>2022-07-30T11:27:14Z</time>
      </trkpt>
      <trkpt lat="43.14774" lon="5.93081">
        <ele>419.4</ele>
        <time>2022-07-30T11:27:15Z</time>
      </trkpt>
      <trkpt lat="43.14768" lon="5.93082">
        <ele>415.6</ele>
        <time>2022-07-30T11:27:16Z</time>
      </trkpt>
      <trkpt lat="43.14763" lon="5.93084">
        <ele>413.6</ele>
        <time>2022-07-30T11:27:17Z</time>
      </trkpt>
      <trkpt lat="43.14758" lon="5.93086">
        <ele>409.9</ele>
        <time>2022-07-30T11:27:18Z</time>
      </trkpt>
      <trkpt lat="43.14753" lon="5.93088">
        <ele>407.8</ele>
        <time>2022-07-30T11:27:19Z</time>
      </trkpt>
      <trkpt lat="43.14749" lon="5.9309">
        <ele>403.3</ele>
        <time>2022-07-30T11:27:20Z</time>
      </trkpt>
      <trkpt lat="43.14744" lon="5.93092">
        <ele>401.2</ele>
        <time>2022-07-30T11:27:21Z</time>
      </trkpt>
      <trkpt lat="43.14739" lon="5.93094">
        <ele>397</ele>
        <time>2022-07-30T11:27:22Z</time>
      </trkpt>
      <trkpt lat="43.14734" lon="5.93096">
        <ele>393.2</ele>
        <time>2022-07-30T11:27:23Z</time>
      </trkpt>
      <trkpt lat="43.14728" lon="5.93098">
        <ele>391.2</ele>
        <time>2022-07-30T11:27:24Z</time>
      </trkpt>
      <trkpt lat="43.14723" lon="5.931">
        <ele>386.7</ele>
        <time>2022-07-30T11:27:25Z</time>
      </trkpt>
      <trkpt lat="43.14718" lon="5.93102">
        <ele>382.2</ele>
        <time>2022-07-30T11:27:26Z</time>
      </trkpt>
      <trkpt lat="43.14713" lon="5.93103">
        <ele>379.8</ele>
        <time>2022-07-30T11:27:27Z</time>
      </trkpt>
      <trkpt lat="43.14709" lon="5.93104">
        <ele>376.1</ele>
        <time>2022-07-30T11:27:28Z</time>
      </trkpt>
      <trkpt lat="43.14709" lon="5.93104">
        <ele>376</ele>
        <time>2022-07-30T11:27:29Z</time>
      </trkpt>
      <trkpt lat="43.14693" lon="5.93111">
        <ele>364.9</ele>
        <time>2022-07-30T11:27:31Z</time>
      </trkpt>
      <trkpt lat="43.14688" lon="5.93112">
        <ele>361.9</ele>
        <time>2022-07-30T11:27:32Z</time>
      </trkpt>
      <trkpt lat="43.14683" lon="5.93114">
        <ele>358</ele>
        <time>2022-07-30T11:27:33Z</time>
      </trkpt>
      <trkpt lat="43.14678" lon="5.93116">
        <ele>354.1</ele>
        <time>2022-07-30T11:27:34Z</time>
      </trkpt>
      <trkpt lat="43.14673" lon="5.93117">
        <ele>350.8</ele>
        <time>2022-07-30T11:27:35Z</time>
      </trkpt>
      <trkpt lat="43.14667" lon="5.93119">
        <ele>346.4</ele>
        <time>2022-07-30T11:27:36Z</time>
      </trkpt>
      <trkpt lat="43.14663" lon="5.93121">
        <ele>343.1</ele>
        <time>2022-07-30T11:27:37Z</time>
      </trkpt>
      <trkpt lat="43.14657" lon="5.93122">
        <ele>339.1</ele>
        <time>2022-07-30T11:27:38Z</time>
      </trkpt>
      <trkpt lat="43.14653" lon="5.93124">
        <ele>335.4</ele>
        <time>2022-07-30T11:27:39Z</time>
      </trkpt>
      <trkpt lat="43.14647" lon="5.93126">
        <ele>332.2</ele>
        <time>2022-07-30T11:27:40Z</time>
      </trkpt>
      <trkpt lat="43.14642" lon="5.93127">
        <ele>328.6</ele>
        <time>2022-07-30T11:27:41Z</time>
      </trkpt>
      <trkpt lat="43.14637" lon="5.93129">
        <ele>325.5</ele>
        <time>2022-07-30T11:27:42Z</time>
      </trkpt>
      <trkpt lat="43.14632" lon="5.93131">
        <ele>321.9</ele>
        <time>2022-07-30T11:27:43Z</time>
      </trkpt>
      <trkpt lat="43.14627" lon="5.93133">
        <ele>318.8</ele>
        <time>2022-07-30T11:27:44Z</time>
      </trkpt>
      <trkpt lat="43.14622" lon="5.93135">
        <ele>316.2</ele>
        <time>2022-07-30T11:27:45Z</time>
      </trkpt>
      <trkpt lat="43.14617" lon="5.93137">
        <ele>313.6</ele>
        <time>2022-07-30T11:27:46Z</time>
      </trkpt>
      <trkpt lat="43.14612" lon="5.93138">
        <ele>311.1</ele>
        <time>2022-07-30T11:27:47Z</time>
      </trkpt>
      <trkpt lat="43.14607" lon="5.9314">
        <ele>308.3</ele>
        <time>2022-07-30T11:27:48Z</time>
      </trkpt>
      <trkpt lat="43.14602" lon="5.93142">
        <ele>304.9</ele>
        <time>2022-07-30T11:27:49Z</time>
      </trkpt>
      <trkpt lat="43.14597" lon="5.93143">
        <ele>303.9</ele>
        <time>2022-07-30T11:27:50Z</time>
      </trkpt>
      <trkpt lat="43.14592" lon="5.93145">
        <ele>302</ele>
        <time>2022-07-30T11:27:51Z</time>
      </trkpt>
      <trkpt lat="43.14587" lon="5.93147">
        <ele>300.2</ele>
        <time>2022-07-30T11:27:52Z</time>
      </trkpt>
      <trkpt lat="43.14582" lon="5.93148">
        <ele>298</ele>
        <time>2022-07-30T11:27:53Z</time>
      </trkpt>
      <trkpt lat="43.14577" lon="5.9315">
        <ele>295.5</ele>
        <time>2022-07-30T11:27:54Z</time>
      </trkpt>
      <trkpt lat="43.14572" lon="5.93152">
        <ele>294.7</ele>
        <time>2022-07-30T11:27:55Z</time>
      </trkpt>
      <trkpt lat="43.14568" lon="5.93153">
        <ele>293.2</ele>
        <time>2022-07-30T11:27:56Z</time>
      </trkpt>
      <trkpt lat="43.14562" lon="5.93155">
        <ele>292.2</ele>
        <time>2022-07-30T11:27:57Z</time>
      </trkpt>
      <trkpt lat="43.14557" lon="5.93157">
        <ele>290.5</ele>
        <time>2022-07-30T11:27:58Z</time>
      </trkpt>
      <trkpt lat="43.14552" lon="5.93158">
        <ele>288.8</ele>
        <time>2022-07-30T11:27:59Z</time>
      </trkpt>
      <trkpt lat="43.14547" lon="5.93159">
        <ele>288.1</ele>
        <time>2022-07-30T11:28:00Z</time>
      </trkpt>
      <trkpt lat="43.14542" lon="5.93161">
        <ele>286.6</ele>
        <time>2022-07-30T11:28:01Z</time>
      </trkpt>
      <trkpt lat="43.14537" lon="5.93163">
        <ele>285.7</ele>
        <time>2022-07-30T11:28:02Z</time>
      </trkpt>
      <trkpt lat="43.14532" lon="5.93164">
        <ele>284.2</ele>
        <time>2022-07-30T11:28:03Z</time>
      </trkpt>
      <trkpt lat="43.14527" lon="5.93166">
        <ele>282.4</ele>
        <time>2022-07-30T11:28:04Z</time>
      </trkpt>
      <trkpt lat="43.14522" lon="5.93167">
        <ele>281.4</ele>
        <time>2022-07-30T11:28:05Z</time>
      </trkpt>
      <trkpt lat="43.14517" lon="5.93169">
        <ele>280.1</ele>
        <time>2022-07-30T11:28:06Z</time>
      </trkpt>
      <trkpt lat="43.14513" lon="5.9317">
        <ele>279.2</ele>
        <time>2022-07-30T11:28:07Z</time>
      </trkpt>
      <trkpt lat="43.14508" lon="5.93171">
        <ele>277.7</ele>
        <time>2022-07-30T11:28:08Z</time>
      </trkpt>
      <trkpt lat="43.14504" lon="5.93173">
        <ele>277.4</ele>
        <time>2022-07-30T11:28:09Z</time>
      </trkpt>
      <trkpt lat="43.14494" lon="5.93176">
        <ele>275.7</ele>
        <time>2022-07-30T11:28:11Z</time>
      </trkpt>
      <trkpt lat="43.14485" lon="5.93179">
        <ele>273.4</ele>
        <time>2022-07-30T11:28:13Z</time>
      </trkpt>
      <trkpt lat="43.1448" lon="5.93181">
        <ele>272.8</ele>
        <time>2022-07-30T11:28:14Z</time>
      </trkpt>
      <trkpt lat="43.14475" lon="5.93183">
        <ele>272</ele>
        <time>2022-07-30T11:28:15Z</time>
      </trkpt>
      <trkpt lat="43.14469" lon="5.93185">
        <ele>271.2</ele>
        <time>2022-07-30T11:28:16Z</time>
      </trkpt>
      <trkpt lat="43.14459" lon="5.93189">
        <ele>270</ele>
        <time>2022-07-30T11:28:18Z</time>
      </trkpt>
      <trkpt lat="43.14454" lon="5.93191">
        <ele>268.6</ele>
        <time>2022-07-30T11:28:19Z</time>
      </trkpt>
      <trkpt lat="43.14449" lon="5.93193">
        <ele>266.9</ele>
        <time>2022-07-30T11:28:20Z</time>
      </trkpt>
      <trkpt lat="43.14444" lon="5.93194">
        <ele>267.3</ele>
        <time>2022-07-30T11:28:21Z</time>
      </trkpt>
      <trkpt lat="43.14438" lon="5.93195">
        <ele>265.5</ele>
        <time>2022-07-30T11:28:22Z</time>
      </trkpt>
      <trkpt lat="43.14433" lon="5.93197">
        <ele>264</ele>
        <time>2022-07-30T11:28:23Z</time>
      </trkpt>
      <trkpt lat="43.14428" lon="5.93198">
        <ele>264.6</ele>
        <time>2022-07-30T11:28:24Z</time>
      </trkpt>
      <trkpt lat="43.14418" lon="5.93201">
        <ele>261.3</ele>
        <time>2022-07-30T11:28:26Z</time>
      </trkpt>
      <trkpt lat="43.14412" lon="5.93203">
        <ele>261.9</ele>
        <time>2022-07-30T11:28:27Z</time>
      </trkpt>
      <trkpt lat="43.14407" lon="5.93205">
        <ele>260.4</ele>
        <time>2022-07-30T11:28:28Z</time>
      </trkpt>
      <trkpt lat="43.14397" lon="5.93208">
        <ele>259.9</ele>
        <time>2022-07-30T11:28:30Z</time>
      </trkpt>
      <trkpt lat="43.14393" lon="5.9321">
        <ele>258.7</ele>
        <time>2022-07-30T11:28:31Z</time>
      </trkpt>
      <trkpt lat="43.14383" lon="5.93214">
        <ele>258.8</ele>
        <time>2022-07-30T11:28:32Z</time>
      </trkpt>
      <trkpt lat="43.14373" lon="5.93218">
        <ele>259.2</ele>
        <time>2022-07-30T11:28:35Z</time>
      </trkpt>
      <trkpt lat="43.14363" lon="5.93222">
        <ele>260.1</ele>
        <time>2022-07-30T11:28:37Z</time>
      </trkpt>
      <trkpt lat="43.14352" lon="5.93226">
        <ele>261.2</ele>
        <time>2022-07-30T11:28:39Z</time>
      </trkpt>
      <trkpt lat="43.14342" lon="5.9323">
        <ele>262.9</ele>
        <time>2022-07-30T11:28:41Z</time>
      </trkpt>
      <trkpt lat="43.14333" lon="5.93235">
        <ele>264.8</ele>
        <time>2022-07-30T11:28:43Z</time>
      </trkpt>
      <trkpt lat="43.14323" lon="5.93243">
        <ele>268.4</ele>
        <time>2022-07-30T11:28:45Z</time>
      </trkpt>
      <trkpt lat="43.14317" lon="5.93248">
        <ele>270.3</ele>
        <time>2022-07-30T11:28:46Z</time>
      </trkpt>
      <trkpt lat="43.14312" lon="5.93251">
        <ele>271.9</ele>
        <time>2022-07-30T11:28:47Z</time>
      </trkpt>
      <trkpt lat="43.14303" lon="5.93257">
        <ele>274</ele>
        <time>2022-07-30T11:28:49Z</time>
      </trkpt>
      <trkpt lat="43.14287" lon="5.93266">
        <ele>279.7</ele>
        <time>2022-07-30T11:28:52Z</time>
      </trkpt>
      <trkpt lat="43.14272" lon="5.93274">
        <ele>281.7</ele>
        <time>2022-07-30T11:28:55Z</time>
      </trkpt>
      <trkpt lat="43.14256" lon="5.93276">
        <ele>283.2</ele>
        <time>2022-07-30T11:28:58Z</time>
      </trkpt>
      <trkpt lat="43.14239" lon="5.93281">
        <ele>284</ele>
        <time>2022-07-30T11:29:02Z</time>
      </trkpt>
      <trkpt lat="43.1423" lon="5.93283">
        <ele>283.3</ele>
        <time>2022-07-30T11:29:04Z</time>
      </trkpt>
      <trkpt lat="43.14225" lon="5.93283">
        <ele>282.9</ele>
        <time>2022-07-30T11:29:05Z</time>
      </trkpt>
      <trkpt lat="43.1422" lon="5.93283">
        <ele>282.8</ele>
        <time>2022-07-30T11:29:06Z</time>
      </trkpt>
      <trkpt lat="43.14215" lon="5.93284">
        <ele>282.3</ele>
        <time>2022-07-30T11:29:07Z</time>
      </trkpt>
      <trkpt lat="43.1421" lon="5.93285">
        <ele>281.3</ele>
        <time>2022-07-30T11:29:08Z</time>
      </trkpt>
      <trkpt lat="43.14205" lon="5.93287">
        <ele>280.8</ele>
        <time>2022-07-30T11:29:09Z</time>
      </trkpt>
      <trkpt lat="43.142" lon="5.93287">
        <ele>279.9</ele>
        <time>2022-07-30T11:29:10Z</time>
      </trkpt>
      <trkpt lat="43.14195" lon="5.9329">
        <ele>279.3</ele>
        <time>2022-07-30T11:29:11Z</time>
      </trkpt>
      <trkpt lat="43.14189" lon="5.93292">
        <ele>278.1</ele>
        <time>2022-07-30T11:29:12Z</time>
      </trkpt>
      <trkpt lat="43.14189" lon="5.93292">
        <ele>278</ele>
        <time>2022-07-30T11:29:13Z</time>
      </trkpt>
      <trkpt lat="43.14174" lon="5.93297">
        <ele>275.8</ele>
        <time>2022-07-30T11:29:15Z</time>
      </trkpt>
      <trkpt lat="43.14168" lon="5.93299">
        <ele>274.8</ele>
        <time>2022-07-30T11:29:16Z</time>
      </trkpt>
      <trkpt lat="43.14159" lon="5.93303">
        <ele>272.6</ele>
        <time>2022-07-30T11:29:18Z</time>
      </trkpt>
      <trkpt lat="43.14154" lon="5.93305">
        <ele>271.4</ele>
        <time>2022-07-30T11:29:19Z</time>
      </trkpt>
      <trkpt lat="43.14145" lon="5.93308">
        <ele>268.6</ele>
        <time>2022-07-30T11:29:21Z</time>
      </trkpt>
      <trkpt lat="43.14135" lon="5.93311">
        <ele>266.4</ele>
        <time>2022-07-30T11:29:23Z</time>
      </trkpt>
      <trkpt lat="43.14125" lon="5.93314">
        <ele>264.3</ele>
        <time>2022-07-30T11:29:25Z</time>
      </trkpt>
      <trkpt lat="43.14116" lon="5.93317">
        <ele>261.7</ele>
        <time>2022-07-30T11:29:27Z</time>
      </trkpt>
      <trkpt lat="43.14111" lon="5.93318">
        <ele>260.3</ele>
        <time>2022-07-30T11:29:28Z</time>
      </trkpt>
      <trkpt lat="43.14106" lon="5.93319">
        <ele>258.7</ele>
        <time>2022-07-30T11:29:29Z</time>
      </trkpt>
      <trkpt lat="43.14097" lon="5.93322">
        <ele>256.7</ele>
        <time>2022-07-30T11:29:31Z</time>
      </trkpt>
      <trkpt lat="43.14087" lon="5.93327">
        <ele>254.7</ele>
        <time>2022-07-30T11:29:33Z</time>
      </trkpt>
      <trkpt lat="43.14078" lon="5.93329">
        <ele>251.5</ele>
        <time>2022-07-30T11:29:35Z</time>
      </trkpt>
      <trkpt lat="43.14068" lon="5.9333">
        <ele>249.7</ele>
        <time>2022-07-30T11:29:37Z</time>
      </trkpt>
      <trkpt lat="43.14063" lon="5.93331">
        <ele>247.7</ele>
        <time>2022-07-30T11:29:38Z</time>
      </trkpt>
      <trkpt lat="43.14059" lon="5.93332">
        <ele>246.4</ele>
        <time>2022-07-30T11:29:39Z</time>
      </trkpt>
      <trkpt lat="43.14053" lon="5.93333">
        <ele>243.9</ele>
        <time>2022-07-30T11:29:40Z</time>
      </trkpt>
      <trkpt lat="43.14049" lon="5.93334">
        <ele>242.6</ele>
        <time>2022-07-30T11:29:41Z</time>
      </trkpt>
      <trkpt lat="43.14044" lon="5.93335">
        <ele>240.9</ele>
        <time>2022-07-30T11:29:42Z</time>
      </trkpt>
      <trkpt lat="43.14038" lon="5.93336">
        <ele>238.1</ele>
        <time>2022-07-30T11:29:43Z</time>
      </trkpt>
      <trkpt lat="43.14034" lon="5.93336">
        <ele>236.4</ele>
        <time>2022-07-30T11:29:44Z</time>
      </trkpt>
      <trkpt lat="43.14029" lon="5.93337">
        <ele>233</ele>
        <time>2022-07-30T11:29:45Z</time>
      </trkpt>
      <trkpt lat="43.14024" lon="5.93339">
        <ele>231.2</ele>
        <time>2022-07-30T11:29:46Z</time>
      </trkpt>
      <trkpt lat="43.1402" lon="5.93341">
        <ele>228.5</ele>
        <time>2022-07-30T11:29:47Z</time>
      </trkpt>
      <trkpt lat="43.14015" lon="5.93342">
        <ele>226.8</ele>
        <time>2022-07-30T11:29:48Z</time>
      </trkpt>
      <trkpt lat="43.1401" lon="5.93343">
        <ele>223.4</ele>
        <time>2022-07-30T11:29:49Z</time>
      </trkpt>
      <trkpt lat="43.14006" lon="5.93345">
        <ele>222.3</ele>
        <time>2022-07-30T11:29:50Z</time>
      </trkpt>
      <trkpt lat="43.14001" lon="5.93345">
        <ele>220.4</ele>
        <time>2022-07-30T11:29:51Z</time>
      </trkpt>
      <trkpt lat="43.13997" lon="5.93347">
        <ele>216.7</ele>
        <time>2022-07-30T11:29:52Z</time>
      </trkpt>
      <trkpt lat="43.1399" lon="5.93349">
        <ele>213.4</ele>
        <time>2022-07-30T11:29:53Z</time>
      </trkpt>
      <trkpt lat="43.13987" lon="5.9335">
        <ele>211.6</ele>
        <time>2022-07-30T11:29:54Z</time>
      </trkpt>
      <trkpt lat="43.13985" lon="5.93351">
        <ele>209.7</ele>
        <time>2022-07-30T11:29:55Z</time>
      </trkpt>
      <trkpt lat="43.1398" lon="5.93353">
        <ele>208.3</ele>
        <time>2022-07-30T11:29:56Z</time>
      </trkpt>
      <trkpt lat="43.13976" lon="5.93355">
        <ele>204.4</ele>
        <time>2022-07-30T11:29:57Z</time>
      </trkpt>
      <trkpt lat="43.13971" lon="5.93357">
        <ele>202.6</ele>
        <time>2022-07-30T11:29:58Z</time>
      </trkpt>
      <trkpt lat="43.13965" lon="5.93359">
        <ele>198.4</ele>
        <time>2022-07-30T11:29:59Z</time>
      </trkpt>
      <trkpt lat="43.1396" lon="5.9336">
        <ele>194.7</ele>
        <time>2022-07-30T11:30:00Z</time>
      </trkpt>
      <trkpt lat="43.13956" lon="5.93362">
        <ele>193.4</ele>
        <time>2022-07-30T11:30:01Z</time>
      </trkpt>
      <trkpt lat="43.13951" lon="5.93364">
        <ele>189.8</ele>
        <time>2022-07-30T11:30:02Z</time>
      </trkpt>
      <trkpt lat="43.13945" lon="5.93366">
        <ele>188.2</ele>
        <time>2022-07-30T11:30:03Z</time>
      </trkpt>
      <trkpt lat="43.1394" lon="5.93369">
        <ele>184.4</ele>
        <time>2022-07-30T11:30:04Z</time>
      </trkpt>
      <trkpt lat="43.13936" lon="5.93371">
        <ele>183</ele>
        <time>2022-07-30T11:30:05Z</time>
      </trkpt>
      <trkpt lat="43.1393" lon="5.93376">
        <ele>180.2</ele>
        <time>2022-07-30T11:30:06Z</time>
      </trkpt>
      <trkpt lat="43.13925" lon="5.93378">
        <ele>177.2</ele>
        <time>2022-07-30T11:30:07Z</time>
      </trkpt>
      <trkpt lat="43.13921" lon="5.9338">
        <ele>175.4</ele>
        <time>2022-07-30T11:30:08Z</time>
      </trkpt>
      <trkpt lat="43.13916" lon="5.93383">
        <ele>172.1</ele>
        <time>2022-07-30T11:30:09Z</time>
      </trkpt>
      <trkpt lat="43.13911" lon="5.93385">
        <ele>169</ele>
        <time>2022-07-30T11:30:10Z</time>
      </trkpt>
      <trkpt lat="43.13905" lon="5.93386">
        <ele>167.6</ele>
        <time>2022-07-30T11:30:11Z</time>
      </trkpt>
      <trkpt lat="43.139" lon="5.93388">
        <ele>164.9</ele>
        <time>2022-07-30T11:30:12Z</time>
      </trkpt>
      <trkpt lat="43.13895" lon="5.93391">
        <ele>162</ele>
        <time>2022-07-30T11:30:13Z</time>
      </trkpt>
      <trkpt lat="43.13889" lon="5.93393">
        <ele>160.5</ele>
        <time>2022-07-30T11:30:14Z</time>
      </trkpt>
      <trkpt lat="43.13884" lon="5.93395">
        <ele>157.7</ele>
        <time>2022-07-30T11:30:15Z</time>
      </trkpt>
      <trkpt lat="43.13879" lon="5.93398">
        <ele>155</ele>
        <time>2022-07-30T11:30:16Z</time>
      </trkpt>
      <trkpt lat="43.13874" lon="5.934">
        <ele>153.7</ele>
        <time>2022-07-30T11:30:17Z</time>
      </trkpt>
      <trkpt lat="43.13869" lon="5.93403">
        <ele>151.3</ele>
        <time>2022-07-30T11:30:18Z</time>
      </trkpt>
      <trkpt lat="43.13864" lon="5.93405">
        <ele>149.9</ele>
        <time>2022-07-30T11:30:19Z</time>
      </trkpt>
      <trkpt lat="43.1386" lon="5.93406">
        <ele>147.2</ele>
        <time>2022-07-30T11:30:20Z</time>
      </trkpt>
      <trkpt lat="43.13855" lon="5.93409">
        <ele>145.8</ele>
        <time>2022-07-30T11:30:21Z</time>
      </trkpt>
      <trkpt lat="43.1385" lon="5.93411">
        <ele>143.3</ele>
        <time>2022-07-30T11:30:22Z</time>
      </trkpt>
      <trkpt lat="43.13845" lon="5.93413">
        <ele>142.1</ele>
        <time>2022-07-30T11:30:23Z</time>
      </trkpt>
      <trkpt lat="43.1384" lon="5.93415">
        <ele>140</ele>
        <time>2022-07-30T11:30:24Z</time>
      </trkpt>
      <trkpt lat="43.13835" lon="5.93416">
        <ele>137.5</ele>
        <time>2022-07-30T11:30:25Z</time>
      </trkpt>
      <trkpt lat="43.1383" lon="5.93419">
        <ele>136.2</ele>
        <time>2022-07-30T11:30:26Z</time>
      </trkpt>
      <trkpt lat="43.13825" lon="5.93421">
        <ele>133.9</ele>
        <time>2022-07-30T11:30:27Z</time>
      </trkpt>
      <trkpt lat="43.13821" lon="5.93423">
        <ele>132.8</ele>
        <time>2022-07-30T11:30:28Z</time>
      </trkpt>
      <trkpt lat="43.13816" lon="5.93424">
        <ele>130.9</ele>
        <time>2022-07-30T11:30:29Z</time>
      </trkpt>
      <trkpt lat="43.13811" lon="5.93426">
        <ele>129.8</ele>
        <time>2022-07-30T11:30:30Z</time>
      </trkpt>
      <trkpt lat="43.13806" lon="5.93428">
        <ele>127.6</ele>
        <time>2022-07-30T11:30:31Z</time>
      </trkpt>
      <trkpt lat="43.13802" lon="5.93429">
        <ele>126.5</ele>
        <time>2022-07-30T11:30:32Z</time>
      </trkpt>
      <trkpt lat="43.13797" lon="5.9343">
        <ele>124.8</ele>
        <time>2022-07-30T11:30:33Z</time>
      </trkpt>
      <trkpt lat="43.13793" lon="5.93432">
        <ele>123.9</ele>
        <time>2022-07-30T11:30:34Z</time>
      </trkpt>
      <trkpt lat="43.13789" lon="5.93433">
        <ele>123.1</ele>
        <time>2022-07-30T11:30:35Z</time>
      </trkpt>
      <trkpt lat="43.13786" lon="5.93435">
        <ele>122.4</ele>
        <time>2022-07-30T11:30:36Z</time>
      </trkpt>
      <trkpt lat="43.13782" lon="5.93436">
        <ele>121.5</ele>
        <time>2022-07-30T11:30:37Z</time>
      </trkpt>
      <trkpt lat="43.13779" lon="5.93437">
        <ele>120.7</ele>
        <time>2022-07-30T11:30:38Z</time>
      </trkpt>
      <trkpt lat="43.13776" lon="5.93437">
        <ele>119.8</ele>
        <time>2022-07-30T11:30:39Z</time>
      </trkpt>
      <trkpt lat="43.13773" lon="5.93438">
        <ele>119.2</ele>
        <time>2022-07-30T11:30:40Z</time>
      </trkpt>
      <trkpt lat="43.13771" lon="5.93439">
        <ele>118.5</ele>
        <time>2022-07-30T11:30:41Z</time>
      </trkpt>
      <trkpt lat="43.13768" lon="5.9344">
        <ele>117.7</ele>
        <time>2022-07-30T11:30:42Z</time>
      </trkpt>
      <trkpt lat="43.13766" lon="5.9344">
        <ele>117</ele>
        <time>2022-07-30T11:30:43Z</time>
      </trkpt>
      <trkpt lat="43.13763" lon="5.93441">
        <ele>116.2</ele>
        <time>2022-07-30T11:30:44Z</time>
      </trkpt>
      <trkpt lat="43.13761" lon="5.93443">
        <ele>116.4</ele>
        <time>2022-07-30T11:30:45Z</time>
      </trkpt>
      <trkpt lat="43.13759" lon="5.93444">
        <ele>115.6</ele>
        <time>2022-07-30T11:30:46Z</time>
      </trkpt>
      <trkpt lat="43.13757" lon="5.93444">
        <ele>115.5</ele>
        <time>2022-07-30T11:30:47Z</time>
      </trkpt>
      <trkpt lat="43.13756" lon="5.93446">
        <ele>114.7</ele>
        <time>2022-07-30T11:30:48Z</time>
      </trkpt>
      <trkpt lat="43.13753" lon="5.9345">
        <ele>114</ele>
        <time>2022-07-30T11:30:50Z</time>
      </trkpt>
      <trkpt lat="43.13752" lon="5.93454">
        <ele>114.2</ele>
        <time>2022-07-30T11:30:51Z</time>
      </trkpt>
      <trkpt lat="43.13751" lon="5.93457">
        <ele>114.4</ele>
        <time>2022-07-30T11:30:52Z</time>
      </trkpt>
      <trkpt lat="43.13751" lon="5.9346">
        <ele>113.8</ele>
        <time>2022-07-30T11:30:53Z</time>
      </trkpt>
      <trkpt lat="43.1375" lon="5.93462">
        <ele>113.7</ele>
        <time>2022-07-30T11:30:54Z</time>
      </trkpt>
      <trkpt lat="43.13749" lon="5.93463">
        <ele>113.6</ele>
        <time>2022-07-30T11:30:55Z</time>
      </trkpt>
      <trkpt lat="43.13746" lon="5.93466">
        <ele>113.1</ele>
        <time>2022-07-30T11:31:01Z</time>
      </trkpt>
      <trkpt lat="43.13746" lon="5.93467">
        <ele>113</ele>
        <time>2022-07-30T11:31:02Z</time>
      </trkpt>
      <trkpt lat="43.13743" lon="5.93468">
        <ele>112.1</ele>
        <time>2022-07-30T11:31:10Z</time>
      </trkpt>
      <trkpt lat="43.13742" lon="5.93467">
        <ele>112</ele>
        <time>2022-07-30T11:31:17Z</time>
      </trkpt>
      <trkpt lat="43.13742" lon="5.93467">
        <ele>111.9</ele>
        <time>2022-07-30T11:31:18Z</time>
      </trkpt>
      <trkpt lat="43.13741" lon="5.93465">
        <ele>111.1</ele>
        <time>2022-07-30T11:31:23Z</time>
      </trkpt>
      <trkpt lat="43.13737" lon="5.93467">
        <ele>110.4</ele>
        <time>2022-07-30T11:31:31Z</time>
      </trkpt>
      <trkpt lat="43.13737" lon="5.93469">
        <ele>110.7</ele>
        <time>2022-07-30T11:31:42Z</time>
      </trkpt>
      <trkpt lat="43.13739" lon="5.93469">
        <ele>111.2</ele>
        <time>2022-07-30T11:31:49Z</time>
      </trkpt>
      <trkpt lat="43.13738" lon="5.93469">
        <ele>110.5</ele>
        <time>2022-07-30T11:31:51Z</time>
      </trkpt>
      <trkpt lat="43.13739" lon="5.93466">
        <ele>110.7</ele>
        <time>2022-07-30T11:32:02Z</time>
      </trkpt>
      <trkpt lat="43.13737" lon="5.93467">
        <ele>109.9</ele>
        <time>2022-07-30T11:32:13Z</time>
      </trkpt>
      <trkpt lat="43.13731" lon="5.93463">
        <ele>108.2</ele>
        <time>2022-07-30T11:32:25Z</time>
      </trkpt>
      <trkpt lat="43.13735" lon="5.93464">
        <ele>109.1</ele>
        <time>2022-07-30T11:32:34Z</time>
      </trkpt>
      <trkpt lat="43.13734" lon="5.93463">
        <ele>108.6</ele>
        <time>2022-07-30T11:32:41Z</time>
      </trkpt>
      <trkpt lat="43.1373" lon="5.93466">
        <ele>108.3</ele>
        <time>2022-07-30T11:32:50Z</time>
      </trkpt>
      <trkpt lat="43.13728" lon="5.93466">
        <ele>107.6</ele>
        <time>2022-07-30T11:32:54Z</time>
      </trkpt>
      <trkpt lat="43.13726" lon="5.93465">
        <ele>107.5</ele>
        <time>2022-07-30T11:32:57Z</time>
      </trkpt>
      <trkpt lat="43.13726" lon="5.93465">
        <ele>107.4</ele>
        <time>2022-07-30T11:32:58Z</time>
      </trkpt>
      <trkpt lat="43.13723" lon="5.93462">
        <ele>106.2</ele>
        <time>2022-07-30T11:33:01Z</time>
      </trkpt>
      <trkpt lat="43.13721" lon="5.93461">
        <ele>105.4</ele>
        <time>2022-07-30T11:33:03Z</time>
      </trkpt>
      <trkpt lat="43.13722" lon="5.93455">
        <ele>104.8</ele>
        <time>2022-07-30T11:33:06Z</time>
      </trkpt>
      <trkpt lat="43.13725" lon="5.93451">
        <ele>105.1</ele>
        <time>2022-07-30T11:33:08Z</time>
      </trkpt>
      <trkpt lat="43.13728" lon="5.93449">
        <ele>105.3</ele>
        <time>2022-07-30T11:33:10Z</time>
      </trkpt>
      <trkpt lat="43.13732" lon="5.93441">
        <ele>105.3</ele>
        <time>2022-07-30T11:33:16Z</time>
      </trkpt>
      <trkpt lat="43.13732" lon="5.93439">
        <ele>105.2</ele>
        <time>2022-07-30T11:33:18Z</time>
      </trkpt>
      <trkpt lat="43.13731" lon="5.93438">
        <ele>105.1</ele>
        <time>2022-07-30T11:33:20Z</time>
      </trkpt>
      <trkpt lat="43.13734" lon="5.93435">
        <ele>105.4</ele>
        <time>2022-07-30T11:33:25Z</time>
      </trkpt>
      <trkpt lat="43.13735" lon="5.93435">
        <ele>105.3</ele>
        <time>2022-07-30T11:33:27Z</time>
      </trkpt>
      <trkpt lat="43.13737" lon="5.93435">
        <ele>106</ele>
        <time>2022-07-30T11:33:35Z</time>
      </trkpt>
      <trkpt lat="43.13737" lon="5.93436">
        <ele>105.9</ele>
        <time>2022-07-30T11:33:52Z</time>
      </trkpt>
      <trkpt lat="43.1374" lon="5.93437">
        <ele>106.6</ele>
        <time>2022-07-30T11:34:06Z</time>
      </trkpt>
      <trkpt lat="43.13741" lon="5.93436">
        <ele>106.5</ele>
        <time>2022-07-30T11:34:07Z</time>
      </trkpt>
      <trkpt lat="43.13745" lon="5.93428">
        <ele>106.1</ele>
        <time>2022-07-30T11:34:14Z</time>
      </trkpt>
      <trkpt lat="43.13748" lon="5.93424">
        <ele>105.8</ele>
        <time>2022-07-30T11:34:17Z</time>
      </trkpt>
      <trkpt lat="43.13749" lon="5.93414">
        <ele>105.4</ele>
        <time>2022-07-30T11:34:24Z</time>
      </trkpt>
      <trkpt lat="43.13749" lon="5.93414">
        <ele>105.4</ele>
        <time>2022-07-30T11:34:25Z</time>
      </trkpt>
      <trkpt lat="43.13749" lon="5.93414">
        <ele>105.4</ele>
        <time>2022-07-30T11:34:26Z</time>
      </trkpt>
      <trkpt lat="43.13749" lon="5.93415">
        <ele>105.3</ele>
        <time>2022-07-30T11:34:28Z</time>
      </trkpt>
      <trkpt lat="43.13748" lon="5.93425">
        <ele>104.9</ele>
        <time>2022-07-30T11:34:37Z</time>
      </trkpt>
      <trkpt lat="43.13748" lon="5.93427">
        <ele>104.8</ele>
        <time>2022-07-30T11:34:39Z</time>
      </trkpt>
      <trkpt lat="43.13745" lon="5.93433">
        <ele>104.5</ele>
        <time>2022-07-30T11:34:45Z</time>
      </trkpt>
      <trkpt lat="43.13738" lon="5.93436">
        <ele>104</ele>
        <time>2022-07-30T11:34:51Z</time>
      </trkpt>
      <trkpt lat="43.13736" lon="5.93436">
        <ele>103.9</ele>
        <time>2022-07-30T11:34:52Z</time>
      </trkpt>
      <trkpt lat="43.13735" lon="5.93437">
        <ele>103.8</ele>
        <time>2022-07-30T11:34:53Z</time>
      </trkpt>
      <trkpt lat="43.13731" lon="5.93436">
        <ele>103.6</ele>
        <time>2022-07-30T11:34:57Z</time>
      </trkpt>
      <trkpt lat="43.1373" lon="5.93438">
        <ele>103.5</ele>
        <time>2022-07-30T11:35:00Z</time>
      </trkpt>
      <trkpt lat="43.1373" lon="5.93439">
        <ele>103.5</ele>
        <time>2022-07-30T11:35:05Z</time>
      </trkpt>
      <trkpt lat="43.13724" lon="5.93426">
        <ele>102.8</ele>
        <time>2022-07-30T11:35:18Z</time>
      </trkpt>
      <trkpt lat="43.13723" lon="5.93424">
        <ele>102.7</ele>
        <time>2022-07-30T11:35:20Z</time>
      </trkpt>
      <trkpt lat="43.1372" lon="5.93422">
        <ele>102.5</ele>
        <time>2022-07-30T11:35:23Z</time>
      </trkpt>
      <trkpt lat="43.13713" lon="5.93416">
        <ele>102</ele>
        <time>2022-07-30T11:35:30Z</time>
      </trkpt>
      <trkpt lat="43.13711" lon="5.93413">
        <ele>101.9</ele>
        <time>2022-07-30T11:35:32Z</time>
      </trkpt>
      <trkpt lat="43.13709" lon="5.93411">
        <ele>101.7</ele>
        <time>2022-07-30T11:35:34Z</time>
      </trkpt>
      <trkpt lat="43.13707" lon="5.93409">
        <ele>101.6</ele>
        <time>2022-07-30T11:35:37Z</time>
      </trkpt>
      <trkpt lat="43.13705" lon="5.93403">
        <ele>101.3</ele>
        <time>2022-07-30T11:35:43Z</time>
      </trkpt>
      <trkpt lat="43.13705" lon="5.934">
        <ele>101.2</ele>
        <time>2022-07-30T11:35:45Z</time>
      </trkpt>
      <trkpt lat="43.13704" lon="5.93392">
        <ele>101</ele>
        <time>2022-07-30T11:35:51Z</time>
      </trkpt>
      <trkpt lat="43.13702" lon="5.93384">
        <ele>101.6</ele>
        <time>2022-07-30T11:36:00Z</time>
      </trkpt>
      <trkpt lat="43.13699" lon="5.93366">
        <ele>102.9</ele>
        <time>2022-07-30T11:36:13Z</time>
      </trkpt>
      <trkpt lat="43.13697" lon="5.93364">
        <ele>103.1</ele>
        <time>2022-07-30T11:36:18Z</time>
      </trkpt>
    </trkseg>
  </trk>
</gpx>